[[{"header":{"parameterUnit":"m.s-1","parameterCategory":1,"la1":30.6,"la2":28.766,"lo1":-90.7593,"lo2":-88.6598,"dy":0.0162,"dx":0.0183,"nx":116,"ny":114,"refTime":"2023-03-28T18:00:00:Z","depth":0,"parameterNumber":2,"parameterNumberName":"U-component_of_WINDS"},"data":[0.0,0.0,0.0,0.0,0.0,0.0,0.0,0.0,0.0,0.0,0.0,0.0,0.0,0.0,0.0,0.0,0.0,0.0,0.0,0.0,0.0,0.0,0.0,0.0,0.0,0.0,0.0,0.0,0.0,0.0,0.0,0.0,0.0,0.0,0.0,0.0,0.0,0.0,0.0,0.0,0.0,0.0,0.0,0.0,0.0,0.0,0.0,0.0,0.0,0.0,0.0,0.0,0.0,0.0,0.0,0.0,0.0,0.0,0.0,0.0,0.0,0.0,0.0,0.0,0.0,0.0,0.0,0.0,0.0,0.0,0.0,0.0,0.0,0.0,0.0,0.0,0.0,0.0,0.0,0.0,0.0,0.0,0.0,0.0,0.0,0.0,0.0,0.0,0.0,0.0,0.0,0.0,0.0,0.0,0.0,0.0,0.0,0.0,0.0,0.0,0.0,0.0,0.0,0.0,0.0,0.0,0.0,0.0,0.0,0.0,0.0,0.0,0.0,0.0,0.0,0.0,0.0,0.0,0.0,0.0,0.0,0.0,0.0,0.0,0.0,0.0,0.0,0.0,0.0,0.0,0.0,0.0,0.0,0.0,0.0,0.0,0.0,0.0,0.0,0.0,0.0,0.0,0.0,0.0,0.0,0.0,0.0,0.0,0.0,0.0,0.0,0.0,0.0,0.0,0.0,0.0,0.0,0.0,0.0,0.0,0.0,0.0,0.0,0.0,0.0,0.0,0.0,0.0,0.0,0.0,0.0,0.0,0.0,0.0,0.0,0.0,0.0,0.0,0.0,0.0,0.0,0.0,0.0,0.0,0.0,0.0,0.0,0.0,0.0,0.0,0.0,0.0,0.0,0.0,0.0,0.0,0.0,0.0,0.0,0.0,0.0,0.0,0.0,0.0,0.0,0.0,0.0,0.0,0.0,0.0,0.0,0.0,0.0,0.0,0.0,0.0,0.0,0.0,0.0,0.0,0.0,0.0,0.0,0.0,0.0,0.0,0.0,0.0,0.0,0.0,0.0,0.0,0.0,0.0,0.0,0.0,0.0,0.0,0.0,0.0,0.0,0.0,0.0,0.0,0.0,0.0,0.0,0.0,0.0,0.0,0.0,0.0,0.0,0.0,0.0,0.0,0.0,0.0,0.0,0.0,0.0,0.0,0.0,0.0,0.0,0.0,0.0,0.0,0.0,0.0,0.0,0.0,0.0,0.0,0.0,0.0,0.0,0.0,0.0,0.0,0.0,0.0,0.0,0.0,0.0,0.0,0.0,0.0,0.0,0.0,0.0,0.0,0.0,0.0,0.0,0.0,0.0,0.0,0.0,0.0,0.0,0.0,0.0,0.0,0.0,0.0,0.0,0.0,0.0,0.0,0.0,0.0,0.0,0.0,0.0,0.0,0.0,0.0,0.0,0.0,0.0,0.0,0.0,0.0,0.0,0.0,0.0,0.0,0.0,0.0,0.0,0.0,0.0,0.0,0.0,0.0,0.0,0.0,0.0,0.0,0.0,0.0,0.0,0.0,0.0,0.0,0.0,0.0,0.0,0.0,0.0,0.0,0.0,0.0,0.0,0.0,0.0,0.0,0.0,0.0,0.0,0.0,0.0,0.0,0.0,0.0,0.0,0.0,0.0,0.0,0.0,0.0,0.0,0.0,0.0,0.0,0.0,0.0,0.0,0.0,0.0,0.0,0.0,0.0,0.0,0.0,0.0,0.0,0.0,0.0,0.0,0.0,0.0,0.0,0.0,0.0,0.0,0.0,0.0,0.0,0.0,0.0,0.0,0.0,0.0,0.0,0.0,0.0,0.0,0.0,0.0,0.0,0.0,0.0,0.0,0.0,0.0,0.0,0.0,0.0,0.0,0.0,0.0,0.0,0.0,0.0,0.0,0.0,0.0,0.0,0.0,0.0,0.0,0.0,0.0,0.0,0.0,0.0,0.0,0.0,0.0,0.0,0.0,0.0,0.0,0.0,0.0,0.0,0.0,0.0,0.0,0.0,0.0,0.0,0.0,0.0,0.0,0.0,0.0,0.0,0.0,0.0,0.0,0.0,0.0,0.0,0.0,0.0,0.0,0.0,0.0,0.0,0.0,0.0,0.0,0.0,0.0,0.0,0.0,0.0,0.0,0.0,0.0,0.0,0.0,0.0,0.0,0.0,0.0,0.0,0.0,0.0,0.0,0.0,0.0,0.0,0.0,0.0,0.0,0.0,0.0,0.0,0.0,0.0,0.0,0.0,0.0,0.0,0.0,0.0,0.0,0.0,0.0,0.0,0.0,0.0,0.0,0.0,0.0,0.0,0.0,0.0,0.0,0.0,0.0,0.0,0.0,0.0,0.0,0.0,0.0,0.0,0.0,0.0,0.0,0.0,0.0,0.0,0.0,0.0,0.0,0.0,0.0,0.0,0.0,0.0,0.0,0.0,0.0,0.0,0.0,0.0,0.0,0.0,0.0,0.0,0.0,0.0,0.0,0.0,0.0,0.0,0.0,0.0,0.0,0.0,0.0,0.0,0.0,0.0,0.0,0.0,0.0,0.0,0.0,0.0,0.0,0.0,0.0,0.0,0.0,0.0,0.0,0.0,0.0,0.0,0.0,0.0,0.0,0.0,0.0,0.0,0.0,0.0,0.0,0.0,0.0,0.0,0.0,0.0,0.0,0.0,0.0,0.0,0.0,0.0,0.0,0.0,0.0,0.0,0.0,0.0,0.0,0.0,0.0,0.0,0.0,0.0,0.0,0.0,0.0,0.0,0.0,0.0,0.0,0.0,0.0,0.0,0.0,0.0,0.0,0.0,0.0,0.0,0.0,0.0,0.0,0.0,0.0,0.0,0.0,0.0,0.0,0.0,0.0,0.0,0.0,0.0,0.0,0.0,0.0,0.0,0.0,0.0,0.0,0.0,0.0,0.0,0.0,0.0,0.0,0.0,0.0,0.0,0.0,0.0,0.0,0.0,0.0,0.0,0.0,0.0,0.0,0.0,0.0,0.0,0.0,0.0,0.0,0.0,0.0,0.0,0.0,0.0,0.0,0.0,0.0,0.0,0.0,0.0,0.0,0.0,0.0,0.0,0.0,0.0,0.0,0.0,0.0,0.0,0.0,0.0,0.0,0.0,0.0,0.0,0.0,0.0,0.0,0.0,0.0,0.0,0.0,0.0,0.0,0.0,0.0,0.0,0.0,0.0,0.0,0.0,0.0,0.0,0.0,0.0,0.0,0.0,0.0,0.0,0.0,0.0,0.0,0.0,0.0,0.0,0.0,0.0,0.0,0.0,0.0,0.0,0.0,0.0,0.0,0.0,0.0,0.0,0.0,0.0,0.0,0.0,0.0,0.0,0.0,0.0,0.0,0.0,0.0,0.0,0.0,0.0,0.0,0.0,0.0,0.0,0.0,0.0,0.0,0.0,0.0,0.0,0.0,0.0,0.0,0.0,0.0,0.0,0.0,0.0,0.0,0.0,0.0,0.0,0.0,0.0,0.0,0.0,0.0,0.0,0.0,0.0,0.0,0.0,0.0,0.0,0.0,0.0,0.0,0.0,0.0,0.0,0.0,0.0,0.0,0.0,0.0,0.0,0.0,0.0,0.0,0.0,0.0,0.0,0.0,0.0,0.0,0.0,0.0,0.0,0.0,0.0,0.0,0.0,0.0,0.0,0.0,0.0,0.0,0.0,0.0,0.0,0.0,0.0,0.0,0.0,0.0,0.0,0.0,0.0,0.0,0.0,0.0,0.0,0.0,0.0,0.0,0.0,0.0,0.0,0.0,0.0,0.0,0.0,0.0,0.0,0.0,0.0,0.0,0.0,0.0,0.0,0.0,0.0,0.0,0.0,0.0,0.0,0.0,0.0,0.0,0.0,0.0,0.0,0.0,0.0,0.0,0.0,0.0,0.0,0.0,0.0,0.0,0.0,0.0,0.0,0.0,0.0,0.0,0.0,0.0,0.0,0.0,0.0,0.0,0.0,0.0,0.0,0.0,0.0,0.0,0.0,0.0,0.0,0.0,0.0,0.0,0.0,0.0,0.0,0.0,0.0,0.0,0.0,0.0,0.0,0.0,0.0,0.0,0.0,0.0,0.0,0.0,0.0,0.0,0.0,0.0,0.0,0.0,0.0,0.0,0.0,0.0,0.0,0.0,0.0,0.0,0.0,0.0,0.0,0.0,0.0,0.0,0.0,0.0,0.0,0.0,0.0,0.0,0.0,0.0,0.0,0.0,0.0,0.0,0.0,0.0,0.0,0.0,0.0,0.0,0.0,0.0,0.0,0.0,0.0,0.0,0.0,0.0,0.0,0.0,0.0,0.0,0.0,0.0,0.0,0.0,0.0,0.0,0.0,0.0,0.0,0.0,0.0,0.0,0.0,0.0,0.0,0.0,0.0,0.0,0.0,0.0,0.0,0.0,0.0,0.0,0.0,0.0,0.0,0.0,0.0,0.0,0.0,0.0,0.0,0.0,0.0,0.0,0.0,0.0,0.0,0.0,0.0,0.0,0.0,0.0,0.0,0.0,0.0,0.0,0.0,0.0,0.0,0.0,0.0,0.0,0.0,0.0,0.0,0.0,0.0,0.0,0.0,0.0,0.0,0.0,0.0,0.0,0.0,0.0,0.0,0.0,0.0,0.0,0.0,0.0,0.0,0.0,0.0,0.0,0.0,0.0,0.0,0.0,0.0,0.0,0.0,0.0,0.0,0.0,0.0,0.0,0.0,0.0,0.0,0.0,0.0,0.0,0.0,0.0,0.0,0.0,0.0,0.0,0.0,0.0,0.0,0.0,0.0,0.0,0.0,0.0,0.0,0.0,0.0,0.0,0.0,0.0,0.0,0.0,0.0,0.0,0.0,0.0,0.0,0.0,0.0,0.0,0.0,0.0,0.0,0.0,0.0,0.0,0.0,0.0,0.0,0.0,0.0,0.0,0.0,0.0,0.0,0.0,0.0,0.0,0.0,0.0,0.0,0.0,0.0,0.0,0.0,0.0,0.0,0.0,0.0,0.0,0.0,0.0,0.0,0.0,0.0,0.0,0.0,0.0,0.0,0.0,0.0,0.0,0.0,0.0,0.0,0.0,0.0,0.0,0.0,0.0,0.0,0.0,0.0,0.0,0.0,0.0,0.0,0.0,0.0,0.0,0.0,0.0,0.0,0.0,0.0,0.0,0.0,0.0,0.0,0.0,0.0,0.0,0.0,0.0,0.0,0.0,0.0,0.0,0.0,0.0,0.0,0.0,0.0,0.0,0.0,0.0,0.0,0.0,0.0,0.0,0.0,0.0,0.0,0.0,0.0,0.0,0.0,0.0,0.0,0.0,0.0,0.0,0.0,0.0,0.0,0.0,0.0,0.0,0.0,0.0,0.0,0.0,0.0,0.0,0.0,0.0,0.0,0.0,0.0,0.0,0.0,0.0,0.0,0.0,0.0,0.0,0.0,0.0,0.0,0.0,0.0,0.0,0.0,0.0,0.0,0.0,0.0,0.0,0.0,0.0,0.0,0.0,0.0,0.0,0.0,0.0,0.0,0.0,0.0,0.0,0.0,0.0,0.0,0.0,0.0,0.0,0.0,0.0,0.0,0.0,0.0,0.0,0.0,0.0,0.0,0.0,0.0,0.0,0.0,0.0,0.0,0.0,0.0,0.0,0.0,0.0,0.0,0.0,0.0,0.0,0.0,0.0,0.0,0.0,0.0,0.0,0.0,0.0,0.0,0.0,0.0,0.0,0.0,0.0,0.0,0.0,0.0,0.0,0.0,0.0,0.0,0.0,0.0,0.0,0.0,0.0,0.0,0.0,0.0,0.0,0.0,0.0,0.0,0.0,0.0,0.0,0.0,0.0,0.0,0.0,0.0,0.0,0.0,0.0,0.0,0.0,0.0,0.0,0.0,0.0,0.0,0.0,0.0,0.0,0.0,0.0,0.0,0.0,0.0,0.0,0.0,0.0,0.0,0.0,0.0,0.0,0.0,0.0,0.0,0.0,0.0,0.0,0.0,0.0,0.0,0.0,0.0,0.0,0.0,0.0,0.0,0.0,0.0,0.0,0.0,0.0,0.0,0.0,0.0,0.0,0.0,0.0,0.0,0.0,0.0,0.0,0.0,0.0,0.0,0.0,0.0,4.5429,0.0,0.0,0.0,0.0,0.0,0.0,0.0,0.0,0.0,0.0,0.0,0.0,0.0,0.0,0.0,0.0,0.0,0.0,0.0,0.0,0.0,0.0,0.0,0.0,0.0,0.0,0.0,0.0,0.0,0.0,0.0,0.0,0.0,0.0,0.0,0.0,0.0,0.0,0.0,0.0,0.0,0.0,0.0,0.0,0.0,0.0,0.0,0.0,0.0,0.0,0.0,0.0,0.0,0.0,0.0,0.0,0.0,0.0,0.0,0.0,0.0,0.0,0.0,0.0,0.0,0.0,0.0,0.0,0.0,0.0,0.0,0.0,0.0,0.0,0.0,0.0,0.0,0.0,0.0,0.0,0.0,0.0,0.0,0.0,0.0,0.0,0.0,0.0,0.0,0.0,0.0,0.0,0.0,0.0,0.0,0.0,0.0,0.0,0.0,0.0,0.0,0.0,0.0,0.0,0.0,0.0,0.0,0.0,0.0,0.0,0.0,0.0,0.0,0.0,0.0,0.0,4.6249,0.0,0.0,0.0,0.0,0.0,0.0,0.0,0.0,0.0,0.0,0.0,0.0,0.0,0.0,0.0,0.0,0.0,0.0,0.0,0.0,0.0,0.0,0.0,0.0,0.0,0.0,0.0,0.0,0.0,0.0,0.0,0.0,0.0,0.0,0.0,0.0,0.0,0.0,0.0,0.0,0.0,0.0,0.0,0.0,0.0,0.0,0.0,0.0,0.0,0.0,0.0,0.0,0.0,0.0,0.0,0.0,0.0,0.0,0.0,0.0,0.0,0.0,0.0,0.0,0.0,0.0,0.0,0.0,0.0,0.0,0.0,0.0,0.0,0.0,0.0,0.0,0.0,0.0,0.0,0.0,0.0,0.0,0.0,0.0,0.0,0.0,0.0,0.0,0.0,0.0,0.0,0.0,0.0,0.0,0.0,0.0,0.0,0.0,0.0,0.0,0.0,0.0,0.0,0.0,0.0,0.0,0.0,0.0,5.1737,5.2411,5.3108,5.3127,5.3035,5.276,4.9913,4.8504,4.8164,4.7135,0.0,0.0,0.0,0.0,0.0,0.0,0.0,0.0,0.0,0.0,0.0,0.0,0.0,0.0,0.0,0.0,0.0,0.0,0.0,0.0,0.0,0.0,0.0,0.0,0.0,0.0,0.0,0.0,0.0,0.0,0.0,0.0,0.0,0.0,0.0,0.0,0.0,0.0,5.8027,5.8066,5.8335,5.8639,0.0,0.0,0.0,0.0,0.0,0.0,0.0,0.0,0.0,0.0,0.0,0.0,0.0,0.0,0.0,0.0,0.0,0.0,0.0,0.0,0.0,0.0,0.0,0.0,0.0,0.0,0.0,0.0,0.0,0.0,0.0,0.0,0.0,0.0,0.0,0.0,0.0,0.0,0.0,0.0,0.0,0.0,0.0,0.0,4.7733,4.8646,0.0,0.0,0.0,0.0,0.0,0.0,0.0,0.0,0.0,0.0,0.0,0.0,0.0,5.1453,5.2699,5.2997,5.3874,5.5286,5.4713,5.4567,5.4764,5.4789,5.4445,5.3798,5.3213,0.0,5.0781,4.9073,0.0,0.0,0.0,0.0,0.0,0.0,0.0,0.0,0.0,0.0,0.0,0.0,0.0,0.0,0.0,0.0,0.0,0.0,0.0,0.0,0.0,0.0,0.0,0.0,0.0,0.0,0.0,0.0,0.0,0.0,0.0,0.0,0.0,0.0,0.0,0.0,5.7328,5.8855,5.9065,6.0008,6.0432,6.0239,5.8315,5.7407,5.7125,5.3895,0.0,0.0,0.0,0.0,0.0,0.0,0.0,0.0,0.0,0.0,0.0,0.0,0.0,0.0,0.0,0.0,0.0,0.0,0.0,0.0,0.0,0.0,0.0,0.0,0.0,0.0,0.0,0.0,0.0,0.0,0.0,0.0,0.0,0.0,0.0,0.0,0.0,0.0,0.0,4.7847,4.8984,4.89,4.9375,4.9525,0.0,0.0,0.0,0.0,0.0,0.0,0.0,0.0,0.0,5.1639,5.2862,5.4024,5.5204,5.515,5.5689,5.6837,5.6476,5.6598,5.7106,5.667,5.6319,5.5989,5.5498,5.4589,5.3351,5.1503,4.992,4.8487,0.0,0.0,0.0,0.0,4.4759,4.5667,0.0,0.0,0.0,0.0,0.0,0.0,0.0,0.0,0.0,0.0,0.0,0.0,0.0,0.0,0.0,5.208,0.0,0.0,0.0,0.0,0.0,0.0,0.0,0.0,0.0,0.0,0.0,0.0,5.9202,6.0359,5.9858,6.1396,6.1743,6.1089,6.0435,5.9567,5.8351,5.5397,5.3959,0.0,0.0,0.0,0.0,0.0,0.0,0.0,0.0,0.0,0.0,0.0,0.0,0.0,0.0,0.0,0.0,0.0,0.0,0.0,0.0,0.0,0.0,0.0,0.0,0.0,0.0,0.0,0.0,0.0,0.0,0.0,0.0,0.0,0.0,0.0,0.0,0.0,0.0,4.898,5.0195,4.9609,5.0859,5.1208,0.0,0.0,0.0,0.0,0.0,0.0,5.133,5.2264,5.3444,5.4948,5.5488,5.6232,5.7305,5.6898,5.7228,5.8258,5.762,5.7774,5.8611,5.7642,5.7187,5.7203,5.6559,5.5895,5.5164,5.332,5.1338,4.9364,4.8255,4.7078,4.5969,4.5697,4.6151,4.7091,0.0,0.0,0.0,0.0,0.0,0.0,0.0,0.0,0.0,0.0,0.0,0.0,0.0,0.0,5.6388,5.7942,5.8351,5.8498,0.0,0.0,0.0,0.0,0.0,0.0,0.0,0.0,0.0,5.712,5.8781,5.9973,6.0742,6.1666,6.2089,6.2012,6.1973,6.192,6.1597,5.7485,5.6213,5.6443,0.0,0.0,0.0,0.0,0.0,0.0,0.0,0.0,0.0,0.0,0.0,0.0,0.0,0.0,0.0,0.0,0.0,0.0,0.0,0.0,0.0,0.0,0.0,0.0,0.0,0.0,0.0,0.0,0.0,0.0,0.0,0.0,0.0,0.0,0.0,0.0,0.0,0.0,0.0,5.1289,5.207,0.0,0.0,0.0,0.0,5.0016,5.2277,5.4055,5.5007,5.5845,5.6744,5.7656,5.7567,5.8235,5.9796,5.8873,5.9142,6.0589,5.8165,5.755,5.845,5.6763,5.6106,5.628,5.6036,5.5895,5.5724,5.4051,5.2875,5.1935,5.0171,4.9523,4.9443,4.8619,4.885,4.9621,0.0,0.0,0.0,0.0,0.0,0.0,0.0,0.0,0.0,0.0,0.0,0.0,0.0,5.5575,5.9051,6.0732,6.2352,6.2832,6.1772,0.0,0.0,0.0,0.0,0.0,0.0,0.0,5.739,5.9527,6.1166,6.1858,6.1627,6.2474,6.2589,6.2089,6.1512,6.155,6.1897,5.8787,5.731,5.6792,5.3442,5.0507,0.0,0.0,0.0,0.0,0.0,0.0,0.0,0.0,0.0,0.0,0.0,0.0,0.0,0.0,0.0,0.0,0.0,0.0,0.0,0.0,0.0,0.0,0.0,0.0,0.0,0.0,0.0,0.0,0.0,0.0,0.0,0.0,0.0,0.0,0.0,0.0,0.0,5.3086,5.4805,0.0,5.3971,5.3591,5.3686,5.4256,5.4648,5.5464,5.69,5.7259,5.8084,5.9453,5.9259,5.9687,6.0819,6.0281,6.0242,6.0781,5.9319,5.8819,5.9088,5.745,5.677,5.6809,5.6172,5.5609,5.507,5.4377,5.3301,5.1951,5.0776,4.9654,4.8739,4.9015,4.9269,4.9637,0.0,0.0,0.0,0.0,0.0,0.0,0.0,0.0,0.0,0.0,0.0,5.1872,5.4103,5.9031,6.2683,6.4193,6.5524,6.5601,6.4,0.0,0.0,0.0,0.0,0.0,0.0,5.6923,5.8953,6.0781,6.2474,6.3051,6.2512,6.3358,6.3435,6.2897,6.2012,6.1973,6.232,5.9781,5.8402,5.7695,5.5229,5.2956,5.0829,0.0,0.0,0.0,0.0,0.0,0.0,0.0,0.0,0.0,0.0,0.0,0.0,0.0,0.0,0.0,0.0,0.0,0.0,0.0,0.0,0.0,0.0,0.0,0.0,0.0,0.0,0.0,0.0,0.0,0.0,0.0,0.0,0.0,0.0,5.2891,5.4883,5.4883,5.6875,5.7734,5.6289,5.6152,5.6273,5.6593,5.6873,5.7539,5.8672,5.9023,5.9676,6.0754,6.0555,6.0686,6.1189,6.0935,6.0781,6.0781,5.9627,5.9088,5.905,5.7434,5.6703,5.6665,5.6088,5.5532,5.5032,5.4626,5.3664,5.2279,5.1433,5.024,4.9048,4.9625,4.9817,4.9933,0.0,0.0,0.0,0.0,0.0,0.0,0.0,0.0,0.0,0.0,5.0844,5.4725,5.8122,6.3638,6.7475,6.8359,6.759,6.6396,6.4861,5.9978,0.0,0.0,0.0,0.0,5.4764,5.8027,6.0106,6.0935,6.2551,6.3358,6.3358,6.4205,6.4589,6.4551,6.3705,6.332,6.3128,6.0627,5.9588,5.9319,5.6925,5.5905,5.5498,0.0,0.0,0.0,0.0,0.0,0.0,0.0,0.0,0.0,0.0,0.0,0.0,0.0,0.0,0.0,0.0,0.0,0.0,0.0,0.0,0.0,0.0,0.0,0.0,0.0,0.0,0.0,0.0,0.0,0.0,0.0,0.0,0.0,5.2773,5.5039,5.6719,5.6719,5.8242,5.832,5.5742,5.7031,5.7656,5.6836,5.9062,6.043,6.043,6.1249,6.1619,6.1505,6.1352,6.1174,6.0958,6.0781,6.0704,6.0704,5.905,5.828,5.8204,5.6472,5.5703,5.5703,5.5703,5.5703,5.5588,5.4818,5.3972,5.3087,5.2241,5.1395,5.0702,5.0702,5.0702,5.0702,0.0,0.0,0.0,0.0,0.0,0.0,0.0,0.0,0.0,0.0,5.0999,5.5845,5.978,6.433,6.7705,6.9206,6.7436,6.5524,6.39,0.0,0.0,0.0,0.0,0.0,5.8221,5.9738,6.152,6.3551,6.4012,6.4243,6.4243,6.4474,6.4589,6.4551,6.3705,6.332,6.3243,6.1935,6.1012,6.0281,5.838,5.6539,5.488,0.0,0.0,0.0,0.0,0.0,0.0,0.0,0.0,0.0,0.0,0.0,0.0,0.0,0.0,0.0,0.0,0.0,0.0,0.0,0.0,0.0,0.0,0.0,0.0,0.0,0.0,0.0,0.0,0.0,0.0,0.0,5.2375,5.3866,5.4492,5.7344,5.9375,5.9375,6.0898,6.1406,6.0078,6.0351,6.0547,6.0312,6.0937,6.1328,6.1328,6.1479,6.1543,6.1497,6.065,6.0187,6.0111,5.9358,5.8973,5.8973,5.7896,5.7357,5.7319,5.6203,5.5703,5.5703,5.5703,5.5357,5.4818,5.4587,5.3626,5.2241,5.201,5.1395,5.0702,5.0702,5.0702,5.0702,0.0,0.0,0.0,0.0,0.0,0.0,0.0,0.0,0.0,0.0,5.1725,5.6889,6.1412,6.5345,6.8052,6.909,6.6846,6.4547,6.2579,0.0,0.0,0.0,0.0,5.7988,5.9567,6.1443,6.3128,6.4589,6.4974,6.5128,6.5128,6.5128,6.5128,6.5128,6.4243,6.3858,6.3782,6.2589,6.182,6.1243,5.9935,5.8517,5.7099,5.6155,5.5073,5.4,5.3352,5.3189,5.2947,5.0817,0.0,0.0,0.0,0.0,0.0,0.0,0.0,0.0,0.0,0.0,0.0,0.0,0.0,0.0,0.0,0.0,0.0,0.0,0.0,0.0,0.0,0.0,0.0,0.0,5.5077,5.6875,5.7383,5.914,6.0664,6.1406,6.207,6.2265,6.1758,6.1719,6.1719,6.1719,6.1654,6.1637,6.1637,6.1143,6.0867,6.0766,5.9804,5.938,5.9688,5.8742,5.8473,5.8781,5.7588,5.6973,5.6973,5.6088,5.5599,5.5446,5.5446,5.5178,5.4718,5.435,5.375,0.0,0.0,0.0,0.0,0.0,5.0702,5.0702,0.0,0.0,0.0,0.0,0.0,0.0,0.0,0.0,0.0,0.0,0.0,5.7426,6.2474,6.5974,6.8013,6.8129,6.5755,6.3152,0.0,0.0,0.0,5.3957,5.8276,6.0547,6.0089,6.3051,6.4705,6.4897,6.5667,6.6051,6.6051,6.6128,6.609,6.5859,6.5205,6.4782,6.4512,6.2897,6.2166,6.205,6.132,6.0896,6.0473,5.8434,5.8,5.8238,5.6772,5.5861,5.5062,5.3352,0.0,0.0,0.0,0.0,0.0,0.0,0.0,0.0,0.0,0.0,0.0,0.0,0.0,0.0,0.0,0.0,0.0,0.0,0.0,0.0,0.0,0.0,0.0,0.0,5.8164,6.0351,6.0664,6.0625,6.1133,6.2656,6.2265,6.1797,6.1719,6.1676,6.1668,6.1668,6.1546,6.1489,6.1458,0.0,0.0,0.0,0.0,5.8918,5.9473,5.8704,5.8627,5.9204,5.7703,5.6934,5.6774,5.5967,5.5423,5.5015,5.5015,5.508,5.5031,5.4268,5.4164,5.4318,5.2587,5.1395,5.0702,5.0702,5.0644,5.0624,0.0,0.0,0.0,0.0,0.0,0.0,0.0,0.0,0.0,4.7789,5.1541,5.5769,6.0766,6.3705,6.5628,6.632,6.3484,6.0008,0.0,0.0,5.5075,5.7212,5.8902,6.0997,6.3551,6.4243,6.5243,6.6628,6.6782,6.6859,6.6859,6.759,6.7205,6.5897,6.6397,6.5859,6.4551,6.3512,6.2781,6.2204,6.1512,6.0727,5.9958,5.9511,5.8973,5.8418,5.8017,5.8154,5.8329,5.6772,5.5741,5.4971,5.405,0.0,0.0,0.0,0.0,0.0,0.0,0.0,0.0,0.0,0.0,0.0,0.0,0.0,0.0,0.0,0.0,0.0,0.0,0.0,0.0,5.6077,5.8084,6.0156,6.2226,6.1875,6.1562,6.1914,6.2422,6.2461,6.1758,6.1612,6.1543,6.1543,6.1407,6.1358,6.1328,6.0993,6.08,6.0766,5.9819,5.9358,5.9511,5.8704,5.8011,5.7473,0.0,0.0,5.5441,5.5288,5.5026,5.4609,5.4609,5.479,5.5069,5.4917,5.47,5.4318,5.2587,5.1395,5.0702,5.0702,5.0483,5.0206,0.0,0.0,0.0,0.0,0.0,0.0,0.0,0.0,0.0,0.0,4.9594,5.3012,5.7187,5.9188,6.0365,6.0827,5.8196,0.0,0.0,5.4767,5.648,5.9403,6.1574,6.3512,6.5205,6.5667,6.6244,6.709,6.709,6.7321,6.7744,6.7744,6.7282,6.6513,6.6513,6.6013,6.5205,6.432,6.3551,6.2882,6.2182,6.1408,6.0635,6.0596,6.021,5.9742,5.9588,5.9511,5.9342,5.8235,5.7332,5.6463,5.5393,5.4241,5.2935,0.0,0.0,0.0,0.0,0.0,0.0,0.0,0.0,0.0,0.0,0.0,0.0,0.0,0.0,5.2226,5.2656,0.0,5.7026,5.8276,5.996,6.1406,6.2226,6.2344,6.2344,6.2344,6.2344,6.2134,6.1634,6.1543,6.1458,6.142,6.1254,6.1157,6.1151,6.0589,6.0242,6.0242,5.9358,5.9088,5.9511,5.828,5.7665,5.7627,5.6568,5.5708,5.5107,5.4876,5.4579,5.4153,5.4153,5.442,5.4819,5.5237,5.5032,5.4395,5.3549,5.2433,5.1241,5.0856,5.0584,5.0435,0.0,0.0,0.0,0.0,0.0,0.0,0.0,0.0,0.0,0.0,4.7499,5.02,5.3415,5.4706,5.517,0.0,0.0,0.0,0.0,5.6001,5.8676,6.1166,6.4397,6.6205,6.6397,6.7013,6.7436,6.759,6.759,6.7975,6.8629,6.809,6.7667,6.7321,6.6667,6.6282,6.6051,6.5051,6.432,6.383,6.289,6.2206,6.172,6.1235,6.0948,6.0804,6.0589,5.9781,5.8742,5.8534,5.7674,5.6618,5.5787,5.5372,5.4687,5.2348,5.2155,0.0,0.0,0.0,0.0,0.0,0.0,0.0,0.0,4.9624,5.0658,5.0703,5.2849,5.5156,5.6367,5.8164,5.9648,6.0273,6.1719,6.25,6.1797,6.2305,6.2732,6.2705,6.2076,6.1607,6.1511,6.1304,6.1189,6.1228,6.0896,6.0781,6.0935,6.0204,5.9742,5.9742,5.9127,5.9088,5.9742,5.8396,5.795,5.8381,5.6652,5.5635,5.5274,5.5007,5.457,5.4166,5.4093,5.4237,5.4646,5.5314,5.5193,5.4617,5.4528,5.3626,5.2318,5.1471,5.0988,5.0785,0.0,0.0,0.0,0.0,0.0,0.0,0.0,0.0,0.0,0.0,0.0,0.0,0.0,0.0,0.0,0.0,0.0,0.0,5.3451,5.7058,6.0358,6.2897,6.5551,6.7321,6.809,6.8205,6.8629,6.9398,6.9398,6.9475,6.959,7.0206,6.9667,6.8244,6.8167,6.7705,6.6859,6.5282,6.4743,6.4768,6.3162,6.2632,6.2629,6.0837,6.0111,6.0057,5.9742,5.8127,5.6357,5.7819,5.6887,5.5398,5.6732,5.6269,5.4915,5.3074,5.2623,5.2299,5.0469,4.933,4.9196,5.1273,4.9551,4.8283,0.0,5.2377,5.2414,5.3088,5.5478,5.7305,5.6719,5.8594,6.0312,6.039,6.1211,6.1797,6.1719,6.1797,6.1788,6.1679,6.1579,6.1516,6.152,6.0573,6.0265,6.0973,6.0204,6.0012,6.0781,6.0704,6.0666,6.0666,6.055,6.055,6.0666,6.0473,5.983,5.8748,5.8501,5.758,5.6071,5.6033,5.5795,5.5374,5.5016,5.4876,5.495,5.5122,5.5084,5.4995,5.4633,5.4395,5.4087,5.3241,5.1988,5.0799,0.0,0.0,0.0,0.0,0.0,0.0,0.0,0.0,0.0,0.0,0.0,0.0,0.0,0.0,0.0,0.0,0.0,0.0,5.3974,5.7983,6.205,6.609,6.8205,6.9475,6.986,7.036,7.0552,7.0398,7.0898,7.1129,7.1129,7.0975,7.0283,6.9129,6.809,6.7436,6.7013,6.5859,6.5282,6.496,6.3728,6.3153,6.2767,6.0788,5.9056,5.7909,5.8644,5.8239,0.0,0.0,5.6502,5.5659,5.5475,5.5382,5.496,5.3202,5.3436,5.3593,5.0806,5.0113,5.0275,5.0724,5.0893,5.1333,5.2936,5.4452,5.5397,5.5161,5.7387,5.9258,5.8867,6.0117,6.1172,6.1172,6.1445,6.1719,6.1719,6.1719,6.1504,6.0938,6.0727,6.0766,6.1189,6.0804,6.0612,6.0858,6.0473,6.0435,6.0781,6.0781,6.0781,6.0781,6.0781,6.0781,6.0781,6.0281,5.9613,5.8778,5.8076,5.7171,5.6176,5.5969,5.5754,5.5618,5.5683,5.5694,5.5696,5.5541,5.5598,5.5717,5.5109,5.4703,5.4395,5.351,5.2746,5.2234,0.0,0.0,0.0,0.0,0.0,0.0,0.0,0.0,0.0,0.0,0.0,0.0,0.0,0.0,0.0,0.0,0.0,0.0,0.0,5.8175,6.2651,6.7513,6.9744,7.1014,7.1245,7.2091,7.2245,7.1629,7.2245,7.2552,7.2552,7.1898,7.1168,7.0321,6.8821,6.8013,6.7744,6.6936,6.6244,6.5639,6.4815,6.3973,6.2943,6.0573,5.8648,5.7371,5.8199,5.7598,0.0,0.0,5.6173,5.5504,5.4858,5.5117,5.5343,5.3859,5.4125,5.4284,5.1176,5.0894,5.1373,5.0913,5.2159,5.3662,5.4244,5.6191,5.7765,5.7352,5.9109,6.0703,6.043,6.1094,6.1601,6.1367,6.1523,6.1719,6.1719,6.1484,6.1104,6.0399,5.9958,5.9958,6.065,6.0435,6.0396,6.0781,6.0589,6.055,6.0781,6.0781,6.0781,6.0781,6.0781,6.0781,6.0781,6.0165,5.9562,5.8935,5.8013,5.7265,5.6681,5.6374,5.6235,5.6279,5.6372,5.6348,5.6314,5.5731,5.5692,5.5898,5.5331,5.4918,5.4594,5.4105,5.3678,5.3391,0.0,0.0,0.0,0.0,0.0,0.0,0.0,0.0,0.0,0.0,0.0,0.0,0.0,0.0,0.0,0.0,0.0,0.0,0.0,5.731,6.152,6.5782,6.9129,7.1283,7.2129,7.3014,7.3437,7.3437,7.3437,7.3476,7.3476,7.3437,7.2976,7.2091,7.1206,7.036,6.9552,6.8706,6.7962,6.7268,6.65,6.5232,6.3425,6.0087,5.9283,5.9736,5.8833,0.0,0.0,0.0,5.5802,5.4142,5.5809,5.6422,5.6398,5.5499,5.4669,5.3614,5.1706,5.1693,5.2425,5.3119,5.3258,5.3857,5.6319,5.7807,5.8877,5.9709,6.0817,6.1406,6.0547,6.1094,6.1406,6.0586,6.1133,6.1719,6.1719,6.0976,6.039,6.0234,5.9438,5.9226,5.998,5.9034,5.905,6.0666,6.0012,5.9896,6.0742,6.0781,6.0781,6.0781,6.0781,6.0781,6.0781,6.0781,6.03,5.9386,5.9314,5.8838,5.7969,5.7923,5.7923,5.7886,5.7116,5.6748,5.6683,5.5498,5.5025,5.5025,5.5093,5.5069,5.5122,5.5477,5.4833,5.3834,0.0,0.0,0.0,0.0,0.0,0.0,0.0,0.0,0.0,0.0,0.0,0.0,0.0,0.0,0.0,0.0,0.0,0.0,0.0,5.6922,6.092,6.4051,6.8475,7.0783,7.0552,7.3014,7.4053,7.3514,7.463,7.4591,7.3514,7.3514,7.2745,7.1283,7.0475,6.9937,6.9629,6.8167,6.7782,6.8001,6.5517,6.4609,6.4497,6.1562,5.9269,5.7793,0.0,0.0,0.0,0.0,0.0,0.0,5.3922,5.4381,5.4915,5.5234,5.4286,5.2953,5.2133,5.2536,5.3327,5.3971,5.5363,5.6973,5.8534,5.9226,5.9656,6.0036,5.9629,5.9258,5.9531,5.9375,5.9453,6.0273,6.0664,6.1055,6.1601,6.1445,6.1015,6.039,6.0002,5.9849,6.0106,5.9588,5.9681,6.0858,6.0589,6.0473,6.0781,6.0781,6.0781,6.0781,6.0781,6.0781,6.0781,6.0781,6.0482,5.9855,5.9212,5.8756,5.8461,5.8142,5.7997,5.796,5.7703,5.7299,5.6712,5.5791,5.5566,5.5695,5.4643,5.4754,5.5458,5.5076,5.4629,5.4292,0.0,0.0,0.0,0.0,0.0,0.0,0.0,0.0,0.0,0.0,0.0,0.0,0.0,0.0,0.0,0.0,0.0,4.6166,0.0,0.0,5.7434,6.0873,6.4757,6.6987,6.7398,6.9848,7.1156,7.126,7.2657,7.2927,7.2184,7.2465,7.1668,6.9975,6.9475,6.8898,6.8282,6.7128,6.6885,6.7075,6.498,6.4178,6.4028,6.1433,5.9309,0.0,0.0,0.0,0.0,0.0,0.0,0.0,5.4255,5.4455,5.4896,5.4839,5.449,5.3822,5.2632,5.3593,5.5031,5.5306,5.7088,5.8896,5.9588,5.9896,5.9842,5.9358,5.853,5.7965,5.8237,5.7577,5.7422,5.8827,5.9023,5.9453,6.0625,6.082,6.0703,6.043,6.0078,5.9976,6.0229,6.0014,6.0205,6.0958,6.0858,6.0781,6.0781,6.0781,6.0781,6.0781,6.0781,6.0781,6.0781,6.0781,6.0533,6.0103,5.9319,5.8874,5.8713,5.8375,5.8186,5.7997,5.7997,5.7703,5.7189,5.6345,5.6012,5.5903,5.4688,5.4538,5.4969,5.4608,5.4484,5.4452,0.0,0.0,0.0,0.0,0.0,0.0,0.0,0.0,0.0,0.0,0.0,0.0,0.0,0.0,0.0,0.0,0.0,0.0,0.0,0.0,0.0,5.6368,5.8404,6.0541,6.2935,6.4061,6.5418,6.7108,6.7923,6.8795,6.9538,7.0285,6.9706,6.8129,6.8129,6.7269,6.5769,6.573,6.5365,6.4827,6.4811,6.3902,6.2261,5.9888,0.0,0.0,0.0,0.0,0.0,0.0,5.7187,5.648,5.6386,5.6363,5.6074,5.4557,5.5273,5.5937,5.3274,5.4967,5.742,5.7194,5.8319,5.955,5.9681,5.9761,5.941,5.7909,5.765,5.7469,5.6723,5.589,5.5625,5.6597,5.6717,5.7343,5.9062,5.9336,5.9609,6.039,5.9805,5.9648,6.039,6.0339,6.0467,6.0988,6.0881,6.0819,6.0781,6.0781,6.0781,6.0781,6.0819,6.0858,6.0781,6.0781,6.0597,6.0132,5.9658,5.9176,5.8756,5.8753,5.8503,5.8042,5.8042,5.8006,5.7886,5.7079,5.6308,5.5544,5.509,5.4503,5.387,5.433,5.4495,5.443,0.0,0.0,0.0,0.0,0.0,0.0,0.0,0.0,0.0,0.0,0.0,0.0,0.0,0.0,0.0,0.0,0.0,0.0,0.0,0.0,0.0,0.0,0.0,0.0,0.0,0.0,0.0,6.4378,6.5842,6.6406,6.6097,6.6283,6.5804,6.4822,6.4822,6.4574,6.4152,6.3534,6.3942,6.4735,0.0,6.1811,6.2444,0.0,0.0,0.0,0.0,0.0,0.0,5.6592,5.6212,5.5342,5.4577,5.4398,5.4669,5.5513,5.5696,5.5701,5.6004,5.7203,5.8469,5.8765,5.9258,5.9681,5.9873,5.8556,5.74,5.7763,5.6326,5.5318,5.6411,5.5872,5.6005,5.8164,5.8548,5.9131,6.082,6.1055,6.1133,6.1328,6.1172,6.1133,6.1367,6.1241,6.1173,6.1225,6.1059,6.0896,6.0819,6.0781,6.0781,6.0781,6.1435,6.1435,6.0819,6.0781,6.0734,6.0622,6.0132,5.9855,5.976,5.9389,5.899,5.8508,5.8508,5.7956,5.7042,5.6235,5.5794,5.5471,5.4202,5.3912,5.4244,5.4408,5.4411,5.4522,0.0,0.0,0.0,0.0,0.0,0.0,0.0,0.0,0.0,0.0,0.0,0.0,0.0,0.0,0.0,0.0,0.0,0.0,0.0,0.0,0.0,0.0,0.0,0.0,0.0,0.0,0.0,0.0,0.0,0.0,6.1524,6.185,6.1541,6.075,6.077,6.0771,6.075,5.9937,0.0,0.0,0.0,0.0,0.0,0.0,0.0,0.0,0.0,0.0,5.4624,5.5131,5.516,5.5003,5.5252,5.5657,5.6152,5.6829,5.7001,5.709,5.7313,5.8329,5.9319,5.9473,5.9604,5.9557,5.899,5.7865,5.6783,5.6286,5.5318,5.4767,5.5348,5.4767,5.49,5.7146,5.7499,5.8233,6.0307,6.0897,6.1289,6.164,6.1719,6.1719,6.1719,6.1576,6.145,6.1328,6.1099,6.0935,6.0819,6.0781,6.0781,6.0781,6.1281,6.1281,6.0781,6.0781,6.0781,6.0781,6.0533,6.0311,6.0103,5.9823,5.9458,5.9028,5.9028,5.8455,5.7587,5.6773,5.6129,5.5464,5.4216,5.3995,5.4399,5.4399,5.462,5.4987,0.0,0.0,0.0,0.0,0.0,0.0,0.0,0.0,0.0,0.0,4.0038,0.0,0.0,0.0,0.0,0.0,0.0,0.0,0.0,0.0,0.0,0.0,0.0,0.0,0.0,0.0,0.0,0.0,0.0,0.0,0.0,0.0,0.0,0.0,0.0,0.0,0.0,0.0,0.0,0.0,0.0,0.0,0.0,0.0,0.0,0.0,0.0,0.0,5.3283,5.3789,5.4334,5.5059,5.6848,5.7935,5.8476,5.8042,5.8538,5.8978,5.8013,5.8949,6.0104,5.9781,5.9642,5.922,5.7753,5.7282,5.6542,5.4443,5.4498,5.4767,5.4123,5.3391,5.3491,5.5345,5.5546,5.6405,5.9163,6.0035,6.0703,6.1601,6.1719,6.1678,6.1665,6.1555,6.1425,6.1278,6.1099,6.0935,6.0819,6.0781,6.0896,6.1127,6.0935,6.0896,6.1127,6.0896,6.0781,6.0781,6.0781,6.0597,6.0189,6.0189,5.9916,5.9492,5.9492,5.9176,5.8639,5.7819,5.6788,5.5684,5.4876,5.4546,5.4583,5.4693,5.517,5.5757,0.0,0.0,0.0,0.0,0.0,0.0,0.0,0.0,0.0,0.0,3.9992,4.0231,0.0,0.0,0.0,0.0,0.0,0.0,0.0,0.0,0.0,0.0,0.0,0.0,0.0,4.9624,5.0989,5.1576,5.3029,0.0,0.0,0.0,0.0,0.0,0.0,0.0,0.0,0.0,0.0,0.0,0.0,0.0,0.0,0.0,0.0,0.0,0.0,5.199,0.0,0.0,5.4721,5.4873,5.6039,5.6543,5.6947,5.8329,5.8948,5.9249,5.9484,6.0377,6.1151,6.0819,5.9873,5.8792,5.7776,5.604,5.4526,5.4093,5.3536,5.3323,5.3908,5.3869,5.4584,5.7061,5.6835,5.7539,6.082,6.0781,6.0703,6.1601,6.1719,6.1676,6.156,6.1494,6.1389,6.1092,6.1004,6.0935,6.0819,6.0781,6.1435,6.282,6.1512,6.1473,6.2858,6.1473,6.0781,6.0781,6.0781,6.0757,6.0671,6.0671,6.0391,5.9977,5.9977,0.0,5.8639,5.7819,5.7122,5.6528,5.5721,5.539,5.5464,5.6124,5.6492,5.6675,0.0,0.0,0.0,0.0,0.0,0.0,0.0,4.0077,4.0262,3.984,4.0197,4.02,3.9427,3.9682,3.9952,0.0,0.0,0.0,0.0,0.0,0.0,0.0,0.0,0.0,0.0,4.7962,4.9037,4.9567,0.0,5.0726,5.0797,5.0797,5.0596,5.0279,5.0284,5.0558,5.1049,0.0,0.0,0.0,0.0,0.0,0.0,0.0,0.0,0.0,0.0,0.0,0.0,0.0,5.4285,5.4473,5.6868,5.7931,5.8568,5.9966,6.0104,5.996,6.0627,6.1133,6.145,6.1214,6.0015,5.8543,5.7235,5.5755,5.4406,5.3505,5.3338,5.3362,5.3318,5.3674,5.4424,5.5651,5.5506,5.6289,5.9297,5.9375,5.957,6.0859,6.1354,6.157,6.1505,6.1343,6.1189,6.1012,6.0935,6.105,6.1435,6.1858,6.2089,6.2012,6.1666,6.1627,6.2012,6.1204,6.0781,6.0781,6.0781,6.0781,6.0781,6.0781,6.0671,6.0482,6.0482,5.9688,5.8427,5.8015,5.7221,5.6124,5.5757,5.5868,5.6271,5.6675,5.7079,5.7483,0.0,0.0,0.0,0.0,0.0,0.0,0.0,3.9945,4.0151,4.0269,4.0224,3.9961,3.933,3.9268,3.9461,0.0,0.0,0.0,0.0,0.0,0.0,0.0,0.0,0.0,0.0,0.0,0.0,4.7766,4.8099,0.0,0.0,0.0,0.0,0.0,4.8125,4.8528,4.9252,4.9326,0.0,0.0,0.0,5.2044,0.0,0.0,0.0,0.0,0.0,5.0018,5.0334,5.2785,5.3662,5.4188,5.7185,5.8703,5.959,6.0588,6.0547,6.0312,6.1015,6.1383,6.15,6.1376,6.0118,5.8529,5.6751,5.5657,5.4528,5.2761,5.2983,5.3244,5.2533,5.2971,5.3565,5.3927,5.3822,5.4687,5.75,5.789,5.8515,6.0195,6.1045,6.1497,6.1458,6.1189,6.0973,6.0935,6.1012,6.1281,6.1781,6.2589,6.2435,6.1127,6.1743,6.1781,6.1089,6.0896,6.0781,6.0781,6.0781,6.0781,6.0781,6.0781,6.0781,6.0781,6.0781,5.9901,5.848,5.848,5.7528,5.6088,5.6088,5.6492,5.7079,5.7079,5.7446,5.7997,0.0,0.0,0.0,0.0,0.0,0.0,0.0,3.8682,3.9482,4.0192,3.967,3.9205,3.9215,3.9215,3.8939,0.0,0.0,0.0,0.0,0.0,0.0,0.0,0.0,0.0,0.0,0.0,0.0,4.6032,4.7534,0.0,0.0,0.0,0.0,0.0,0.0,4.7378,4.743,4.7489,0.0,0.0,0.0,0.0,0.0,0.0,0.0,0.0,0.0,5.0056,5.0348,5.2115,5.326,5.415,5.5279,5.6136,5.6945,5.7929,5.875,5.9453,6.0156,6.0974,6.1671,6.1505,6.0332,5.8706,5.6952,5.5302,5.3611,5.1865,5.1584,5.1609,5.1531,5.157,5.2156,5.3721,5.3334,5.4008,5.7422,5.789,5.8515,6.0195,6.1045,6.1458,6.1343,6.1151,6.0935,6.0819,6.155,6.1666,6.0973,6.1743,6.2127,6.1973,6.205,6.205,6.1973,6.1204,6.0781,6.0781,6.0781,6.0781,6.0781,6.0781,6.0781,6.0781,6.0781,6.0245,0.0,5.9276,5.8686,5.7776,5.7776,5.7813,5.7886,5.7886,5.7923,5.7997,0.0,0.0,0.0,0.0,0.0,0.0,3.7695,3.8491,3.9214,3.9541,3.9712,3.967,3.9205,3.8706,3.8278,3.7954,0.0,0.0,0.0,0.0,0.0,0.0,0.0,0.0,0.0,0.0,4.4534,4.5065,4.5747,0.0,0.0,0.0,0.0,0.0,0.0,4.615,4.5786,4.6829,0.0,0.0,0.0,0.0,0.0,0.0,0.0,0.0,0.0,0.0,4.9588,5.125,5.209,5.2512,5.2854,5.3128,5.3984,5.7022,5.8164,5.8711,5.9961,6.1015,6.1676,6.1619,6.0021,5.8081,5.6871,5.4835,5.2878,5.1662,5.1418,5.1414,5.1414,5.1414,5.1613,5.2326,5.214,5.2767,5.5224,5.5545,5.6562,5.9336,5.9827,6.0296,6.1228,6.1112,6.0935,6.0819,6.1127,6.1166,6.0819,6.2089,6.2358,6.1358,6.182,6.1858,6.132,6.0973,6.0781,6.0781,6.0781,6.0781,6.0781,6.0781,6.0781,6.0781,6.0781,5.9977,0.0,5.9201,5.8536,5.7336,5.7813,5.7997,5.7997,5.7997,5.7997,5.7997,0.0,0.0,0.0,0.0,0.0,3.6938,3.7257,3.8074,3.8759,3.9026,3.9562,3.9618,3.8843,3.8,3.744,3.7194,3.743,0.0,0.0,0.0,0.0,0.0,0.0,0.0,0.0,0.0,4.3208,4.3827,4.4098,4.4639,0.0,0.0,4.5312,4.5052,0.0,0.0,0.0,0.0,0.0,0.0,0.0,0.0,0.0,0.0,0.0,0.0,0.0,0.0,0.0,0.0,0.0,5.1408,5.138,0.0,0.0,5.5386,5.6718,5.75,5.9219,6.0469,6.1328,6.1328,5.9606,5.761,5.6483,5.4408,5.2448,5.1574,5.1414,5.1414,5.1414,5.1414,5.1382,0.0,5.1405,5.1912,5.3425,5.4058,5.539,5.8124,5.8698,5.9417,6.0783,6.0927,6.0896,6.0819,6.0781,6.0781,6.0781,6.1935,6.2012,6.0819,6.1627,6.1666,6.0819,6.0781,6.0781,6.0781,6.0781,6.0781,6.0781,6.0781,6.0781,6.0781,6.0781,5.9939,0.0,5.9163,5.8499,5.7226,5.7776,5.7997,5.7997,5.7997,5.7997,5.7997,0.0,0.0,0.0,0.0,0.0,0.0,3.6288,3.7142,3.8018,3.8897,3.9011,3.8741,3.7983,3.7156,3.6305,3.5608,3.6238,0.0,0.0,0.0,0.0,0.0,0.0,0.0,0.0,0.0,4.2009,4.2048,4.2899,4.375,4.4601,4.4666,4.513,4.5879,0.0,0.0,0.0,0.0,0.0,0.0,0.0,0.0,0.0,0.0,0.0,0.0,0.0,0.0,0.0,0.0,0.0,0.0,0.0,0.0,0.0,0.0,5.3976,5.5703,5.7461,5.914,6.039,6.039,5.914,5.7461,5.5703,5.3976,5.2468,5.157,5.1414,5.1414,5.1414,5.1414,5.1385,0.0,5.1404,5.1714,5.2578,5.4217,5.562,5.6515,5.7967,5.9176,5.9946,6.0496,6.0781,6.0781,6.0781,6.0781,6.0781,6.0819,6.0819,6.0781,6.1627,6.1666,6.0819,6.0781,6.0781,6.0781,6.0781,6.0781,6.0781,6.0781,6.0781,6.0781,6.0781,6.0245,0.0,5.9389,5.8835,5.7997,5.7997,5.7997,5.7997,5.7997,5.7997,5.7997,0.0,0.0,0.0,0.0,0.0,0.0,0.0,3.7142,3.8035,3.895,3.9065,3.8776,3.7983,3.7164,3.6363,3.557,3.5726,0.0,0.0,0.0,0.0,0.0,0.0,0.0,0.0,0.0,4.1429,4.2009,4.228,4.2873,4.3789,4.3814,4.3645,4.338,4.3762,4.3714,0.0,0.0,0.0,0.0,0.0,0.0,4.5708,0.0,0.0,0.0,0.0,0.0,0.0,0.0,0.0,0.0,0.0,0.0,0.0,0.0,0.0,5.4677,5.582,5.6953,5.7812,5.7804,5.6523,5.5075,5.4529,5.3041,5.174,5.1457,5.1414,5.1414,5.1414,5.1414,5.1418,5.1389,5.1909,5.2578,5.3464,5.406,5.539,5.8007,5.9645,6.0565,6.0671,6.0773,6.0781,6.0781,6.0781,6.0781,6.0781,6.0781,6.0781,6.0781,6.105,6.1089,6.0781,6.0781,6.0781,6.0781,6.0781,6.0781,6.0781,6.0781,6.0781,6.0781,6.0781,6.0283,5.9389,5.9389,5.8835,5.7997,5.7997,5.7997,5.7997,5.7997,5.7997,5.7997,0.0,0.0,0.0,0.0,0.0,0.0,0.0,3.6684,3.7462,3.8049,3.8125,3.795,3.7517,3.6733,3.6045,3.5586,3.5534,0.0,0.0,0.0,0.0,0.0,0.0,0.0,0.0,4.0616,4.1042,4.1545,4.1545,4.1983,4.286,4.2884,4.2803,4.2654,4.2889,4.2917,0.0,0.0,0.0,0.0,0.0,0.0,4.5351,0.0,0.0,0.0,0.0,0.0,0.0,0.0,0.0,0.0,0.0,0.0,0.0,0.0,5.1687,5.2866,5.4408,5.5467,5.6091,5.6119,5.5033,5.3906,5.3592,5.2414,5.1391,5.1385,5.1398,5.1402,5.1389,5.1394,5.1396,5.1389,5.187,5.2382,5.2922,5.359,5.5117,5.8183,5.9874,6.0716,6.0519,6.0704,6.0781,6.0781,6.0781,6.0781,6.0781,6.0781,6.0781,6.0781,6.0781,6.0781,6.0781,6.0781,6.0781,6.0781,6.0781,6.0781,6.0781,6.0781,6.0781,6.0781,6.0781,6.0283,0.0,5.9389,5.8835,5.7997,5.7997,5.7997,5.7997,5.7997,5.7997,5.7997,0.0,0.0,0.0,0.0,0.0,0.0,0.0,3.598,3.6583,3.6594,3.6517,3.6565,3.668,3.5993,3.5534,3.5572,0.0,0.0,0.0,0.0,0.0,0.0,0.0,0.0,3.9495,4.0307,4.0732,4.0771,4.081,4.1158,4.1932,4.1966,4.2438,4.3197,4.2432,4.2585,0.0,0.0,0.0,0.0,0.0,0.0,0.0,0.0,0.0,0.0,0.0,0.0,0.0,0.0,0.0,0.0,0.0,0.0,0.0,0.0,0.0,0.0,0.0,5.4356,5.5031,5.5031,5.4395,5.3614,5.2773,5.1977,0.0,5.1394,5.1404,5.1394,5.1403,5.1406,5.1405,5.1402,5.1405,5.1406,5.1482,5.3085,5.5115,5.7338,5.9061,5.9997,5.9727,6.0358,6.0781,6.0781,6.0781,6.0781,6.0781,6.0781,6.0781,6.0781,6.0781,6.0781,6.0781,6.0781,6.0781,6.0781,6.0781,6.0781,6.0781,6.0781,6.0781,6.0781,6.0781,6.0283,5.9458,5.9458,5.8913,5.8097,5.8097,5.8051,5.8042,5.8042,5.8042,5.7997,0.0,0.0,0.0,0.0,0.0,0.0,0.0,0.0,0.0,0.0,3.6971,3.6596,3.6671,3.6009,3.5572,0.0,0.0,0.0,0.0,0.0,0.0,0.0,0.0,0.0,3.9419,3.9612,4.0076,4.0733,4.0759,4.0887,4.1081,4.1114,4.1225,4.1489,4.1323,4.1412,0.0,0.0,0.0,0.0,0.0,0.0,0.0,0.0,0.0,0.0,4.6058,4.5984,0.0,0.0,0.0,0.0,0.0,0.0,0.0,0.0,4.9579,5.0243,5.0867,0.0,5.2319,5.2319,5.2159,5.1971,0.0,0.0,0.0,0.0,0.0,5.1406,5.1403,5.1403,5.1394,5.1406,5.1405,5.1637,5.2305,5.5031,5.7142,5.7558,5.9629,6.0668,5.9785,6.0371,6.0781,6.0781,6.0781,6.0781,6.0781,6.0781,6.0781,6.0781,6.0781,6.0781,6.0781,6.0781,6.0781,6.0781,6.0781,6.0781,6.0781,6.0781,6.0781,6.0781,6.0781,6.0482,5.9916,5.9916,5.9592,5.9065,5.9065,5.8835,5.8508,5.8508,5.8326,5.7997,0.0,0.0,0.0,0.0,0.0,0.0,0.0,0.0,0.0,0.0,0.0,3.6118,3.6136,3.583,0.0,0.0,0.0,0.0,0.0,0.0,0.0,0.0,0.0,3.7332,3.8233,3.8658,3.9277,4.0166,4.0191,4.0409,4.0781,4.0826,4.0868,4.0965,4.103,4.1071,0.0,0.0,0.0,0.0,4.1969,0.0,0.0,0.0,0.0,0.0,4.5672,4.5675,0.0,4.6136,4.6292,4.6378,0.0,0.0,0.0,0.0,4.8564,4.9111,4.9891,5.075,5.1492,5.1882,5.1687,5.1499,5.1911,0.0,0.0,0.0,0.0,5.14,5.1402,5.1054,5.0931,5.1328,5.1054,5.1404,5.3047,5.5622,5.75,5.8038,5.9643,6.0558,6.0246,6.058,6.0781,6.0781,6.0781,6.0781,6.0781,6.0781,6.0781,6.0781,6.0781,6.0781,6.0781,6.0781,6.0781,6.0781,6.0781,6.0781,6.0781,6.0781,6.0781,6.0781,6.0781,6.0533,6.0103,6.0103,5.9823,5.9389,5.9389,5.9248,5.9028,5.9028,5.8716,5.8326,0.0,0.0,0.0,0.0,0.0,0.0,0.0,0.0,0.0,0.0,0.0,0.0,0.0,0.0,0.0,0.0,0.0,0.0,0.0,0.0,0.0,0.0,3.6291,3.6752,3.6891,3.7626,3.8489,3.9507,3.9507,3.9968,4.0837,4.0868,4.0956,4.1023,4.1078,4.11,0.0,0.0,0.0,4.2325,4.1583,0.0,0.0,0.0,0.0,0.0,0.0,0.0,0.0,4.6261,4.63,4.63,4.63,0.0,0.0,0.0,0.0,0.0,4.9348,5.0559,5.157,5.2308,5.1956,5.1574,5.2336,0.0,0.0,0.0,0.0,5.1352,5.124,5.0701,5.0508,5.1093,5.082,5.1406,5.4023,5.5781,5.7288,5.8584,5.959,6.0317,6.0602,6.0727,6.0781,6.0781,6.0781,6.0781,6.0781,6.0781,6.0781,6.0781,6.0781,6.0781,6.0781,6.0781,6.0781,6.0781,6.0781,6.0781,6.0781,6.0781,6.0781,6.0781,6.0781,0.0,6.0189,6.0189,5.9977,5.9592,5.9592,5.9559,5.9492,5.9492,5.9212,5.8796,0.0,0.0,0.0,0.0,0.0,0.0,0.0,0.0,0.0,0.0,0.0,0.0,0.0,0.0,0.0,0.0,0.0,0.0,0.0,0.0,0.0,3.552,3.5688,3.6122,3.6868,3.7023,3.7885,3.9507,3.9491,3.999,4.0897,4.0917,4.0968,4.1104,4.1095,4.11,4.1117,4.11,4.1579,4.2403,4.226,0.0,0.0,0.0,0.0,0.0,0.0,0.0,0.0,4.6066,4.63,4.63,4.63,0.0,0.0,0.0,0.0,0.0,4.7918,4.9667,5.1449,5.1581,5.1497,5.143,5.1589,0.0,0.0,0.0,0.0,5.1176,5.0455,5.0803,5.1011,5.0381,5.1437,5.32,5.582,5.7061,5.8008,5.8771,6.0187,6.0783,5.9959,6.0432,6.0781,6.0781,6.0781,6.0781,6.0781,6.0781,6.0781,6.0781,6.0781,6.0781,6.0781,6.0781,6.0781,6.0781,6.0781,6.0781,6.0781,6.0781,6.0781,6.0781,0.0,6.0757,6.0671,6.0671,6.0647,6.0597,6.0597,6.0338,5.9977,5.9977,5.9728,5.9212,0.0,0.0,0.0,0.0,0.0,0.0,0.0,0.0,0.0,0.0,0.0,0.0,0.0,0.0,0.0,0.0,0.0,0.0,0.0,0.0,3.5479,3.5493,3.5534,3.5739,3.6175,3.625,3.7085,3.881,3.8833,3.9557,4.0907,4.0968,4.1052,4.1084,4.11,4.11,4.1095,4.1106,4.1315,4.171,0.0,0.0,0.0,0.0,0.0,0.0,0.0,0.0,0.0,0.0,4.63,4.63,4.63,0.0,0.0,0.0,0.0,0.0,4.7481,4.8454,4.9575,5.0477,5.1035,5.1284,0.0,0.0,0.0,0.0,0.0,5.0581,5.0181,5.0806,5.1428,5.1503,5.3359,5.5221,5.6445,5.7771,5.8866,5.9507,6.0205,6.0558,6.0436,6.0657,6.0781,6.0781,6.0781,6.0781,6.0781,6.0781,6.0781,6.0781,6.0781,6.0781,6.0781,6.0781,6.0781,6.0781,6.0781,6.0781,6.0781,6.0781,6.0781,6.0781,0.0,6.0781,6.0781,6.0781,6.0781,6.0781,6.0781,6.0647,6.0456,6.0189,5.9946,5.969,0.0,0.0,0.0,0.0,0.0,0.0,0.0,0.0,0.0,0.0,0.0,0.0,0.0,0.0,0.0,0.0,0.0,0.0,0.0,0.0,3.5441,3.552,3.5522,3.556,3.5584,3.5631,3.64,3.7943,3.8147,3.9112,4.0641,4.0935,4.1006,4.0817,4.1017,4.1106,4.1111,4.1115,4.1081,4.109,0.0,0.0,0.0,0.0,0.0,0.0,0.0,0.0,0.0,0.0,0.0,0.0,0.0,0.0,0.0,4.6541,4.6619,4.6736,4.7435,4.8049,4.863,4.9326,5.0324,0.0,0.0,0.0,0.0,0.0,0.0,5.0652,5.0427,5.113,5.2052,5.3112,5.4993,5.6493,5.7109,5.8359,5.9531,6.0387,6.0394,6.0492,6.0958,6.0858,6.0781,6.0781,6.0781,6.0781,6.0781,6.0781,6.0781,6.0781,6.0781,6.0781,6.0781,6.0781,6.0781,6.0781,6.0781,6.0781,6.0781,6.0781,6.0781,6.0781,6.0781,6.0781,6.0781,6.0781,6.0666,6.0512,6.0512,6.0512,6.0488,6.0315,6.0245,6.0189,0.0,0.0,0.0,0.0,0.0,0.0,0.0,0.0,0.0,0.0,0.0,0.0,0.0,0.0,0.0,0.0,0.0,0.0,0.0,0.0,3.5482,3.5483,3.5546,3.562,3.5581,3.5581,3.6091,3.7104,3.7918,3.8821,3.9809,4.0682,4.0661,3.9941,4.0749,4.1106,4.11,4.1085,4.1085,4.1115,4.109,0.0,0.0,0.0,0.0,0.0,0.0,0.0,0.0,0.0,0.0,0.0,0.0,0.0,4.6459,4.7254,4.7493,4.753,4.7595,4.9313,5.0582,4.8355,4.8984,0.0,5.2149,5.2478,0.0,5.2519,0.0,5.2253,5.1445,5.2025,5.3164,5.484,5.5271,5.6239,5.8672,5.9101,5.9765,6.1211,6.1276,6.1151,6.1004,6.0858,6.0781,6.0781,6.0781,6.0781,6.0781,6.0781,6.0781,6.0781,6.0781,6.0781,6.0781,6.0781,6.0781,6.0781,6.0781,6.0781,6.0781,6.0781,6.0781,6.0781,6.0781,6.0781,6.0781,6.0781,6.0319,5.9588,5.9588,5.9588,5.9704,6.045,6.0757,6.0594,0.0,0.0,0.0,0.0,0.0,0.0,0.0,0.0,0.0,0.0,0.0,0.0,0.0,0.0,0.0,0.0,0.0,0.0,0.0,3.5412,3.5441,3.5482,3.5521,3.557,3.5581,3.5643,3.6102,3.7006,3.7898,3.8533,3.8914,3.9805,4.0052,3.9773,4.0643,4.1045,4.1095,4.1106,4.1111,4.1154,4.1675,4.1909,0.0,0.0,0.0,0.0,0.0,0.0,0.0,0.0,4.63,4.63,4.63,4.63,4.6342,4.67,4.6778,4.6781,4.6791,4.7907,4.8951,4.8513,4.9257,0.0,0.0,5.116,5.1445,5.2478,5.2713,5.2913,5.3693,5.2752,5.2815,5.5661,5.6093,5.6638,5.8164,5.9297,5.9961,6.0078,6.0815,6.0847,5.9694,6.0319,6.0589,6.0012,6.0473,6.055,6.0012,6.0512,6.055,6.0012,6.0512,6.055,6.0012,5.9973,5.9742,5.9242,6.0281,6.0781,6.0781,6.0781,6.0781,6.0781,6.0781,6.0781,6.0742,6.0204,5.9819,5.9511,5.9511,5.9819,6.0358,6.0666,6.0781,6.0642,0.0,0.0,0.0,0.0,0.0,0.0,0.0,0.0,0.0,0.0,0.0,0.0,0.0,0.0,0.0,0.0,0.0,0.0,3.5441,3.5455,3.5482,3.5534,3.5546,3.5593,3.5615,3.5676,3.6133,3.7017,3.7972,3.8548,3.8821,3.9434,3.9682,3.976,4.0896,4.1305,4.1134,4.1362,4.1329,4.1189,4.2013,4.2208,0.0,0.0,0.0,0.0,0.0,0.0,0.0,0.0,4.63,4.63,4.63,4.63,4.6339,4.6612,4.6679,4.6674,4.6712,4.751,4.8382,4.8476,0.0,0.0,5.0937,5.1208,5.1818,5.3225,5.3093,5.3146,5.4619,5.3369,5.3026,5.5759,5.6365,5.6875,5.7773,5.8906,5.9492,5.9219,5.9998,6.0071,5.883,5.9511,5.9819,5.9165,5.9665,5.9858,5.9511,5.9819,5.9858,5.9511,5.9819,5.9704,5.9127,5.9127,5.8858,5.8319,5.9473,6.0127,6.0396,6.0666,6.0781,6.0781,6.0512,6.0396,6.0319,5.9473,5.9127,5.9165,5.9396,5.9858,6.0435,6.0704,6.0781,6.0666,0.0,0.0,0.0,0.0,0.0,0.0,0.0,0.0,0.0,0.0,0.0,0.0,0.0,0.0,0.0,0.0,0.0,0.0,3.5483,3.556,3.5608,3.5588,3.5658,3.5707,3.5707,3.5699,3.6183,3.7104,3.7972,3.8844,3.9691,3.97,3.9682,3.976,4.1533,4.1857,4.1173,4.1974,4.1857,4.1173,4.1974,4.1818,4.129,0.0,0.0,0.0,0.0,0.0,0.0,0.0,4.63,4.63,4.63,4.63,4.6456,4.7315,4.7501,4.7408,4.7576,4.8772,4.9582,4.803,0.0,0.0,5.2526,5.3383,5.4258,5.5099,5.3916,5.3008,5.3867,5.3884,5.414,5.5121,5.5911,5.6758,5.7734,5.789,5.8203,5.9062,5.9023,5.8844,5.868,5.8572,5.8418,5.8319,5.8319,5.8627,5.9435,5.8742,5.8665,5.9435,5.8704,5.8319,5.828,5.828,5.828,5.828,5.828,5.8704,5.9511,6.0396,6.0781,6.0742,5.9896,5.9511,5.9435,5.8627,5.8319,5.8396,5.9204,5.9511,5.9627,6.0473,6.0781,6.0666,0.0,0.0,0.0,0.0,0.0,0.0,0.0,0.0,0.0,0.0,0.0,0.0,0.0,0.0,0.0,0.0,0.0,0.0,3.5596,3.5608,3.562,3.5593,3.5658,3.5689,3.5707,3.6348,3.6811,3.7092,3.735,3.7638,3.7911,3.914,3.9381,3.8906,4.1232,4.2188,4.1961,4.2195,4.2163,4.1974,4.2253,4.2565,4.2987,0.0,0.0,0.0,0.0,0.0,0.0,0.0,0.0,0.0,4.6292,4.6279,4.6309,4.6596,4.6638,4.6683,4.7361,4.7899,4.8468,4.9192,5.0391,5.1786,0.0,5.3351,0.0,0.0,5.4884,5.4606,5.4882,5.4285,5.411,5.5138,5.5419,5.5859,5.6836,5.75,5.7773,5.7422,5.8281,5.8432,5.7193,5.7931,5.8248,5.7593,5.8011,5.8127,5.7742,5.8088,5.8127,5.7742,5.8088,5.8011,5.7396,5.7396,5.7088,5.6472,5.7088,5.8127,5.9473,5.9165,5.9665,6.0742,5.9896,5.9858,6.0358,5.9511,5.9127,5.9165,5.9396,5.9858,6.0435,6.0704,6.0781,6.0666,0.0,0.0,0.0,0.0,0.0,0.0,0.0,0.0,0.0,0.0,0.0,0.0,0.0,0.0,0.0,0.0,0.0,0.0,0.0,3.5836,3.5797,3.6107,3.5862,3.5863,3.6261,3.6793,3.7394,3.8149,3.742,3.7436,3.8144,3.8867,3.9256,3.9521,4.1459,4.2142,4.1877,4.2532,4.2422,4.189,4.2598,4.2942,4.3176,0.0,0.0,0.0,0.0,0.0,0.0,0.0,0.0,0.0,0.0,0.0,4.6236,4.6288,4.6476,4.6675,4.6948,4.7743,4.8694,4.9439,5.0771,5.2172,5.324,5.3866,5.4564,5.5586,5.526,5.4771,5.4765,5.4242,5.3909,5.4202,5.5015,5.5737,5.6053,5.6523,5.6797,5.6601,5.7109,5.7187,5.6484,5.7136,5.7332,5.6708,5.7071,5.7203,5.7011,5.7203,5.7242,5.7088,5.7242,5.7088,5.6549,5.6511,5.6203,5.5703,5.6242,5.7165,5.8511,5.8357,5.905,6.0242,5.9396,5.9127,5.9242,5.8704,5.8511,5.855,5.8896,5.955,6.0281,6.0281,6.0512,6.0704,0.0,0.0,0.0,0.0,0.0,0.0,0.0,0.0,0.0,0.0,0.0,0.0,0.0,0.0,0.0,0.0,0.0,0.0,0.0,3.6091,3.6013,3.6748,3.6105,3.6163,3.71,3.6939,3.7725,3.947,3.7955,3.808,3.9691,3.8906,3.9427,4.1054,4.1894,4.1948,4.1416,4.2946,4.2673,4.1344,4.2882,4.3006,4.2396,4.3266,0.0,0.0,0.0,0.0,0.0,0.0,0.0,0.0,4.6296,4.6296,4.6296,4.6296,4.6709,4.7073,4.6548,4.8024,4.9575,4.9126,5.0855,5.2728,5.2791,5.4665,5.6367,5.6367,5.5156,5.4101,5.4023,5.3906,5.3557,5.2812,5.4667,5.5946,5.5265,5.5195,5.5469,5.6289,5.5742,5.5547,5.6133,5.6146,5.5981,5.5707,5.5588,5.5895,5.6742,5.6165,5.6186,5.7076,5.6249,5.5843,5.5955,5.5703,5.5665,5.5703,5.5703,5.6088,5.6896,5.7703,5.8511,5.9242,5.8588,5.7857,5.7126,5.7126,5.7126,5.7203,5.8088,5.8858,5.9511,5.9588,6.0127,6.0781,0.0,0.0,0.0,0.0,0.0,0.0,0.0,0.0,0.0,0.0,0.0,0.0,0.0,0.0,0.0,0.0,0.0,0.0,0.0,3.5781,3.5792,3.5968,3.5825,3.6211,3.7074,3.6423,3.6565,3.7654,3.7988,3.8641,3.9699,3.9505,3.9986,4.1023,4.1909,4.2578,4.3077,4.3435,4.3013,4.2085,4.2429,4.2468,4.2396,4.3254,4.3487,0.0,0.0,0.0,0.0,0.0,0.0,0.0,4.6236,4.6181,4.617,4.6275,4.6365,4.6559,4.708,4.7681,4.8358,4.9556,5.1274,5.289,5.3551,5.4178,5.457,5.457,5.4805,5.4805,5.4141,5.3906,5.3553,5.2819,5.3635,5.4326,5.4288,5.4297,5.4336,5.4531,5.5,5.5078,5.457,5.4997,5.5046,5.4321,5.4122,5.443,5.5297,5.5182,5.5499,5.6395,5.5579,5.5436,5.6148,5.5318,5.5241,5.5857,5.5742,5.578,5.5972,5.6165,5.6742,5.755,5.8088,5.8204,5.8011,5.8011,5.8011,5.8088,5.8934,5.9358,5.9588,6.0281,6.0627,6.0781,0.0,0.0,0.0,0.0,0.0,0.0,0.0,0.0,0.0,0.0,0.0,0.0,0.0,0.0,0.0,0.0,0.0,0.0,0.0,0.0,3.6306,3.6327,3.6337,3.6551,3.7046,3.6608,3.7023,3.8299,3.84,3.8875,3.9692,4.0135,4.0804,4.1661,4.211,4.2546,4.2967,4.2974,4.2708,4.2357,4.2747,4.2942,4.2974,4.3442,4.3604,4.3734,4.4631,0.0,0.0,0.0,0.0,0.0,0.0,0.0,4.6231,4.6284,4.6538,4.6839,4.6921,4.7845,4.9205,5.0923,5.2336,5.332,5.3359,5.3711,5.3867,5.3476,5.4062,5.4414,5.3555,5.3672,5.3516,5.2266,5.2734,5.329,5.3357,5.3008,5.3047,5.3906,5.4023,5.4023,5.3984,5.4297,5.4278,5.3846,5.3659,5.3785,5.4249,5.4342,5.4574,5.5033,5.4606,5.4587,5.5053,5.4803,5.4921,5.5318,5.5588,5.5703,5.5703,5.6126,5.6549,5.7011,5.7473,5.7665,5.7665,5.7242,5.7049,5.7088,5.7511,5.7934,5.8396,5.9281,5.9858,6.0242,0.0,0.0,0.0,0.0,0.0,0.0,0.0,0.0,0.0,0.0,0.0,0.0,0.0,0.0,0.0,0.0,0.0,0.0,0.0,0.0,0.0,3.6975,3.6798,3.6781,3.6988,3.7017,3.7752,3.9177,3.8843,3.9299,4.039,4.0804,4.1622,4.2766,4.274,4.2747,4.2747,4.2903,4.2708,4.2396,4.341,4.3643,4.341,4.3721,4.3734,4.3668,4.3941,4.3992,4.4041,0.0,0.0,0.0,0.0,0.0,4.63,4.63,4.6787,4.7171,4.6649,4.8156,5.0252,5.1674,5.2578,5.2969,5.2383,5.2812,5.3164,5.2617,5.3047,5.332,5.2617,5.2812,5.2656,5.1211,5.1562,5.2031,5.2031,5.1406,5.1484,5.2969,5.2617,5.25,5.3047,5.3164,5.3125,5.2969,5.2986,5.3087,5.3204,5.3451,5.3683,5.3837,5.3676,5.3674,5.3818,5.4128,5.4343,5.4528,5.5203,5.5549,5.5703,5.6434,5.678,5.678,5.678,5.678,5.6703,5.6011,5.5703,5.5703,5.5857,5.6357,5.7088,5.7973,5.8704,5.9396,0.0,0.0,0.0,0.0,0.0,0.0,0.0,0.0,0.0,0.0,0.0,0.0,0.0,0.0,0.0,0.0,0.0,0.0,0.0,0.0,0.0,3.6864,3.6228,3.6211,3.6985,3.7065,3.7234,3.7513,3.8896,4.074,4.3052,4.1727,4.2312,4.454,4.454,4.454,4.4579,4.5358,4.4384,4.2435,4.4052,4.3863,4.2727,4.4175,4.4304,4.3885,4.5312,4.5357,4.486,4.5763,4.6114,0.0,0.0,0.0,4.6288,4.6296,4.6374,4.6612,4.7256,4.8236,4.9136,4.9336,4.9492,4.9766,5.0391,5.0625,5.0859,5.1445,5.168,5.1719,5.1601,5.0469,4.9492,4.9258,4.9336,4.9414,4.9414,4.9297,4.9336,4.9531,5.0156,5.0273,4.9648,5.0234,5.0351,4.9609,5.0232,5.0972,5.1675,5.2412,5.3188,5.3969,5.324,5.3221,5.3973,5.3068,5.3014,5.3741,5.4357,5.5011,5.5703,5.5818,5.5857,5.5857,5.5857,5.5857,5.5857,5.5742,5.5703,5.578,5.6511,5.6896,5.7088,5.7973,5.8357,5.8473,0.0,0.0,0.0,0.0,0.0,0.0,0.0,0.0,0.0,0.0,0.0,0.0,0.0,0.0,0.0,0.0,0.0,0.0,0.0,0.0,0.0,3.756,3.6837,3.677,3.7644,3.7725,3.8058,3.861,3.937,4.1065,4.3604,4.3344,4.4358,4.6371,4.6371,4.6098,4.5631,4.602,4.5248,4.3857,4.5111,4.4865,4.3824,4.4604,4.4643,4.4436,4.5245,4.526,4.5078,4.5976,4.6249,4.6249,4.6292,0.0,0.0,0.0,4.6288,4.6495,4.7343,4.7891,4.8281,4.8789,4.8906,4.8984,4.9375,4.9844,5.0312,5.0664,5.0351,5.0156,5.0625,4.9726,4.8906,4.8906,4.8476,4.8359,4.8828,4.8476,4.8359,4.8828,4.9258,4.9336,4.8945,4.9258,4.9297,4.8945,4.9258,4.9648,4.9961,5.0351,5.0742,5.1133,5.0781,5.0761,5.1133,5.1444,5.2175,5.3395,5.3626,5.4203,5.5011,5.5011,5.528,5.5703,5.5703,5.5703,5.5703,5.5703,5.5703,5.5742,5.6126,5.628,5.6357,5.7242,5.755,5.7627,0.0,0.0,0.0,0.0,0.0,0.0,0.0,0.0,0.0,0.0,0.0,0.0,0.0,0.0,0.0,0.0,0.0,0.0,0.0,0.0,0.0,3.8414,3.746,3.7406,3.8523,3.8617,3.8999,3.97,4.0007,4.1428,4.3923,4.4598,4.5962,4.7827,4.8054,4.7664,4.6885,4.708,4.643,4.5312,4.6157,4.5818,4.4845,4.5039,4.511,4.5157,4.5735,4.5958,4.605,4.6726,4.6963,4.6846,4.6417,4.63,0.0,0.0,0.0,4.6718,4.7143,4.7578,4.7969,4.8203,4.8398,4.8555,4.8555,4.9062,4.9609,4.9805,4.918,4.8789,4.9414,4.8828,4.8242,4.8242,4.7695,4.75,4.8164,4.7695,4.75,4.8164,4.8242,4.8242,4.8242,4.8242,4.8242,4.8242,4.8437,4.8555,4.8555,4.8789,4.8906,4.8906,4.8906,4.8886,4.8905,5.0087,5.13,5.2587,5.2779,5.3318,5.4164,5.4164,5.4511,5.5088,5.5511,5.5703,5.5703,5.5703,5.5703,5.5703,5.5703,5.5703,5.578,5.6434,5.6665,5.6742,0.0,0.0,0.0,0.0,0.0,0.0,0.0,0.0,0.0,0.0,0.0,0.0,0.0,4.0583,3.9942,3.835,3.8233,3.792,3.714,3.687,3.75,3.9276,3.7771,0.0,3.9417,3.9558,3.963,3.9692,4.0604,4.2343,4.4838,4.4877,4.6287,4.8755,4.9601,4.9478,4.8737,4.9556,4.8431,4.6181,4.6995,4.6302,4.4892,4.558,4.5831,4.6095,4.7855,4.853,4.8535,4.8712,4.8724,4.8408,4.6807,4.6292,4.6284,0.0,0.0,0.0,4.6573,4.7572,4.8437,4.6836,4.707,4.7656,4.7656,4.7695,4.7969,4.8789,4.8281,4.7695,4.7734,4.7031,4.6445,4.6445,4.6406,4.6367,4.6445,4.6406,4.6367,4.6445,4.6445,4.6445,4.6445,4.6445,4.6445,4.6445,4.7187,4.7656,4.7656,4.8437,4.8906,4.8906,4.8906,4.8889,4.8903,4.9537,5.0183,5.0818,5.1587,5.2433,5.328,5.328,5.328,5.3433,5.5011,5.5703,5.5703,5.5703,5.5703,5.5703,5.5703,5.5703,5.5703,5.5742,5.578,5.578,0.0,0.0,0.0,0.0,0.0,0.0,0.0,0.0,0.0,0.0,0.0,0.0,0.0,4.0598,4.0174,3.9045,3.8491,3.831,3.8578,3.8054,3.8222,3.9406,3.8876,3.9143,4.035,4.0461,4.0485,4.0532,4.1448,4.2637,4.4103,4.5201,4.6527,4.8041,4.9425,4.9581,4.8932,5.0881,4.9913,4.7156,4.8475,4.7609,4.5619,4.6523,4.6424,4.6099,4.7962,4.8677,4.8702,4.8762,4.9513,5.009,4.7822,4.7502,4.7689,4.6548,4.6426,4.6621,4.6357,4.6775,4.7066,4.6445,4.6523,4.6758,4.6758,4.7187,4.7695,4.8008,4.7812,4.7617,4.7617,4.6875,4.6289,4.6289,4.6289,4.6289,4.6289,4.6289,4.6289,4.6289,4.6289,4.6289,4.6289,4.6289,4.6289,4.6289,4.6601,4.6758,4.6758,4.707,4.7226,4.7226,4.7226,4.7406,4.7804,4.8029,4.872,4.9856,5.0164,5.101,5.2395,5.2395,5.2664,5.3241,5.3818,5.4395,5.4972,5.5472,5.5703,5.5703,5.5703,5.5703,5.5703,5.5703,5.5703,5.5703,0.0,0.0,0.0,0.0,0.0,0.0,0.0,0.0,0.0,0.0,0.0,0.0,0.0,0.0,4.0318,3.9457,3.8917,3.8852,3.9393,3.8878,3.8955,3.9844,3.9635,3.9913,4.0837,4.0898,4.0952,4.0999,4.1863,4.2747,4.3641,4.5084,4.6254,4.7156,4.8529,4.9191,4.9328,5.0738,5.0165,4.8421,4.885,4.8292,4.7301,4.7582,4.766,4.7727,4.8992,4.9493,4.9465,4.8905,4.9523,5.0211,4.8216,4.7971,4.8074,4.6665,4.6231,4.6231,4.6275,4.6495,4.6671,4.6363,4.6288,4.6289,4.6289,4.6523,4.6797,4.7109,4.7148,4.7148,4.7148,4.668,4.6289,4.6289,4.6289,4.6289,4.6289,4.6289,4.6289,4.6289,4.6289,4.6289,4.6289,4.6289,4.6289,4.6289,4.6289,4.6289,4.6289,4.6289,4.6289,4.6289,4.6289,4.6466,4.6744,4.7038,4.7661,4.8586,4.9125,4.9971,5.1087,5.1356,5.1818,5.2395,5.2664,5.3433,5.4549,5.5088,5.5472,5.5703,5.5703,5.5703,5.5703,5.5703,5.5703,5.5703,0.0,0.0,0.0,0.0,0.0,0.0,0.0,0.0,0.0,4.3322,0.0,0.0,0.0,0.0,0.0,3.9546,3.9455,3.9441,3.9336,3.9336,3.9697,4.0549,3.9932,3.994,4.0781,4.0937,4.0991,4.1054,4.1894,4.2831,4.3734,4.4559,4.5429,4.6323,4.7138,4.8418,4.997,4.9162,4.9332,4.9922,4.8029,4.836,4.9823,4.8722,4.9403,5.0945,5.0974,5.1099,5.1035,4.9264,4.8847,4.897,4.8057,4.7645,4.7362,4.6553,4.6275,4.6231,0.0,0.0,0.0,4.6463,4.6243,4.6211,4.625,4.5586,4.5234,4.6094,4.6289,4.6289,4.6289,4.6289,4.6289,4.6289,4.6289,4.6289,4.6289,4.6289,4.6289,4.6289,4.6289,4.6289,4.6289,4.6289,4.6289,4.6289,4.6289,4.6289,4.6289,4.6289,4.6289,4.6289,4.6289,4.6186,4.5909,4.6752,4.7122,4.6971,4.8586,4.9394,4.9471,5.0279,5.0664,5.0741,5.1548,5.2856,5.4434,5.4434,5.4934,5.5626,5.5665,5.5665,5.5665,5.5703,5.5703,5.5703,0.0,0.0,0.0,0.0,0.0,0.0,0.0,0.0,4.4277,0.0,0.0,0.0,4.1145,4.1321,4.1407,4.1244,4.1176,4.0877,4.0299,4.0265,4.0436,4.0668,4.0525,4.0571,4.0876,4.0907,4.1266,4.1949,4.2813,4.37,4.4598,4.5456,4.5962,4.6281,4.7117,4.7786,4.8293,4.9313,4.9869,5.0025,4.9352,4.9021,4.8875,4.8474,4.7812,4.7185,4.789,4.9434,5.0786,4.8361,5.0611,5.4029,5.1888,4.9508,4.7445,4.7245,4.6738,4.6279,4.6296,0.0,0.0,0.0,0.0,0.0,4.523,4.4686,4.4492,4.5976,4.5781,4.5547,4.6172,4.6289,4.6289,4.6289,4.6289,4.6289,4.6289,4.6289,4.6289,4.6289,4.6289,4.6289,4.6289,4.6289,4.6261,4.6162,4.6164,4.6102,4.6034,4.6083,4.6175,4.6177,4.6164,4.6035,4.5819,4.6617,4.7278,4.7778,4.824,4.9125,5.0317,4.9933,5.0087,5.0702,5.0933,5.1625,5.2664,5.3318,5.3703,5.3933,5.4587,5.4818,5.4895,5.5472,5.5703,5.5703,0.0,0.0,0.0,0.0,0.0,0.0,4.5696,4.537,4.4896,0.0,0.0,0.0,4.1754,4.2086,4.2379,4.2364,4.231,4.2117,4.1686,4.1707,4.1763,4.1777,4.1865,4.19,4.1934,4.1955,4.2277,4.2844,4.37,4.4386,4.4929,4.58,4.619,4.6222,4.6716,4.6961,4.7006,4.8053,4.9513,5.1006,4.9002,4.9186,5.0539,4.8914,4.8153,4.7867,4.7612,4.8839,5.0156,4.7469,4.9761,5.3416,5.114,4.9835,4.8972,4.8269,4.745,4.6713,4.6381,4.5646,4.4906,4.4557,0.0,0.0,4.4243,4.3781,4.3551,4.4922,4.4805,4.4609,4.5117,4.5234,4.5312,4.5703,4.5742,4.5898,4.625,4.6289,4.6289,4.6289,4.6289,4.6289,4.6289,4.6284,4.625,4.6116,4.6142,4.6105,4.6009,4.5988,4.6027,4.6021,4.6012,4.595,4.5796,4.6586,4.7201,4.7625,4.8317,4.8971,4.9625,4.9471,4.9471,4.9625,5.001,5.0433,5.0933,5.1818,5.2587,5.3241,5.378,5.4164,5.4549,5.5011,5.5395,5.5703,0.0,0.0,0.0,4.5419,0.0,4.5648,4.5632,4.5712,4.5747,0.0,4.4824,4.3975,4.3222,4.325,4.325,4.3133,4.3129,4.314,4.3111,4.3158,4.3217,4.3285,4.3349,4.3385,4.3385,4.3479,4.3569,4.3731,4.444,4.4884,4.5039,4.5818,4.6169,4.6169,4.6293,4.6274,4.6226,4.6293,4.8689,5.2025,4.8076,4.9265,5.3018,4.9821,4.9403,5.0273,4.8609,4.869,4.9294,4.7132,4.7866,4.9437,4.8223,4.9184,5.0522,4.9181,4.8049,4.703,4.6351,4.5528,4.466,4.3766,4.2893,0.0,4.3372,4.2864,4.2519,4.3515,4.3633,4.3594,4.3671,4.3789,4.4101,4.4883,4.5078,4.5391,4.6172,4.6289,4.6289,4.6289,4.6289,4.6289,4.6289,4.628,4.6259,4.6121,4.6177,4.6177,4.6065,4.5932,4.5881,4.5881,4.5989,4.6026,4.5911,4.6817,4.724,4.7201,4.8586,4.8894,4.8279,4.8856,4.874,4.8163,4.9009,4.9394,4.9471,5.0317,5.1587,5.2933,5.301,5.3587,5.4357,5.4472,5.5011,5.5703,0.0,0.0,4.538,4.5438,4.5457,0.0,4.5654,4.5654,4.5423,4.4762,4.3866,4.3487,4.3991,4.396,4.3962,4.3978,4.3978,4.3705,4.315,4.3173,4.3231,4.3285,4.3363,4.34,4.3385,4.3419,4.3811,4.4579,4.4715,4.5143,4.5804,4.5996,4.613,4.613,4.6902,4.6852,4.6248,4.6961,4.847,5.0431,5.0235,5.0315,5.0586,5.0428,4.8848,4.6651,4.6271,4.7195,4.8733,4.9737,4.9005,4.7986,4.9876,4.8905,4.7298,4.8476,4.7138,4.5316,4.5285,4.4624,4.3723,4.2864,4.1999,0.0,4.2432,4.1973,4.1782,4.339,4.3159,4.2886,4.3581,4.4279,4.4789,4.4956,4.5585,4.6094,4.6289,4.6289,4.6289,4.6289,4.6289,4.6289,4.6289,4.6319,4.6247,4.6116,4.5965,4.5902,4.5851,4.5841,4.5796,4.5796,4.6557,4.6852,4.6701,4.8277,4.9008,4.8894,4.8548,4.8625,4.9125,4.7932,4.7663,4.8163,4.9009,4.9394,4.9471,5.0317,5.0894,5.1241,5.1895,5.2702,5.3549,5.4241,5.5011,5.5703,0.0,4.5298,4.5319,4.54,4.5381,0.0,4.555,4.5586,4.5449,4.5076,4.4598,4.4432,4.4786,4.4768,4.4768,4.4786,4.5554,4.5764,4.5021,4.5417,4.5542,4.5216,4.4834,4.4652,4.4664,4.4661,4.4927,4.5414,4.5395,4.559,4.5997,4.6104,4.6104,4.6105,4.7025,4.7681,4.807,4.856,5.0212,5.2324,4.9624,4.9038,4.9615,4.8647,4.7152,4.5586,4.5586,4.618,4.7139,4.8552,4.8748,4.8512,4.9033,4.891,4.8594,4.8716,4.7189,4.5372,4.5082,4.4036,4.2942,4.2513,4.1757,0.0,0.0,4.1705,4.1324,4.2233,4.2041,4.1885,4.2307,4.2763,4.3344,4.4211,4.4706,4.5305,4.6126,4.6288,4.6289,4.6289,4.6289,4.6289,4.6289,4.6289,4.6236,4.6095,4.5928,4.5789,4.5796,4.5757,4.5719,4.5719,4.6219,4.6642,4.6894,4.8259,4.9105,4.9394,4.8971,4.874,4.8702,4.7471,4.7124,4.7548,4.8394,4.9009,4.9471,5.0317,5.0702,5.0741,5.1125,5.2087,5.3241,5.3703,5.4626,5.5703,4.5256,4.5277,4.5277,4.5337,4.536,4.5381,4.54,4.5495,4.555,4.553,4.576,4.5918,4.5857,4.5972,4.6164,4.647,4.7218,4.7701,4.7722,4.7874,4.7735,4.7229,4.651,4.61,4.6035,4.5995,4.608,4.6219,4.6064,4.5997,4.5997,4.6104,4.6095,4.6053,4.6785,4.8184,4.9897,4.9789,5.1429,5.3689,4.8476,4.8114,5.0416,4.8037,4.6822,4.6309,4.5796,4.5586,4.5778,4.7027,4.8243,4.9132,4.8372,4.9057,5.0013,4.9208,4.7462,4.5748,4.5347,4.4114,4.2942,4.3099,4.226,4.1607,0.0,0.0,0.0,4.1061,4.1106,4.1111,4.1067,4.1245,4.1812,4.3208,4.3563,4.422,4.5753,4.5889,4.5936,4.6249,4.6289,4.6289,4.6289,4.6289,4.6245,4.6051,4.5924,4.5796,4.5757,4.5663,4.5586,4.5586,4.5911,4.6334,4.6894,4.7817,4.8663,4.9394,4.924,4.8856,4.8317,4.7509,4.7124,4.7201,4.8009,4.874,4.9471,5.0317,5.0702,5.0702,5.0702,5.1702,5.3203,5.3203,5.4241,5.5703,4.5213,4.5256,4.5337,4.5378,4.5357,4.5339,4.54,4.538,4.5298,4.5256,4.639,4.7281,4.7494,4.7943,4.8872,5.0406,4.8324,4.8005,5.0569,4.8432,4.7222,4.7542,4.7191,4.6808,4.6547,4.6109,4.6305,4.7042,4.6341,4.6003,4.6003,4.6035,4.6056,4.6105,4.6152,4.7592,4.9924,4.91,4.937,5.0207,4.8774,5.0731,5.4351,5.3164,5.1218,4.8817,4.6442,4.5586,4.5988,4.8446,4.8398,4.785,5.0906,4.9382,4.6888,4.9239,4.7517,4.5053,4.5928,4.5441,4.4894,4.5675,4.4025,4.268,4.4236,0.0,4.0994,4.0994,0.0,4.1089,4.102,0.0,0.0,4.2442,4.3104,4.3986,4.5004,4.4493,4.4575,4.6126,4.6288,4.6289,4.6289,4.6289,4.6195,4.5939,4.5887,4.5796,4.5624,4.5586,4.5586,4.5586,4.6467,4.6929,4.6894,4.7835,4.8682,4.9394,4.8625,4.8586,4.9202,4.8355,4.7971,4.8009,4.8894,4.9317,4.9471,5.0317,5.0702,5.0702,5.0702,5.1702,5.3203,5.3203,5.4241,5.5703,4.5277,4.5337,4.5298,4.5357,4.5277,4.5256,4.5298,4.5298,4.5468,4.5906,4.6555,4.7614,4.9273,4.9652,5.0191,5.1142,5.0541,5.0665,0.0,4.9985,4.9409,5.0914,4.8955,4.8013,4.8376,4.726,4.7081,4.796,4.6615,4.6213,4.6729,4.6279,4.6046,4.6003,4.6457,4.7889,4.9943,4.9975,5.168,5.4217,5.2251,5.3524,5.6043,5.0908,4.8284,4.7147,4.6005,4.5586,4.5757,4.6908,4.8221,4.9272,4.8677,4.9369,5.0275,4.943,4.8506,4.789,4.8352,4.7162,4.5835,4.6198,4.4348,4.2563,4.3295,4.2169,4.0999,4.0999,0.0,0.0,0.0,0.0,0.0,0.0,4.3013,4.3929,4.4811,4.5094,4.5499,4.6192,4.5417,4.4995,4.5508,4.6016,4.6198,4.5935,4.5916,4.5796,4.5586,4.5586,4.5586,4.5586,4.6065,4.6527,4.6894,4.7317,4.7894,4.8625,4.7817,4.7586,4.7932,4.7586,4.7663,4.8163,4.9009,4.9702,5.0164,5.0548,5.0702,5.0702,5.0702,5.1702,5.328,5.378,5.4703,5.5703,4.5277,0.0,4.5235,4.5235,4.5213,4.5192,4.5213,4.5698,4.6292,4.7111,4.7865,4.9252,5.1698,5.2158,5.2411,5.2802,5.2639,5.2525,0.0,5.1256,5.0803,5.1603,5.0443,4.9676,4.9528,4.8662,4.841,4.8825,4.7107,4.6511,4.6923,4.6357,4.6035,4.598,4.6822,4.8192,4.9911,5.0428,5.2576,5.5405,5.3174,5.3125,5.3864,4.8647,4.6232,4.5586,4.5624,4.5624,4.5757,4.6544,4.8282,4.9761,4.7779,4.9426,5.158,4.9271,4.8759,4.9083,4.9887,4.8571,4.7126,4.7564,4.5561,4.347,4.3446,4.2195,4.1062,4.1326,4.1171,0.0,0.0,0.0,4.1193,4.1855,0.0,4.3221,4.4079,4.4616,4.5221,4.6175,4.5168,4.4677,4.5273,4.5937,4.6204,4.5975,4.5932,4.5834,4.5663,4.5624,4.5586,4.5586,4.568,4.6009,4.6547,4.6586,4.7009,4.7778,4.7201,4.7009,4.724,4.7471,4.7894,4.8509,4.9394,5.0125,5.0702,5.0702,5.0818,5.1048,5.1279,5.2279,5.3587,5.401,5.478,5.5703,4.5103,4.5103,4.5103,4.5103,4.5148,4.5213,4.5277,4.6734,4.8094,4.8892,5.0999,5.3187,5.524,5.5911,5.6349,5.67,5.4173,5.2579,5.2529,5.1764,5.0127,4.7315,5.108,5.1933,4.9081,5.0195,5.0418,4.965,4.7973,4.6771,0.0,0.0,0.0,0.0,4.6836,4.8154,4.9807,4.9821,4.9921,4.9974,4.9166,4.7784,4.6425,4.8647,4.7851,4.5624,4.5757,4.5796,4.6219,4.8926,4.881,0.0,0.0,4.9529,4.7777,4.8582,4.7579,4.6777,4.9391,4.9475,4.9192,5.0828,4.8685,4.6144,4.6108,4.3455,4.1232,4.2074,4.1599,4.1241,4.2002,4.1552,4.1015,4.1054,4.1084,0.0,0.0,4.1779,4.2494,4.5802,4.6228,4.6246,4.625,4.6289,4.625,4.6094,4.5975,4.5873,4.5796,4.568,4.5586,4.5586,4.5586,4.5624,4.5624,4.5624,4.6086,4.6932,4.6932,4.7317,4.8086,4.8933,4.9317,4.9394,5.0279,5.0664,5.0702,5.0702,5.1164,5.1972,5.2779,5.3664,5.4357,5.3549,5.428,5.5703,0.0,4.577,4.5057,4.5103,4.5605,4.626,4.6816,4.7869,4.9137,5.0574,5.1461,5.3391,5.7005,5.7301,5.7434,5.7781,5.6149,5.5122,5.51,5.4037,5.3166,5.2527,5.4167,5.4413,5.2875,5.274,5.2802,5.3096,4.9744,4.8244,0.0,0.0,0.0,0.0,4.6784,4.7182,4.7273,4.8385,4.9257,4.9897,4.9646,4.943,4.9076,4.7516,4.6425,4.5757,4.5796,4.5819,0.0,4.6962,4.8111,4.8971,4.8054,4.9201,5.0639,4.9174,4.9166,4.9829,0.0,0.0,4.915,5.0305,4.886,4.7283,4.7807,4.7008,4.6066,4.5757,4.5905,4.5663,4.4206,4.3747,4.3218,4.205,4.1883,4.2025,0.0,4.2641,4.3474,4.5195,4.5414,4.5193,4.4648,4.5117,4.5625,4.6055,4.6062,4.5978,4.583,4.5757,4.568,4.5586,4.5586,4.5586,4.5586,4.5586,4.574,4.6047,4.6047,4.6163,4.6471,4.7894,4.8548,4.8625,5.0048,5.0702,5.0702,5.0702,5.0856,5.1202,5.201,5.2856,5.3741,5.4549,5.5203,5.5857,4.787,4.6809,4.5741,4.5194,4.6618,4.8022,4.8579,5.0168,5.1773,5.306,5.358,5.5044,5.8322,5.8453,5.8228,5.8038,5.7229,5.6556,5.6033,5.5194,5.4633,5.4407,5.528,5.4979,5.337,5.4056,5.4227,5.3846,5.116,4.9921,0.0,0.0,0.0,0.0,4.7661,4.7386,4.6375,4.7841,4.8498,4.8545,4.8586,4.888,4.8998,4.6617,4.6523,4.7503,0.0,4.5935,4.5964,4.602,4.7237,4.8349,4.6612,4.8066,5.0074,4.834,4.8677,4.9726,5.0351,4.9722,0.0,4.9603,4.8668,0.0,4.8254,4.8152,4.7827,4.7486,4.814,4.7946,4.5312,4.5087,4.4752,4.3045,4.2799,4.2744,0.0,4.2885,4.3326,4.3567,4.4167,4.4448,4.4177,4.4374,4.5,4.6094,4.5859,4.5703,4.5814,4.5803,4.5757,4.5586,4.5586,4.5586,4.5586,4.5586,4.5586,4.5586,4.5586,4.5586,4.5663,4.7355,4.8086,4.8202,4.9933,5.0702,5.0702,5.0702,5.0856,5.1202,5.2049,5.2895,5.378,5.4857,5.5434,5.5895,0.0,4.8087,4.7096,4.5489,4.8067,5.0382,5.0489,5.3368,5.5733,5.6207,5.7006,5.8022,5.9273,5.9458,5.8945,5.7674,5.7558,5.6889,5.5397,5.5248,0.0,5.2944,5.4508,5.4012,5.0951,5.4227,5.4786,5.2355,5.2198,0.0,0.0,0.0,0.0,0.0,4.9393,4.8716,4.7055,4.8183,4.7611,4.5913,4.6058,4.6193,4.6336,4.6034,4.8034,5.0593,4.7272,4.61,4.6143,4.6257,4.6289,4.6289,4.6289,4.6289,4.6289,4.6289,4.6289,4.6641,4.832,4.8789,4.8788,4.888,4.8272,0.0,0.0,0.0,4.6761,4.7462,4.8319,4.8156,4.5562,4.5726,4.5663,4.4001,4.368,4.3348,4.2588,4.2396,4.2045,4.1303,4.2644,4.3974,4.4787,4.4176,4.4414,4.6094,4.5391,4.518,4.5857,4.5824,4.5757,4.5586,4.5586,4.5586,4.5586,4.5586,4.5586,4.5586,4.5624,4.5663,4.5701,4.7394,4.8163,4.8279,4.9971,5.0702,5.0702,5.0702,5.1164,5.1933,5.2818,5.3703,5.4511,5.4549,5.5049,5.5818,4.8897,4.8087,4.7604,4.7905,4.9768,5.1395,5.203,5.3769,5.5484,5.6928,5.7056,5.7612,5.9201,5.9102,5.8799,5.8415,5.8079,5.7457,5.6467,5.6772,5.6065,5.4073,5.6064,5.6099,5.3667,5.5818,5.6631,5.5827,5.3452,0.0,5.2605,0.0,0.0,0.0,4.9984,4.9281,4.7086,4.8784,4.8172,4.6044,4.6208,4.7764,4.9747,4.7184,4.8314,5.0851,4.7366,4.6162,4.6253,4.6286,4.6289,4.6289,4.6289,4.6289,4.6289,4.6289,4.6289,4.6406,4.6836,4.6953,4.7265,4.8592,4.8749,4.8906,0.0,0.0,0.0,0.0,0.0,0.0,0.0,4.7969,4.7557,4.5813,4.3953,4.288,4.329,4.224,4.181,4.2903,4.2878,4.2807,4.3045,4.3431,4.4134,4.5234,4.5703,4.5922,4.5896,4.5863,4.5796,4.5586,4.5586,4.5586,4.5586,4.5586,4.5586,4.5586,4.6278,4.6586,4.6624,4.8317,4.9086,4.9125,5.0202,5.0702,5.0702,5.0702,5.0818,5.1087,5.1933,5.3164,5.4549,5.5164,5.5511,5.5818,4.9971,4.9162,4.8758,4.9277,5.0973,5.2607,5.3498,5.5434,5.7282,5.8608,5.7955,5.7933,5.944,5.8896,5.8375,5.8375,5.8142,5.806,5.8227,5.7441,5.6778,5.6391,5.6202,5.5278,5.3456,5.4841,5.5498,5.5421,5.3254,0.0,5.3821,0.0,0.0,0.0,5.0966,5.0511,4.8787,4.9148,4.8515,4.7226,4.6562,4.7461,0.0,4.7041,4.7505,4.8909,4.6907,4.6259,4.6289,4.6289,4.6289,4.6289,4.6289,4.6289,4.6289,4.6289,4.6289,4.6289,4.6289,4.6289,4.6523,4.7539,4.7773,4.8203,4.9922,5.0311,5.0152,0.0,5.0535,5.0644,0.0,0.0,4.9362,4.764,4.5187,4.3556,4.3684,4.2513,4.1888,4.2474,4.2483,4.2255,4.1873,4.2965,4.3902,4.4375,4.5233,4.5624,4.544,4.5731,4.5819,4.568,4.6331,4.6355,4.5586,4.6701,4.6894,4.6163,4.7009,4.7432,4.7471,4.8817,4.9394,4.9433,5.0317,5.0702,5.0702,5.0702,5.0702,5.0818,5.201,5.3318,5.4587,5.5395,5.5703,5.578,5.1433,5.0768,5.0263,5.0123,5.2151,5.4031,5.4761,5.7263,5.9417,6.0225,5.9025,5.8503,5.9515,5.8674,5.7997,5.7997,5.7886,5.8342,5.9573,5.7372,5.6774,5.8425,5.5565,5.3388,5.2105,5.2838,5.33,5.3551,5.2512,0.0,0.0,0.0,0.0,5.1199,5.2066,5.1911,5.0889,4.9264,4.8522,4.8278,4.6836,4.6289,4.6289,4.6289,4.6298,4.6305,4.6306,4.6289,4.6289,4.6289,4.6289,4.6289,4.6289,4.6289,4.6289,4.6289,4.6289,4.6289,4.6289,4.6289,4.6289,4.6289,4.6289,4.6719,4.8203,4.8555,4.8555,4.8555,4.9726,4.9842,4.6991,4.8889,5.0455,4.9185,4.6726,4.4735,4.3997,4.3138,4.2279,4.1537,4.2315,0.0,4.1553,4.2928,4.3828,4.3711,4.4523,4.4991,4.4959,4.5482,4.5759,4.5786,4.7097,4.7201,4.5932,4.8009,4.8432,4.724,4.7932,4.8279,4.8317,4.9163,4.9586,4.9625,5.0356,5.0702,5.0702,5.0702,5.0702,5.0856,5.2549,5.3664,5.4434,5.5357,5.5703,5.5703,5.2247,5.204,5.1736,5.1216,5.4065,5.6154,5.535,5.6593,5.7976,5.8825,5.8418,5.812,5.8281,5.8116,5.7997,5.7997,5.7409,5.7087,5.7332,5.6017,5.5545,5.6242,5.5361,5.4268,5.299,5.3167,5.3975,5.5421,5.3232,0.0,0.0,0.0,5.2005,5.2104,5.2986,5.2468,5.082,4.9158,4.765,4.6378,4.6202,4.6211,4.6289,4.6289,4.6286,4.6315,4.6288,4.6289,4.6289,4.6289,4.6289,4.6289,4.6289,4.6289,4.6289,4.6289,4.6289,4.6289,4.6289,4.6289,4.6289,4.6289,4.6289,4.6367,4.668,4.6758,4.6758,4.6758,4.6992,4.7226,4.7342,0.0,4.8556,4.9696,4.7142,4.4953,4.4774,4.4039,4.3411,4.3244,4.4657,4.5008,4.3396,4.4164,4.445,4.375,4.4528,4.5263,4.5844,4.5312,4.5248,4.577,4.6082,4.6663,4.7663,4.7471,4.7894,4.8971,4.9086,4.9163,4.9202,5.0048,5.0471,5.0471,5.0625,5.0702,5.0702,5.0702,5.0702,5.0856,5.2549,5.328,5.3626,5.5126,5.5703,5.5703,5.2408,5.2361,5.2181,5.1668,5.4124,5.6065,5.5733,5.7032,5.833,5.9185,5.8349,5.7993,5.888,5.8399,5.7813,5.7409,5.7042,5.6735,5.6515,5.5772,5.5559,5.5974,5.5644,5.4703,5.3241,5.2377,5.3031,5.5264,5.2763,0.0,0.0,0.0,5.3374,5.2971,5.2923,5.2937,5.2834,4.9707,4.7927,4.7144,4.6307,4.6078,4.6211,4.6211,4.625,4.6289,4.6289,4.6289,4.6289,4.6289,4.6289,4.6289,4.6289,4.6289,4.6289,4.6289,4.6289,4.6289,4.6289,4.6289,4.6289,4.6289,4.6289,4.6289,4.6289,4.6289,4.6289,4.6289,4.6289,4.6719,4.8047,4.7888,0.0,0.0,4.7712,4.603,4.5141,4.4633,4.4203,4.3732,4.4848,4.5109,4.3851,4.4883,4.5073,4.3684,4.4452,4.5114,4.5402,4.5026,4.517,4.5939,4.7124,4.7699,4.7548,4.8856,4.9471,4.9394,4.9856,5.0048,5.0087,5.051,5.0702,5.0702,5.0702,5.0702,5.0741,5.1164,5.1087,5.0894,5.3049,5.3587,5.3395,5.5088,5.5703,5.5703,5.3057,5.3301,5.3383,5.2682,5.4462,5.6031,5.6273,5.7575,5.8768,5.943,5.8442,5.8148,5.9356,5.8637,5.7666,5.6859,5.6728,5.6472,5.599,5.5717,5.5716,5.6033,5.5662,5.4741,5.3241,5.1395,5.1644,5.4143,5.216,0.0,0.0,5.5292,5.4516,5.3296,5.2976,5.3119,0.0,0.0,4.8183,4.7719,4.6421,4.5952,4.6105,4.6092,4.6172,4.6289,4.6289,4.6289,4.6289,4.6289,4.6289,4.6289,4.6289,4.6289,4.6289,4.6289,4.6172,4.6016,4.6016,4.6016,4.6016,4.6016,4.6172,4.6289,4.6289,4.6289,4.6289,4.6289,4.6289,4.6836,4.8594,4.8047,0.0,0.0,4.8002,4.6832,4.5465,4.5269,4.4957,4.4098,4.493,4.506,4.379,4.5377,4.5733,4.3863,4.4531,4.5036,4.5117,4.4957,4.5382,4.6597,4.8044,4.8596,4.8105,5.0087,5.0702,4.9933,5.0433,5.0779,5.0933,5.0779,5.0779,5.0933,5.0779,5.0702,5.0741,5.1587,5.1433,5.0933,5.328,5.3703,5.3126,5.4626,5.5164,5.5203,5.5409,5.6579,5.7,5.5282,5.6774,5.7942,5.7279,5.7685,5.8088,5.8198,5.8381,5.8471,5.8207,5.8079,5.7666,5.6859,5.6446,5.5953,5.5136,5.5139,5.5195,5.5222,5.4818,5.4164,5.3241,5.0779,5.045,5.2343,5.216,5.2685,0.0,5.5384,5.4774,0.0,0.0,0.0,0.0,4.8491,4.7439,4.6044,4.5885,4.5918,4.6119,4.6097,4.6172,4.6289,4.6289,4.6289,4.6289,4.6289,4.6289,4.6289,4.6289,4.6289,4.6289,4.6289,4.5742,4.5117,4.5117,4.5117,4.5117,4.5117,4.5703,4.6289,4.6289,4.6289,4.6289,4.6289,4.6289,4.6836,4.8594,4.7539,4.6953,0.0,4.75,4.6367,4.6211,4.6172,4.5859,4.4961,4.6342,4.6331,4.3789,4.5913,4.6627,4.4641,4.4803,4.5359,4.6124,4.5417,4.6048,4.8398,4.7026,4.7998,5.1606,4.9528,4.9548,5.1664,5.101,5.1087,5.1779,5.101,5.1087,5.1741,5.101,5.0702,5.0741,5.1587,5.1433,5.0856,5.2626,5.2779,5.2164,5.3087,5.3433,5.3549,5.6145,5.6594,5.6818,5.5879,5.6874,5.7788,5.7759,5.8104,5.8418,5.8418,5.8369,5.8194,5.8042,5.8238,5.7993,5.6904,5.6699,5.6251,5.5463,5.5215,5.4982,5.4756,5.46,5.3857,5.2472,5.0433,5.0296,5.2111,5.2709,5.3765,0.0,0.0,0.0,0.0,0.0,5.0264,4.8957,4.7362,4.6292,4.568,4.568,4.5796,4.5924,4.592,4.6015,4.6171,4.6097,4.615,4.6289,4.6211,4.6211,4.6289,4.6289,4.6289,4.6211,4.5664,4.5273,4.4883,4.4375,4.4609,4.5,4.5,4.5664,4.6289,4.6289,4.6289,4.6289,4.6289,4.6289,4.6523,4.7226,4.7187,4.7148,4.7305,0.0,4.6914,4.6367,4.6289,4.5976,4.5117,4.609,4.6166,4.457,4.582,4.6445,4.5664,4.5249,4.5369,4.6129,4.5424,4.5685,4.7217,4.7384,4.827,4.9912,4.9759,5.0164,5.1164,5.1356,5.1587,5.1933,5.2125,5.2395,5.2626,5.1779,5.1702,5.2241,5.2549,5.2202,5.1548,5.2741,5.2664,5.201,5.2895,5.3549,5.4049,5.6806,0.0,5.7178,0.0,5.7106,5.7617,5.7932,5.8282,5.8549,5.8713,5.8418,5.8238,5.8375,5.8713,5.8306,5.6762,5.6928,5.6614,5.5427,5.5303,5.5054,5.4511,5.4241,5.3433,5.1933,5.001,4.9643,5.0924,5.192,5.2937,0.0,0.0,0.0,0.0,4.9421,4.8601,4.8323,4.6386,4.5586,4.5586,4.5586,4.568,4.5813,4.581,4.5901,4.603,4.5975,4.6059,4.6153,4.6114,4.6136,4.6192,4.624,4.6062,4.569,4.5104,4.4566,4.4141,4.3789,4.4141,4.4687,4.4922,4.5664,4.6287,4.6284,4.627,4.624,4.6192,4.6195,4.6202,4.6211,4.6758,4.6953,4.6406,0.0,4.6992,4.6406,4.6289,4.6054,4.546,4.6166,4.621,4.5034,4.5952,4.6381,4.5857,4.5561,4.5597,4.6124,0.0,0.0,0.0,0.0,0.0,4.9259,4.999,5.0491,5.0702,5.1279,5.1664,5.1933,5.2818,5.2933,5.2433,5.2049,5.2125,5.2472,5.2741,5.2318,5.1625,5.251,5.2318,5.1625,5.2241,5.2856,5.3433,5.7566,5.8529,5.9294,5.8198,5.796,5.7997,5.7997,5.7997,5.815,5.8632,5.8713,5.8874,5.9319,5.9389,5.8573,5.648,5.7068,5.673,5.4667,5.5237,5.5357,5.4511,5.3664,5.2818,5.1933,4.9433,4.8125,4.8163,4.9148,0.0,4.8453,0.0,5.0898,4.8376,4.9196,4.8105,4.5642,4.5586,4.5586,4.5586,4.5586,4.568,4.5796,4.5796,4.5834,4.5928,4.6054,4.6006,4.5928,4.6044,4.5996,4.592,4.6059,4.548,4.4705,4.4705,4.3591,4.2539,4.3359,4.3672,4.3906,4.4766,4.5664,4.6306,4.6312,4.6198,4.6044,4.5911,4.5888,4.5949,4.6091,4.6094,4.6172,4.6289,0.0,4.6328,4.6289,4.6289,4.6282,4.6274,4.705,4.6868,4.4965,4.6479,4.6787,4.4849,4.5703,4.6287,4.63,0.0,0.0,4.8828,4.7927,0.0,5.1029,5.0106,4.999,5.0702,5.0702,5.1125,5.1933,5.2818,5.2318,5.0779,5.1548,5.1471,5.0779,5.1587,5.1433,5.0779,5.1587,5.1433,5.0702,5.0741,5.0741,5.0971,5.7884,5.8179,5.8428,5.8079,5.7997,5.7997,5.7997,5.7997,5.8282,5.9065,5.9176,5.9458,6.0283,6.0074,5.9241,5.767,5.7873,5.7417,5.5817,5.5705,5.5088,5.3664,5.3356,5.2279,5.024,4.8817,4.7817,4.7278,0.0,0.0,0.0,5.0046,4.9034,4.6446,4.675,4.6408,4.5586,4.5586,4.5586,4.5586,4.5586,4.5624,4.5663,4.5663,4.5719,4.583,4.5777,4.5861,4.6027,4.5989,4.5918,4.5896,4.5962,4.5372,4.4601,4.3995,4.3465,4.3015,4.2763,4.3555,4.4531,4.4922,4.5657,4.6268,4.6172,4.6065,4.5945,4.5935,4.595,4.6032,4.6099,4.6187,4.625,4.6289,4.6289,0.0,4.6289,4.6289,4.6093,4.5499,4.6167,4.6236,4.5034,4.6015,4.6715,4.6678,4.6982,4.6885,4.6209,0.0,0.0,0.0,4.82,0.0,5.0348,5.1068,5.1511,5.1664,5.2242,5.2935,5.3664,5.3972,5.4087,5.4049,5.3164,5.2972,5.3203,5.2279,5.1741,5.151,5.1202,5.0933,5.0702,5.0702,5.1048,5.1587,5.7997,5.7997,5.7997,5.7997,5.7997,5.7997,5.7997,5.7997,5.8369,5.9284,5.9389,5.9608,6.0248,6.0073,0.0,5.8028,5.7851,5.7258,5.5946,5.5446,5.4626,5.328,5.2895,5.1818,4.9933,4.8702,0.0,4.7355,4.7846,4.8105,4.8105,4.8099,4.7185,4.5586,4.5586,4.5586,4.5586,4.5586,4.5586,4.5586,4.5586,4.5586,4.5586,4.5586,4.5624,4.5719,4.568,4.5764,4.592,4.5858,4.5834,4.5796,4.5796,4.5218,4.4427,4.3904,4.3541,4.3288,4.3202,4.4,4.4919,4.5362,4.584,4.618,4.6026,4.5911,4.5834,4.5796,4.5834,4.5945,4.5966,4.6074,4.6156,4.621,4.6289,4.6289,4.6289,4.6289,4.6094,4.5547,4.6273,4.6435,4.5567,4.627,4.6864,4.7038,4.7069,4.6813,0.0,0.0,4.7382,4.7608,4.8671,4.9648,5.043,5.1725,5.2469,5.2685,5.3147,5.3435,5.3549,5.4203,5.4241,5.378,5.3395,5.3164,5.2972,5.1895,5.1471,5.1395,5.0894,5.0702,5.0702,5.0702,5.101,5.151,5.7997,5.7997,5.7997,5.7997,5.7997,5.7997,5.7997,5.7997,5.8369,5.9284,5.9389,5.9419,5.948,5.9435,5.8933,5.7668,0.0,0.0,5.5198,5.4741,5.4126,5.3241,5.2395,5.151,5.0625,4.8971,4.8048,4.7932,4.6355,4.5586,4.5586,4.5586,4.5586,4.5586,4.5586,4.5586,4.5586,4.5586,4.5586,4.5586,4.5586,4.5586,4.5586,4.5586,4.5586,4.5624,4.5757,4.5719,4.5624,4.5757,4.5719,4.5586,4.5586,4.5047,4.4393,4.4316,4.3794,4.3464,4.4443,4.4781,4.5093,4.6042,4.618,4.6026,4.5834,4.5796,4.5757,4.5624,4.5624,4.5748,4.5867,4.5997,4.613,4.6169,4.6289,4.6367,4.6328,4.6289,4.6289,4.6289,4.7031,0.0,4.6365,4.7021,4.7159,4.6257,4.6335,4.6358,0.0,0.0,4.8672,4.7812,4.9414,5.0625,5.1406,5.2272,5.303,5.3672,5.3619,5.3069,5.2164,5.3818,5.3241,5.1048,5.2549,5.2279,5.0779,5.0702,5.0702,5.0702,5.0702,5.0702,5.0702,5.0702,5.0741,5.0894,0.0,0.0,5.7997,5.7997,5.7997,5.7997,5.7997,5.7997,5.8369,5.9284,5.9389,5.9419,5.948,5.8934,5.8181,5.7228,5.7066,5.6604,5.5615,5.4891,5.4126,5.3241,5.2395,5.1202,4.974,4.8663,4.7471,4.6201,4.5778,4.5586,4.5586,4.5586,4.5586,4.5586,4.5586,4.5586,4.5586,4.5586,4.5586,4.5586,4.5586,4.5586,4.5586,4.5586,4.5586,4.5586,4.5624,4.568,4.5757,4.5796,4.5796,4.5757,4.5757,4.5565,4.5163,4.4509,4.4162,4.4141,4.4581,4.5153,4.5741,4.6044,4.6026,4.5873,4.5796,4.5719,4.5624,4.5586,4.6163,4.6681,4.6711,4.7449,4.7842,4.7182,4.7187,4.707,4.6406,4.6289,4.6289,4.6289,4.6484,4.6523,4.6323,4.6482,4.6795,0.0,4.7288,4.7564,4.8201,4.9882,5.043,4.9609,5.0586,5.1836,5.332,5.4214,5.464,5.4585,5.507,5.4818,5.3933,5.4934,5.4741,5.3587,5.3318,5.2587,5.1587,5.0933,5.0702,5.0702,5.0702,5.0702,5.0702,5.0702,5.1087,5.1548,5.7923,5.7997,5.7997,5.7997,5.7997,5.7997,5.7997,5.7997,5.8369,5.9284,5.9389,5.9305,5.898,5.855,5.778,5.6511,5.6395,5.6203,5.5742,5.4587,5.3703,5.3241,5.201,5.0933,5.001,4.9125,4.7855,4.6201,4.6201,4.597,4.5586,4.5586,4.5586,4.5586,4.5586,4.5586,4.5586,4.5586,4.5586,4.5586,4.5586,4.5586,4.5586,4.5586,4.5586,4.5586,4.5586,4.5624,4.5719,4.5719,4.5719,4.5719,4.5719,4.5932,4.6086,4.5624,4.5201,4.4932,4.5158,4.5518,4.5875,4.5918,4.618,4.6317,4.6317,4.6509,4.674,4.674,4.7163,4.7509,4.7566,4.7815,4.789,4.7475,4.7182,4.6833,4.6367,4.6289,4.6445,4.6836,4.6875,4.7031,4.7461,4.7148,4.7109,4.7578,4.7222,0.0,4.8248,4.9917,5.082,5.0742,5.1953,5.3242,5.457,5.5469,5.5775,5.56,5.5907,5.5511,5.4605,5.5357,5.4818,5.3318,5.3241,5.251,5.1318,5.0894,5.0702,5.0702,5.0702,5.0702,5.0702,5.0702,5.0971,5.1279,5.785,5.7997,5.7997,5.7997,5.7997,5.7997,5.7997,5.7997,5.8369,5.9284,5.9276,5.8963,5.8366,5.8165,5.7434,5.5818,5.5703,5.5703,5.5703,5.4126,5.3203,5.3203,5.1587,5.0702,5.0702,4.9856,4.8625,4.7086,4.6971,4.6509,4.5778,4.5663,4.5586,4.5586,4.5586,4.5586,4.5586,4.5586,4.5586,4.5586,4.5586,4.5586,4.5586,4.5586,4.5663,4.5778,4.5624,4.5663,4.5778,4.5778,4.5778,4.5817,4.5932,4.6471,4.7086,4.7086,4.6547,4.6009,4.6142,4.619,4.6176,4.6194,4.6663,4.7163,4.7086,4.7625,4.8086,4.8086,4.8202,4.8317,4.8469,4.7987,4.7675,4.794,4.7125,4.6549,4.6679,0.0,4.6601,4.75,4.7617,4.793,4.8828,4.8242,4.7812,4.7812,4.7109,4.7068,4.7946,4.9528,5.0742,5.1562,5.3281,5.4609,5.5508,5.6211,5.6523,5.6406,5.6278,5.575,5.4912,5.5472,5.4395,5.2164,5.2933,5.2279,5.0741,5.0741,5.0741,5.0741,5.0741,5.0741,5.0741,5.0741,5.0837,5.0914,5.785,5.7997,5.7997,5.7997,5.7997,5.7997,5.7997,5.7997,5.8369,5.9284,5.8786,5.8287,5.8289,5.7627,5.678,5.578,5.5703,5.5703,5.5703,5.4126,5.3203,5.3203,5.1587,5.0702,5.0702,4.9856,4.8894,4.7932,4.724,4.6817,4.6701,4.5932,4.5586,4.5586,4.5586,4.5586,4.5586,4.5586,4.5586,4.5586,4.5586,4.5586,4.5586,4.5586,4.6047,4.6586,4.5855,4.6086,4.6701,4.6701,4.6701,4.6817,4.7509,4.7817,4.7932,4.7932,4.7817,4.774,4.7874,4.7892,4.791,4.7894,4.7932,4.7932,4.7932,4.8009,4.8086,4.8086,4.8702,4.924,4.9375,4.9388,4.9637,5.0494,4.8794,4.7653,4.8382,0.0,4.6601,4.75,4.7617,4.793,4.8828,4.8789,4.8711,4.8711,4.8555,4.8867,4.9765,5.0703,5.1601,5.2461,5.418,5.5508,5.6406,5.6523,5.6523,5.6406,5.6398,5.6154,5.5703,5.5818,5.4895,5.3182,5.3297,5.2472,5.1029,5.1029,5.0991,5.0875,5.0991,5.0991,5.0875,5.0875,5.1299,5.178,5.7299,5.7336,5.7226,5.6785,5.7079,5.7336,5.7336,5.7703,5.8091,5.8353,5.8234,5.7883,5.7315,5.7113,5.6626,5.578,5.5703,5.5703,5.5703,5.4587,5.3895,5.3895,5.2702,5.1818,5.1356,5.051,4.9663,4.8817,4.8432,4.7778,4.6894,4.6509,4.6047,4.5586,4.5586,4.5586,4.5586,4.5586,4.5586,4.5586,4.5586,4.5893,4.6317,4.6317,4.6817,4.7509,4.7086,4.7201,4.7548,4.7548,4.7548,4.7625,4.7971,4.874,4.951,4.951,4.8856,4.8125,4.8182,4.8202,4.8202,4.8202,4.8509,4.8817,4.8817,4.951,5.001,4.9586,5.0202,5.0741,5.0452,4.9749,4.9524,5.0498,4.8564,4.7215,4.808,4.7493,4.734,4.8203,4.8711,4.9336,5.0156,4.9844,4.9609,4.9609,4.918,4.9297,5.0156,5.0976,5.1797,5.2656,5.3945,5.5039,5.5898,5.5898,5.6094,5.6523,5.6445,5.6305,5.6173,5.6093,5.5395,5.4203,5.4216,5.3281,5.1731,5.1731,5.146,5.1005,5.1085,5.1061,5.0981,5.0945,5.1408,5.203,5.6822,5.6822,5.6565,5.5721,5.6271,5.6822,5.6822,5.7336,5.7671,5.7516,5.7527,5.7219,5.6491,5.6558,5.6434,5.5742,5.5599,5.5577,5.5577,5.4978,5.46,5.4511,5.3472,5.251,5.1664,5.101,5.0356,4.9702,4.951,4.874,4.7471,4.7278,4.6817,4.6163,4.597,4.5893,4.5893,4.5701,4.5586,4.5586,4.5586,4.6124,4.6894,4.6894,4.7548,4.8394,4.8163,4.824,4.8394,4.8394,4.8548,4.874,4.8933,5.0048,5.1279,5.1279,5.0317,4.924,4.9048,4.8971,4.8933,4.874,4.9202,4.9702,4.9702,5.0856,5.1741,5.1145,5.1587,5.1972,5.1491,5.0106,4.932,5.0303,0.0,4.721,4.8044,4.8037,4.8233,4.9101,4.9805,5.0508,5.1328,5.0859,5.0469,5.0469,4.9844,4.9766,5.043,5.1055,5.1797,5.2656,5.375,5.4609,5.5273,5.5508,5.5937,5.6601,5.6484,5.6445,5.6406,5.6286,5.5787,5.4934,5.4971,5.4097,5.2699,5.2465,5.1998,5.139,5.1257,5.1256,5.1423,5.1282,5.1718,5.2433,5.6822,5.6822,5.6565,5.5721,5.6271,5.6822,5.6822,5.6859,5.7044,5.7441,5.6551,5.6002,5.6338,5.6022,5.578,5.5703,5.5375,5.516,5.516,5.5084,5.4905,5.4511,5.2895,5.1625,5.0818,5.0741,5.0664,5.0587,4.9779,4.9356,4.9202,4.8394,4.7971,4.7894,4.7124,4.6817,4.674,4.5932,4.5586,4.5586,4.5586,4.6124,4.6894,4.6894,4.7894,4.9202,4.8394,4.8625,4.9317,4.9317,4.9817,5.0625,5.1395,5.2279,5.301,5.301,5.2933,5.2664,5.1856,5.1625,5.1433,5.0702,5.0548,5.0587,5.0587,5.1279,5.1933,5.1973,5.2068,5.2164,5.2377,5.1029,5.0225,5.1162,0.0,0.0,4.9813,4.9289,4.914,5.0,5.0156,5.0508,5.1328,5.1367,5.1328,5.1328,5.125,5.125,5.1328,5.1367,5.1797,5.2656,5.4336,5.5234,5.5312,5.6094,5.6523,5.6601,5.6601,5.6523,5.6406,5.6404,5.5909,5.5066,5.507,5.4634,5.3827,5.3007,5.2577,5.2343,5.1637,5.181,5.2394,5.2253,5.2763,5.3433,5.6235,5.6051,5.5647,5.4326,5.4766,5.5317,5.5317,5.6161,5.6507,5.5692,5.607,5.6139,5.5307,5.5517,5.5703,5.5703,5.5785,5.5641,5.5145,5.5341,5.5178,5.4528,5.3356,5.2318,5.1471,5.0971,5.0702,5.0702,5.0356,4.9933,4.9394,4.9048,4.8625,4.8048,4.7278,4.7201,4.7548,4.6163,4.6201,4.7124,4.6624,4.724,4.8432,4.8432,4.9163,5.0164,4.9817,5.024,5.0971,5.0971,5.1548,5.2318,5.2626,5.3318,5.4087,5.4587,5.4741,5.4587,5.3741,5.3126,5.2626,5.2318,5.2241,5.2241,5.2241,5.2895,5.3395,5.3012,5.3387,5.3716,5.3378,5.1968,5.1141,5.2069,0.0,4.9218,5.0035,4.9882,5.0,5.0859,5.1406,5.207,5.293,5.3008,5.3008,5.3008,5.25,5.2226,5.2226,5.2226,5.2617,5.3476,5.4687,5.5312,5.5312,5.5625,5.6055,5.6601,5.6601,5.6562,5.6523,5.6523,5.6351,5.6051,5.6051,5.5577,5.4726,5.3867,5.3164,5.2617,5.2305,5.2365,5.266,5.2972,5.3654,5.4395,5.6235,5.5978,5.5464,5.3849,5.4252,5.4693,5.4436,5.5354,5.5647,5.4546,5.5436,5.5734,5.4635,5.5212,5.5818,5.6088,5.6103,5.5864,5.5323,5.5321,5.4874,5.3935,5.3469,5.2664,5.1548,5.0971,5.0702,5.0702,5.0702,5.0394,4.9817,4.9817,4.9471,4.8894,4.8048,4.8009,4.8394,4.6971,4.7048,4.8048,4.7509,4.8125,4.9394,4.9394,4.9933,5.0702,5.0702,5.1202,5.1895,5.1895,5.2664,5.3626,5.3626,5.4203,5.4972,5.5549,5.5703,5.5588,5.5011,5.4434,5.3857,5.3318,5.3203,5.3203,5.3203,5.3895,5.4454,5.3974,5.4448,5.4827,5.4336,5.313,5.2305,5.2656,5.1445,5.0625,5.0937,5.1211,5.1601,5.2148,5.2734,5.3359,5.3945,5.3984,5.3906,5.3594,5.3047,5.2695,5.2695,5.2695,5.3203,5.4375,5.5,5.543,5.5703,5.5703,5.6015,5.6601,5.6601,5.6601,5.6601,5.6601,5.6601,5.6601,5.6601,5.625,5.5625,5.4453,5.3828,5.3476,5.2891,5.3047,5.3554,5.3928,5.4582,5.528,5.6969,5.6785,5.6271,5.4693,5.506,5.5317,5.4509,5.4399,5.4436,5.4399,5.4465,5.4522,5.4522,5.5212,5.6049,5.6896,5.6188,5.5729,5.5724,5.4937,5.3921,5.2653,5.2992,5.2433,5.0741,5.0702,5.0702,5.0702,5.0702,5.0702,5.0702,5.0702,5.0702,5.0664,4.9779,4.9394,4.9356,4.8471,4.8125,4.8125,4.8125,4.8625,4.9433,4.9394,4.9971,5.0702,5.0702,5.1241,5.1933,5.1933,5.3087,5.4511,5.4511,5.5049,5.5703,5.5703,5.5703,5.5703,5.5703,5.5703,5.528,5.3626,5.3241,5.3241,5.3241,5.3993,5.4724,5.486,5.5032,5.5161,5.5299,5.4609,5.3711,5.2851,5.3437,5.3711,5.2812,5.3437,5.3984,5.4023,5.4023,5.4023,5.4023,5.4023,5.3672,5.2812,5.2734,5.2734,5.2734,5.2734,5.3516,5.5273,5.5312,5.5742,5.6601,5.6601,5.6601,5.6601,5.6601,5.6601,5.6601,5.6601,5.6601,5.6601,5.6601,5.6601,5.6445,5.4726,5.4492,5.5117,5.3398,5.3789,5.5273,5.5156,5.5589,5.6186,5.6124,5.55,5.495,5.4473,5.4583,5.4876,5.517,5.5721,5.5868,5.5317,5.6294,5.6602,5.5503,5.6091,5.6472,5.6126,5.6349,5.6654,5.6968,5.5977,5.5049,5.4394,5.4204,5.3318,5.1587,5.1548,5.1279,5.0702,5.0702,5.0702,5.0702,5.0702,5.0702,5.0664,4.9779,4.974,5.0202,4.874,4.8817,4.9856,4.924,4.9856,5.1087,5.051,5.1202,5.2356,5.1779,5.2549,5.3877,5.3877,5.4685,5.5686,5.5686,5.6186,5.6609,5.6032,5.578,5.5703,5.5703,5.5703,5.5588,5.5088,5.4934,5.4972,5.5049,5.5318,5.5609,5.5878,5.5994,5.6068,5.6197,5.5508,5.4844,5.457,5.4219,5.3906,5.3633,5.3828,5.4219,5.4844,5.4922,5.5156,5.5781,5.582,5.5703,5.5469,5.4883,5.4531,5.4531,5.4531,5.5039,5.6172,5.6211,5.6328,5.6601,5.6601,5.6601,5.6601,5.6601,5.6601,5.6601,5.6601,5.6601,5.6601,5.6601,5.6601,5.6445,5.4726,5.4492,5.5195,5.4062,5.4297,5.5351,5.5859,5.6134,5.6302,5.6638,5.6161,5.5721,5.539,5.5354,5.5427,5.5574,5.6014,5.6213,5.5918,5.6594,5.6819,5.6064,5.6282,5.6395,5.6242,5.6616,5.7209,5.7968,5.687,5.6095,5.5861,5.5615,5.4511,5.2472,5.2433,5.201,5.1164,5.1164,5.101,5.0702,5.0702,5.0702,5.0702,5.0471,5.051,5.0664,5.0279,5.0548,5.1164,5.0971,5.151,5.2356,5.1856,5.2318,5.3126,5.2664,5.3454,5.4726,5.4779,5.5603,5.6687,5.6687,5.6958,5.7155,5.6634,5.6225,5.5895,5.5895,5.5895,5.5895,5.5895,5.5818,5.578,5.5857,5.5994,5.6148,5.634,5.6433,5.6485,5.6597,5.6172,5.582,5.582,5.5351,5.5039,5.5039,5.5039,5.5234,5.5742,5.582,5.6015,5.6562,5.6601,5.6445,5.6094,5.5273,5.4922,5.5273,5.5312,5.5703,5.6562,5.6601,5.6601,5.6601,5.6601,5.6601,5.6601,5.6601,5.6601,5.6601,5.6601,5.6601,5.6601,5.6601,5.6601,5.6484,5.5078,5.5039,5.5703,5.4492,5.4531,5.5312,5.539,5.5645,5.5863,5.7886,5.7813,5.7593,5.6932,5.6822,5.6602,5.5904,5.5794,5.5975,5.6439,5.6249,5.6192,5.6567,5.6213,5.6203,5.6934,5.6978,5.7542,5.8816,5.7763,5.7118,5.722,5.7088,5.5895,5.3587,5.3395,5.2895,5.201,5.201,5.1587,5.0818,5.0894,5.0856,5.0818,5.1664,5.1625,5.101,5.2549,5.2741,5.2087,5.2895,5.3241,5.3318,5.3241,5.328,5.3433,5.3492,5.4072,5.4882,5.5108,5.6281,5.7683,5.7566,5.7566,5.7515,5.7443,5.6849,5.621,5.621,5.621,5.621,5.6287,5.619,5.6032,5.5955,5.6225,5.6536,5.6541,5.6563,5.6601,5.6719,5.664,5.6601,5.6601,5.6601,5.6601,5.6601,5.6601,5.6601,5.6601,5.6601,5.6601,5.6601,5.6601,5.6289,5.5469,5.4687,5.457,5.5351,5.543,5.5781,5.6562,5.6601,5.6601,5.6601,5.6601,5.6601,5.6601,5.6601,5.6601,5.6601,5.6601,5.6601,5.6601,5.6601,5.6601,5.6523,5.5664,5.5781,5.6328,5.4648,5.4492,5.5078,5.4297,5.4453,5.515,5.7079,5.6565,5.6271,5.6712,5.6822,5.6969,5.7409,5.7483,5.7634,5.8151,5.8427,5.8538,5.8292,5.7939,5.755,5.7049,5.7263,5.812,5.9722,5.891,5.8585,5.895,5.7703,5.6742,5.6165,5.4895,5.378,5.2933,5.2933,5.2472,5.1664,5.2356,5.2279,5.1702,5.2549,5.2818,5.2664,5.3049,5.3087,5.2933,5.3126,5.3626,5.4126,5.3472,5.401,5.5088,5.4608,5.5067,5.603,5.6953,5.835,5.9639,5.9014,5.8702,5.8465,5.782,5.6931,5.6214,5.6214,5.6214,5.6369,5.6991,5.7228,5.7131,5.6456,5.69,5.7446,5.757,5.7061,5.6797,5.75,5.707,5.6601,5.6601,5.6601,5.6601,5.6601,5.6601,5.6601,5.6601,5.6601,5.6601,5.6601,5.6601,5.6523,5.6328,5.6133,5.6133,5.6328,5.6328,5.6406,5.6601,5.6601,5.6601,5.6601,5.6601,5.6601,5.6601,5.6601,5.6601,5.6601,5.6601,5.6601,5.6601,5.6601,5.6601,5.6523,5.5664,5.539,5.5469,5.4414,5.4101,5.4258,5.4062,5.4531,5.5309,5.6895,5.6785,5.6859,5.7299,5.7373,5.7519,5.7923,5.7997,5.8238,5.8951,5.8874,5.8868,5.9113,5.8649,5.828,5.8204,5.8157,5.8825,6.0315,5.9797,5.9431,5.9488,5.8665,5.8011,5.7627,5.6742,5.5472,5.3818,5.3818,5.3356,5.2549,5.301,5.2972,5.2549,5.3433,5.3587,5.3241,5.4049,5.4164,5.3857,5.4241,5.4664,5.5011,5.4587,5.4972,5.5742,5.5532,5.6093,5.7182,5.816,5.9375,6.0312,5.9922,5.9453,5.8945,5.8555,5.776,5.6932,5.6503,5.6987,5.7642,5.7642,5.8319,5.8753,5.7807,5.8009,5.8325,5.7964,5.7539,5.7226,5.7265,5.6914,5.6601,5.6601,5.6601,5.6601,5.6601,5.6601,5.6601,5.6601,5.6601,5.6601,5.6601,5.6601,5.6601,5.6601,5.6601,5.6601,5.6601,5.6601,5.6601,5.6601,5.6601,5.6601,5.6601,5.6601,5.6601,5.6601,5.6601,5.6601,5.6601,5.6601,5.6601,5.6601,5.6601,5.6601,5.6523,5.5664,5.5312,5.5156,5.3867,5.3398,5.332,5.2891,5.3555,5.4843,5.7079,5.7446,5.785,5.796,5.7997,5.7997,5.7997,5.7997,5.8369,5.9284,5.8786,5.8698,5.9634,5.8973,5.8781,5.9435,5.9153,5.9446,6.0719,6.0456,6.0059,5.9742,5.9588,5.9204,5.8511,5.8357,5.7203,5.4934,5.4934,5.4395,5.3433,5.3549,5.3549,5.3472,5.4318,5.4318,5.3703,5.5126,5.5318,5.4741,5.5434,5.5703,5.5703,5.5857,5.6011,5.6148,5.6521,5.7348,5.8437,5.914,5.9961,6.0625,6.0625,5.9961,5.9219,5.9219,5.8476,5.7539,5.6992,5.7894,5.888,5.8451,5.9374,6.0244,5.9529,5.9404,5.914,5.8281,5.8008,5.7695,5.6953,5.6719,5.6601,5.6601,5.6601,5.6601,5.6601,5.6601,5.6601,5.6601,5.6601,5.6601,5.6601,5.6601,5.6601,5.6601,5.6601,5.6601,5.6601,5.6601,5.6601,5.6601,5.6601,5.6601,5.6601,5.6601,5.6601,5.6601,5.6601,5.6601,5.6601,5.6601,5.6601,5.6601,5.6601,5.6601,5.6523,5.5664,5.5195,5.4922,5.332,5.2617,5.2422,5.1992,5.2851,5.4414,5.7593,5.7373,5.7189,5.7886,5.7997,5.7997,5.7997,5.7997,5.8369,5.9284,5.9314,5.957,6.0517,5.9858,5.9396,5.9473,5.9427,5.9811,6.0742,6.0734,6.0657,6.0627,5.9896,5.9435,5.9358,5.8665,5.7742,5.6665,5.6665,5.5857,5.4357,5.5049,5.4972,5.4357,5.5164,5.5472,5.5395,5.5588,5.5626,5.5549,5.5665,5.5703,5.578,5.6549,5.6917,5.7156,5.8023,5.9092,6.0078,6.0195,6.082,6.1523,6.1523,6.0469,5.9219,5.9219,5.8047,5.6914,5.7539,5.7889,5.8395,5.9723,6.0225,6.0571,6.1196,6.0777,6.0,5.918,5.8437,5.7851,5.7734,5.7109,5.6601,5.6601,5.6601,5.6601,5.6601,5.6601,5.6601,5.6601,5.6601,5.6601,5.6601,5.6601,5.6601,5.6601,5.6601,5.6601,5.6601,5.6601,5.6601,5.6601,5.6601,5.6601,5.6601,5.6601,5.6601,5.6601,5.6601,5.6601,5.6601,5.6601,5.6601,5.6601,5.6601,5.6601,5.6523,5.5664,5.4844,5.4062,5.3086,5.2226,5.1758,5.3125,5.4258,5.5234,5.6492,5.6748,5.7042,5.785,5.7997,5.7997,5.7997,5.7997,5.8369,5.9284,5.9389,5.976,6.071,6.0473,6.0242,6.0242,6.0242,6.0396,6.0781,6.0781,6.0781,6.0781,6.0435,6.0242,6.0242,5.9896,5.9281,5.8396,5.7434,5.6626,5.5895,5.5742,5.5511,5.5203,5.5549,5.5703,5.5703,5.5703,5.5703,5.5703,5.5703,5.5972,5.6472,5.6857,5.7418,5.8199,5.9278,5.9988,6.0469,6.0976,6.1367,6.1719,6.1719,6.0859,5.9883,5.9883,5.9336,5.8711,5.8633,5.9297,6.0078,6.0351,6.0781,6.1211,6.1601,6.1406,6.0742,5.9453,5.8515,5.7734,5.7265,5.6875,5.6601,5.6601,5.6601,5.6601,5.6601,5.6601,5.6601,5.6601,5.6601,5.6601,5.6601,5.6601,5.6601,5.6601,5.6601,5.6601,5.6601,5.6601,5.6601,5.6601,5.6601,5.6601,5.6601,5.6601,5.6601,5.6601,5.6601,5.6601,5.6601,5.6601,5.6601,5.6601,5.6601,5.6601,5.6523,5.5664,5.4805,5.3906,5.3047,5.2461,5.2344,5.4062,5.4961,5.543]},{"header":{"parameterUnit":"m.s-1","parameterCategory":1,"la1":30.6,"la2":28.766,"lo1":-90.7593,"lo2":-88.6598,"dy":0.0162,"dx":0.0183,"nx":116,"ny":114,"refTime":"2023-03-28T18:00:00:Z","depth":0,"parameterNumber":3,"parameterNumberName":"V-component_of_WINDS"},"data":[0.0,0.0,0.0,0.0,0.0,0.0,0.0,0.0,0.0,0.0,0.0,0.0,0.0,0.0,0.0,0.0,0.0,0.0,0.0,0.0,0.0,0.0,0.0,0.0,0.0,0.0,0.0,0.0,0.0,0.0,0.0,0.0,0.0,0.0,0.0,0.0,0.0,0.0,0.0,0.0,0.0,0.0,0.0,0.0,0.0,0.0,0.0,0.0,0.0,0.0,0.0,0.0,0.0,0.0,0.0,0.0,0.0,0.0,0.0,0.0,0.0,0.0,0.0,0.0,0.0,0.0,0.0,0.0,0.0,0.0,0.0,0.0,0.0,0.0,0.0,0.0,0.0,0.0,0.0,0.0,0.0,0.0,0.0,0.0,0.0,0.0,0.0,0.0,0.0,0.0,0.0,0.0,0.0,0.0,0.0,0.0,0.0,0.0,0.0,0.0,0.0,0.0,0.0,0.0,0.0,0.0,0.0,0.0,0.0,0.0,0.0,0.0,0.0,0.0,0.0,0.0,0.0,0.0,0.0,0.0,0.0,0.0,0.0,0.0,0.0,0.0,0.0,0.0,0.0,0.0,0.0,0.0,0.0,0.0,0.0,0.0,0.0,0.0,0.0,0.0,0.0,0.0,0.0,0.0,0.0,0.0,0.0,0.0,0.0,0.0,0.0,0.0,0.0,0.0,0.0,0.0,0.0,0.0,0.0,0.0,0.0,0.0,0.0,0.0,0.0,0.0,0.0,0.0,0.0,0.0,0.0,0.0,0.0,0.0,0.0,0.0,0.0,0.0,0.0,0.0,0.0,0.0,0.0,0.0,0.0,0.0,0.0,0.0,0.0,0.0,0.0,0.0,0.0,0.0,0.0,0.0,0.0,0.0,0.0,0.0,0.0,0.0,0.0,0.0,0.0,0.0,0.0,0.0,0.0,0.0,0.0,0.0,0.0,0.0,0.0,0.0,0.0,0.0,0.0,0.0,0.0,0.0,0.0,0.0,0.0,0.0,0.0,0.0,0.0,0.0,0.0,0.0,0.0,0.0,0.0,0.0,0.0,0.0,0.0,0.0,0.0,0.0,0.0,0.0,0.0,0.0,0.0,0.0,0.0,0.0,0.0,0.0,0.0,0.0,0.0,0.0,0.0,0.0,0.0,0.0,0.0,0.0,0.0,0.0,0.0,0.0,0.0,0.0,0.0,0.0,0.0,0.0,0.0,0.0,0.0,0.0,0.0,0.0,0.0,0.0,0.0,0.0,0.0,0.0,0.0,0.0,0.0,0.0,0.0,0.0,0.0,0.0,0.0,0.0,0.0,0.0,0.0,0.0,0.0,0.0,0.0,0.0,0.0,0.0,0.0,0.0,0.0,0.0,0.0,0.0,0.0,0.0,0.0,0.0,0.0,0.0,0.0,0.0,0.0,0.0,0.0,0.0,0.0,0.0,0.0,0.0,0.0,0.0,0.0,0.0,0.0,0.0,0.0,0.0,0.0,0.0,0.0,0.0,0.0,0.0,0.0,0.0,0.0,0.0,0.0,0.0,0.0,0.0,0.0,0.0,0.0,0.0,0.0,0.0,0.0,0.0,0.0,0.0,0.0,0.0,0.0,0.0,0.0,0.0,0.0,0.0,0.0,0.0,0.0,0.0,0.0,0.0,0.0,0.0,0.0,0.0,0.0,0.0,0.0,0.0,0.0,0.0,0.0,0.0,0.0,0.0,0.0,0.0,0.0,0.0,0.0,0.0,0.0,0.0,0.0,0.0,0.0,0.0,0.0,0.0,0.0,0.0,0.0,0.0,0.0,0.0,0.0,0.0,0.0,0.0,0.0,0.0,0.0,0.0,0.0,0.0,0.0,0.0,0.0,0.0,0.0,0.0,0.0,0.0,0.0,0.0,0.0,0.0,0.0,0.0,0.0,0.0,0.0,0.0,0.0,0.0,0.0,0.0,0.0,0.0,0.0,0.0,0.0,0.0,0.0,0.0,0.0,0.0,0.0,0.0,0.0,0.0,0.0,0.0,0.0,0.0,0.0,0.0,0.0,0.0,0.0,0.0,0.0,0.0,0.0,0.0,0.0,0.0,0.0,0.0,0.0,0.0,0.0,0.0,0.0,0.0,0.0,0.0,0.0,0.0,0.0,0.0,0.0,0.0,0.0,0.0,0.0,0.0,0.0,0.0,0.0,0.0,0.0,0.0,0.0,0.0,0.0,0.0,0.0,0.0,0.0,0.0,0.0,0.0,0.0,0.0,0.0,0.0,0.0,0.0,0.0,0.0,0.0,0.0,0.0,0.0,0.0,0.0,0.0,0.0,0.0,0.0,0.0,0.0,0.0,0.0,0.0,0.0,0.0,0.0,0.0,0.0,0.0,0.0,0.0,0.0,0.0,0.0,0.0,0.0,0.0,0.0,0.0,0.0,0.0,0.0,0.0,0.0,0.0,0.0,0.0,0.0,0.0,0.0,0.0,0.0,0.0,0.0,0.0,0.0,0.0,0.0,0.0,0.0,0.0,0.0,0.0,0.0,0.0,0.0,0.0,0.0,0.0,0.0,0.0,0.0,0.0,0.0,0.0,0.0,0.0,0.0,0.0,0.0,0.0,0.0,0.0,0.0,0.0,0.0,0.0,0.0,0.0,0.0,0.0,0.0,0.0,0.0,0.0,0.0,0.0,0.0,0.0,0.0,0.0,0.0,0.0,0.0,0.0,0.0,0.0,0.0,0.0,0.0,0.0,0.0,0.0,0.0,0.0,0.0,0.0,0.0,0.0,0.0,0.0,0.0,0.0,0.0,0.0,0.0,0.0,0.0,0.0,0.0,0.0,0.0,0.0,0.0,0.0,0.0,0.0,0.0,0.0,0.0,0.0,0.0,0.0,0.0,0.0,0.0,0.0,0.0,0.0,0.0,0.0,0.0,0.0,0.0,0.0,0.0,0.0,0.0,0.0,0.0,0.0,0.0,0.0,0.0,0.0,0.0,0.0,0.0,0.0,0.0,0.0,0.0,0.0,0.0,0.0,0.0,0.0,0.0,0.0,0.0,0.0,0.0,0.0,0.0,0.0,0.0,0.0,0.0,0.0,0.0,0.0,0.0,0.0,0.0,0.0,0.0,0.0,0.0,0.0,0.0,0.0,0.0,0.0,0.0,0.0,0.0,0.0,0.0,0.0,0.0,0.0,0.0,0.0,0.0,0.0,0.0,0.0,0.0,0.0,0.0,0.0,0.0,0.0,0.0,0.0,0.0,0.0,0.0,0.0,0.0,0.0,0.0,0.0,0.0,0.0,0.0,0.0,0.0,0.0,0.0,0.0,0.0,0.0,0.0,0.0,0.0,0.0,0.0,0.0,0.0,0.0,0.0,0.0,0.0,0.0,0.0,0.0,0.0,0.0,0.0,0.0,0.0,0.0,0.0,0.0,0.0,0.0,0.0,0.0,0.0,0.0,0.0,0.0,0.0,0.0,0.0,0.0,0.0,0.0,0.0,0.0,0.0,0.0,0.0,0.0,0.0,0.0,0.0,0.0,0.0,0.0,0.0,0.0,0.0,0.0,0.0,0.0,0.0,0.0,0.0,0.0,0.0,0.0,0.0,0.0,0.0,0.0,0.0,0.0,0.0,0.0,0.0,0.0,0.0,0.0,0.0,0.0,0.0,0.0,0.0,0.0,0.0,0.0,0.0,0.0,0.0,0.0,0.0,0.0,0.0,0.0,0.0,0.0,0.0,0.0,0.0,0.0,0.0,0.0,0.0,0.0,0.0,0.0,0.0,0.0,0.0,0.0,0.0,0.0,0.0,0.0,0.0,0.0,0.0,0.0,0.0,0.0,0.0,0.0,0.0,0.0,0.0,0.0,0.0,0.0,0.0,0.0,0.0,0.0,0.0,0.0,0.0,0.0,0.0,0.0,0.0,0.0,0.0,0.0,0.0,0.0,0.0,0.0,0.0,0.0,0.0,0.0,0.0,0.0,0.0,0.0,0.0,0.0,0.0,0.0,0.0,0.0,0.0,0.0,0.0,0.0,0.0,0.0,0.0,0.0,0.0,0.0,0.0,0.0,0.0,0.0,0.0,0.0,0.0,0.0,0.0,0.0,0.0,0.0,0.0,0.0,0.0,0.0,0.0,0.0,0.0,0.0,0.0,0.0,0.0,0.0,0.0,0.0,0.0,0.0,0.0,0.0,0.0,0.0,0.0,0.0,0.0,0.0,0.0,0.0,0.0,0.0,0.0,0.0,0.0,0.0,0.0,0.0,0.0,0.0,0.0,0.0,0.0,0.0,0.0,0.0,0.0,0.0,0.0,0.0,0.0,0.0,0.0,0.0,0.0,0.0,0.0,0.0,0.0,0.0,0.0,0.0,0.0,0.0,0.0,0.0,0.0,0.0,0.0,0.0,0.0,0.0,0.0,0.0,0.0,0.0,0.0,0.0,0.0,0.0,0.0,0.0,0.0,0.0,0.0,0.0,0.0,0.0,0.0,0.0,0.0,0.0,0.0,0.0,0.0,0.0,0.0,0.0,0.0,0.0,0.0,0.0,0.0,0.0,0.0,0.0,0.0,0.0,0.0,0.0,0.0,0.0,0.0,0.0,0.0,0.0,0.0,0.0,0.0,0.0,0.0,0.0,0.0,0.0,0.0,0.0,0.0,0.0,0.0,0.0,0.0,0.0,0.0,0.0,0.0,0.0,0.0,0.0,0.0,0.0,0.0,0.0,0.0,0.0,0.0,0.0,0.0,0.0,0.0,0.0,0.0,0.0,0.0,0.0,0.0,0.0,0.0,0.0,0.0,0.0,0.0,0.0,0.0,0.0,0.0,0.0,0.0,0.0,0.0,0.0,0.0,0.0,0.0,0.0,0.0,0.0,0.0,0.0,0.0,0.0,0.0,0.0,0.0,0.0,0.0,0.0,0.0,0.0,0.0,0.0,0.0,0.0,0.0,0.0,0.0,0.0,0.0,0.0,0.0,0.0,0.0,0.0,0.0,0.0,0.0,0.0,0.0,0.0,0.0,0.0,0.0,0.0,0.0,0.0,0.0,0.0,0.0,0.0,0.0,0.0,0.0,0.0,0.0,0.0,0.0,0.0,0.0,0.0,0.0,0.0,0.0,0.0,0.0,0.0,0.0,0.0,0.0,0.0,0.0,0.0,0.0,0.0,0.0,0.0,0.0,0.0,0.0,0.0,0.0,0.0,0.0,0.0,0.0,0.0,0.0,0.0,0.0,0.0,0.0,0.0,0.0,0.0,0.0,0.0,0.0,0.0,0.0,0.0,0.0,0.0,0.0,0.0,0.0,0.0,0.0,0.0,0.0,0.0,0.0,0.0,0.0,0.0,0.0,0.0,0.0,0.0,0.0,0.0,0.0,0.0,0.0,0.0,0.0,0.0,0.0,0.0,0.0,0.0,0.0,0.0,0.0,0.0,0.0,0.0,0.0,0.0,0.0,0.0,0.0,0.0,0.0,0.0,0.0,0.0,0.0,0.0,0.0,0.0,0.0,0.0,0.0,0.0,0.0,0.0,0.0,0.0,0.0,0.0,0.0,0.0,0.0,0.0,0.0,0.0,0.0,0.0,0.0,0.0,0.0,0.0,0.0,0.0,0.0,0.0,0.0,0.0,0.0,0.0,0.0,0.0,0.0,0.0,0.0,0.0,0.0,0.0,0.0,0.0,0.0,0.0,0.0,0.0,0.0,0.0,0.0,0.0,0.0,0.0,0.0,0.0,0.0,0.0,0.0,0.0,0.0,0.0,0.0,0.0,0.0,0.0,0.0,0.0,0.0,0.0,0.0,0.0,0.0,0.0,0.0,0.0,0.0,0.0,0.0,0.0,0.0,0.0,0.0,0.0,0.0,0.0,0.0,0.0,0.0,0.0,0.0,0.0,0.0,0.0,0.0,0.0,0.0,0.0,0.0,0.0,0.0,0.0,0.0,0.0,0.0,0.0,0.0,0.0,0.0,0.0,0.0,0.0,0.0,0.0,0.0,0.0,0.0,0.0,0.0,0.0,0.0,0.0,0.0,0.0,0.0,0.0,0.0,0.0,0.0,0.0,0.0,0.0,0.0,0.0,0.0,0.0,0.0,0.0,0.0,0.0,0.0,0.0,0.0,0.0,0.0,0.0,0.0,-0.0297,0.0,0.0,0.0,0.0,0.0,0.0,0.0,0.0,0.0,0.0,0.0,0.0,0.0,0.0,0.0,0.0,0.0,0.0,0.0,0.0,0.0,0.0,0.0,0.0,0.0,0.0,0.0,0.0,0.0,0.0,0.0,0.0,0.0,0.0,0.0,0.0,0.0,0.0,0.0,0.0,0.0,0.0,0.0,0.0,0.0,0.0,0.0,0.0,0.0,0.0,0.0,0.0,0.0,0.0,0.0,0.0,0.0,0.0,0.0,0.0,0.0,0.0,0.0,0.0,0.0,0.0,0.0,0.0,0.0,0.0,0.0,0.0,0.0,0.0,0.0,0.0,0.0,0.0,0.0,0.0,0.0,0.0,0.0,0.0,0.0,0.0,0.0,0.0,0.0,0.0,0.0,0.0,0.0,0.0,0.0,0.0,0.0,0.0,0.0,0.0,0.0,0.0,0.0,0.0,0.0,0.0,0.0,0.0,0.0,0.0,0.0,0.0,0.0,0.0,0.0,0.0,0.0303,0.0,0.0,0.0,0.0,0.0,0.0,0.0,0.0,0.0,0.0,0.0,0.0,0.0,0.0,0.0,0.0,0.0,0.0,0.0,0.0,0.0,0.0,0.0,0.0,0.0,0.0,0.0,0.0,0.0,0.0,0.0,0.0,0.0,0.0,0.0,0.0,0.0,0.0,0.0,0.0,0.0,0.0,0.0,0.0,0.0,0.0,0.0,0.0,0.0,0.0,0.0,0.0,0.0,0.0,0.0,0.0,0.0,0.0,0.0,0.0,0.0,0.0,0.0,0.0,0.0,0.0,0.0,0.0,0.0,0.0,0.0,0.0,0.0,0.0,0.0,0.0,0.0,0.0,0.0,0.0,0.0,0.0,0.0,0.0,0.0,0.0,0.0,0.0,0.0,0.0,0.0,0.0,0.0,0.0,0.0,0.0,0.0,0.0,0.0,0.0,0.0,0.0,0.0,0.0,0.0,0.0,0.0,0.0,-0.2485,-0.2288,-0.2435,-0.1971,-0.2316,-0.3111,-0.2179,-0.1058,-0.0105,-0.1131,0.0,0.0,0.0,0.0,0.0,0.0,0.0,0.0,0.0,0.0,0.0,0.0,0.0,0.0,0.0,0.0,0.0,0.0,0.0,0.0,0.0,0.0,0.0,0.0,0.0,0.0,0.0,0.0,0.0,0.0,0.0,0.0,0.0,0.0,0.0,0.0,0.0,0.0,0.8672,0.8678,0.8458,0.798,0.0,0.0,0.0,0.0,0.0,0.0,0.0,0.0,0.0,0.0,0.0,0.0,0.0,0.0,0.0,0.0,0.0,0.0,0.0,0.0,0.0,0.0,0.0,0.0,0.0,0.0,0.0,0.0,0.0,0.0,0.0,0.0,0.0,0.0,0.0,0.0,0.0,0.0,0.0,0.0,0.0,0.0,0.0,0.0,0.0312,0.1592,0.0,0.0,0.0,0.0,0.0,0.0,0.0,0.0,0.0,0.0,0.0,0.0,0.0,-0.2697,-0.4495,-0.5103,-0.495,-0.3987,-0.4306,-0.2979,-0.0358,-0.1315,-0.2258,-0.3408,-0.7006,0.0,-0.0222,-0.2572,0.0,0.0,0.0,0.0,0.0,0.0,0.0,0.0,0.0,0.0,0.0,0.0,0.0,0.0,0.0,0.0,0.0,0.0,0.0,0.0,0.0,0.0,0.0,0.0,0.0,0.0,0.0,0.0,0.0,0.0,0.0,0.0,0.0,0.0,0.0,0.0,0.9593,0.9453,0.9619,0.9907,0.9977,0.9946,0.9367,0.8324,0.6888,0.5546,0.0,0.0,0.0,0.0,0.0,0.0,0.0,0.0,0.0,0.0,0.0,0.0,0.0,0.0,0.0,0.0,0.0,0.0,0.0,0.0,0.0,0.0,0.0,0.0,0.0,0.0,0.0,0.0,0.0,0.0,0.0,0.0,0.0,0.0,0.0,0.0,0.0,0.0,0.0,-0.0626,0.0214,0.0747,-0.0108,-0.0756,0.0,0.0,0.0,0.0,0.0,0.0,0.0,0.0,0.0,-0.3498,-0.3928,-0.544,-0.8004,-0.8365,-0.8199,-0.7609,-0.7937,-0.7326,-0.5624,-0.235,-0.0983,-0.1711,-0.7306,-0.8158,-0.549,-0.5868,-0.5247,-0.4242,0.0,0.0,0.0,0.0,-0.3818,-0.4598,0.0,0.0,0.0,0.0,0.0,0.0,0.0,0.0,0.0,0.0,0.0,0.0,0.0,0.0,0.0,0.5244,0.0,0.0,0.0,0.0,0.0,0.0,0.0,0.0,0.0,0.0,0.0,0.0,0.9509,0.9695,1.0555,1.0826,1.0887,1.0772,1.0656,0.9701,0.8071,0.717,0.6386,0.0,0.0,0.0,0.0,0.0,0.0,0.0,0.0,0.0,0.0,0.0,0.0,0.0,0.0,0.0,0.0,0.0,0.0,0.0,0.0,0.0,0.0,0.0,0.0,0.0,0.0,0.0,0.0,0.0,0.0,0.0,0.0,0.0,0.0,0.0,0.0,0.0,0.0,-0.0641,0.0,0.0,-0.0222,-0.0559,0.0,0.0,0.0,0.0,0.0,0.0,-0.2802,-0.2053,-0.1866,-0.2399,-0.571,-0.8529,-1.0621,-1.0674,-1.0607,-1.0404,-1.0419,-1.0447,-1.0203,-0.4916,-0.2122,-0.1623,-0.7321,-0.9856,-0.9727,-0.8445,-0.7444,-0.6609,-0.6353,-0.5364,-0.4325,-0.5409,-0.6178,-0.6513,0.0,0.0,0.0,0.0,0.0,0.0,0.0,0.0,0.0,0.0,0.0,0.0,0.0,0.0,0.6799,0.7886,0.7165,0.6924,0.0,0.0,0.0,0.0,0.0,0.0,0.0,0.0,0.0,1.0329,1.0365,1.0575,1.0711,1.0873,1.0948,1.0934,1.0928,1.0779,1.0584,0.9362,0.8652,0.8436,0.0,0.0,0.0,0.0,0.0,0.0,0.0,0.0,0.0,0.0,0.0,0.0,0.0,0.0,0.0,0.0,0.0,0.0,0.0,0.0,0.0,0.0,0.0,0.0,0.0,0.0,0.0,0.0,0.0,0.0,0.0,0.0,0.0,0.0,0.0,0.0,0.0,0.0,0.0,0.0,-0.0,0.0,0.0,0.0,0.0,-0.1528,-0.1711,-0.2242,-0.3485,-0.2438,-0.1238,-0.0252,-0.6813,-1.0531,-1.0678,-1.0513,-1.0561,-1.0683,-1.0256,-1.0148,-1.0438,-0.9881,-0.776,-0.48,-0.825,-0.9856,-0.97,-0.9288,-0.8256,-0.6837,-0.7051,-0.63,-0.5306,-0.597,-0.6323,-0.6753,0.0,0.0,0.0,0.0,0.0,0.0,0.0,0.0,0.0,0.0,0.0,0.0,0.0,0.7317,0.8694,0.9076,0.9597,0.9811,0.9508,0.0,0.0,0.0,0.0,0.0,0.0,0.0,0.8961,1.063,1.0785,1.0907,1.0867,1.1016,1.1036,1.0948,1.0846,1.0853,1.0914,1.0101,0.9462,0.8995,0.763,0.5978,0.0,0.0,0.0,0.0,0.0,0.0,0.0,0.0,0.0,0.0,0.0,0.0,0.0,0.0,0.0,0.0,0.0,0.0,0.0,0.0,0.0,0.0,0.0,0.0,0.0,0.0,0.0,0.0,0.0,0.0,0.0,0.0,0.0,0.0,0.0,0.0,0.0,0.0,0.0,0.0,-0.1178,-0.2106,-0.164,0.0473,-0.0119,-0.0726,-0.1242,-0.0875,-0.0507,-0.0,-0.4794,-0.8388,-1.0724,-1.0629,-1.0622,-1.0717,-1.046,-1.0371,-1.0419,-1.0259,-0.9373,-0.8364,-0.94,-0.968,-0.9587,-0.9466,-0.9039,-0.8344,-0.8269,-0.7864,-0.7393,-0.7654,-0.7803,-0.7973,0.0,0.0,0.0,0.0,0.0,0.0,0.0,0.0,0.0,0.0,0.0,0.6714,0.7123,0.9086,1.049,1.0455,1.1259,1.1272,1.0423,0.0,0.0,0.0,0.0,0.0,0.0,0.8127,0.9337,1.0717,1.1016,1.1118,1.1023,1.1172,1.1185,1.109,1.0934,1.0928,1.0989,1.0541,1.0035,0.9526,0.8624,0.7442,0.6241,0.0,0.0,0.0,0.0,0.0,0.0,0.0,0.0,0.0,0.0,0.0,0.0,0.0,0.0,0.0,0.0,0.0,0.0,0.0,0.0,0.0,0.0,0.0,0.0,0.0,0.0,0.0,0.0,0.0,0.0,0.0,0.0,0.0,0.0,0.0,0.0,0.0,0.0,0.0,0.0,-0.147,-0.1351,0.0988,0.0496,0.0,0.0,0.0,-0.1172,-0.3583,-0.4766,-0.7048,-1.0652,-1.0744,-1.0717,-1.0717,-1.0514,-1.0419,-1.0412,-1.0127,-0.9998,-0.9992,-0.989,-0.9667,-0.958,-0.9632,-0.9462,-0.9218,-0.9069,-0.8859,-0.8648,-0.875,-0.8784,-0.8804,0.0,0.0,0.0,0.0,0.0,0.0,0.0,0.0,0.0,0.0,0.7033,0.8301,0.9336,1.0935,1.1898,1.2054,1.1918,1.126,0.9983,0.9098,0.0,0.0,0.0,0.0,0.8307,0.8931,0.9789,1.0744,1.1029,1.1172,1.1172,1.1321,1.1389,1.1382,1.1233,1.1165,1.1131,1.069,1.0507,1.046,0.9398,0.8854,0.8418,0.0,0.0,0.0,0.0,0.0,0.0,0.0,0.0,0.0,0.0,0.0,0.0,0.0,0.0,0.0,0.0,0.0,0.0,0.0,0.0,0.0,0.0,0.0,0.0,0.0,0.0,0.0,0.0,0.0,0.0,0.0,0.0,0.0,-0.0115,0.0,0.0,0.0,0.0,0.0,0.0,0.0,0.0,0.0,0.0,0.0,0.0,-0.0267,-0.3499,-1.043,-0.7397,-0.724,-1.0611,-1.0717,-1.0704,-1.0704,-1.0412,-1.0276,-1.0263,-0.9958,-0.9822,-0.9822,-0.9822,-0.9822,-0.9802,-0.9666,-0.9517,-0.9361,-0.9211,-0.9062,-0.894,-0.894,-0.894,-0.894,0.0,0.0,0.0,0.0,0.0,0.0,0.0,0.0,0.0,0.0,0.7054,0.8471,0.9602,1.1054,1.1938,1.2203,1.1891,1.1259,1.055,0.0,0.0,0.0,0.0,0.0,0.8961,0.9863,1.0571,1.1206,1.1287,1.1328,1.1328,1.1369,1.1389,1.1382,1.1233,1.1165,1.1151,1.0921,1.0758,1.0629,1.0163,0.9335,0.8324,0.0,0.0,0.0,0.0,0.0,0.0,0.0,0.0,0.0,0.0,0.0,0.0,0.0,0.0,0.0,0.0,0.0,0.0,0.0,0.0,0.0,0.0,0.0,0.0,0.0,0.0,0.0,0.0,0.0,0.0,0.0,-0.0914,-0.0353,-0.0,0.0,0.0,0.0,0.0,0.0,0.0,0.0,0.0,0.0,0.0,0.0,0.0,-0.4973,-0.8649,-1.0705,-0.9606,-0.9533,-1.0464,-1.0466,-1.0399,-1.0399,-1.0209,-1.0114,-1.0107,-0.991,-0.9822,-0.9822,-0.9822,-0.9761,-0.9666,-0.9625,-0.9456,-0.9211,-0.9171,-0.9062,-0.894,-0.894,-0.894,-0.894,0.0,0.0,0.0,0.0,0.0,0.0,0.0,0.0,0.0,0.0,0.75,0.8883,1.0277,1.1375,1.1999,1.2182,1.1636,1.0946,0.9912,0.0,0.0,0.0,0.0,0.9184,0.9701,1.0558,1.1131,1.1389,1.1457,1.1484,1.1484,1.1484,1.1484,1.1484,1.1328,1.126,1.1246,1.1036,1.09,1.0799,1.0568,1.0055,0.9299,0.902,0.8354,0.7589,0.7142,0.6884,0.6618,0.5678,0.0,0.0,0.0,0.0,0.0,0.0,0.0,0.0,0.0,0.0,0.0,0.0,0.0,0.0,0.0,0.0,0.0,0.0,0.0,0.0,0.0,0.0,0.0,0.0,-0.036,0.0,0.0,0.0,0.0,0.0,0.0,0.0,0.0,0.0,0.0,0.0,-0.2827,-0.4445,-0.4445,-0.6831,-0.8961,-1.0578,-1.0411,-1.0337,-1.039,-1.0358,-1.031,-1.0365,-1.0154,-1.0046,-1.0046,-0.989,-1.0179,-1.0778,-1.0778,-1.0726,-1.0636,-1.0688,-1.0083,0.0,0.0,0.0,0.0,0.0,-0.894,-0.894,0.0,0.0,0.0,0.0,0.0,0.0,0.0,0.0,0.0,0.0,0.0,0.9481,1.1016,1.1633,1.1993,1.2013,1.1299,1.0285,0.0,0.0,0.0,0.8667,0.936,0.9996,1.0595,1.1118,1.1409,1.1443,1.1579,1.1647,1.1647,1.166,1.1653,1.1613,1.1497,1.1423,1.1375,1.109,1.0962,1.0941,1.0812,1.0738,1.0663,1.0304,0.9836,0.9354,0.8611,0.8099,0.7616,0.7142,0.0,0.0,0.0,0.0,0.0,0.0,0.0,0.0,0.0,0.0,0.0,0.0,0.0,0.0,0.0,0.0,0.0,0.0,0.0,0.0,0.0,0.0,0.0,0.0,-0.0127,0.0,0.0,0.0,0.0,0.0,0.0,0.0,0.0,-0.0673,-0.1211,-0.1211,-0.674,-1.029,-1.0699,0.0,0.0,0.0,0.0,-1.0256,-1.0487,-1.0351,-1.0337,-1.0439,-1.0175,-1.0039,-1.0266,-1.0121,-1.0899,-1.2449,-1.2449,-1.2337,-1.22,-1.2031,-1.102,-0.9578,-0.9273,-0.9062,-0.894,-0.894,-0.9044,-0.9154,0.0,0.0,0.0,0.0,0.0,0.0,0.0,0.0,0.0,0.7142,0.7933,0.8958,1.0578,1.1233,1.1572,1.1694,1.0908,0.9907,0.0,0.0,0.8846,0.9574,1.0121,1.0618,1.1206,1.1328,1.1504,1.1748,1.1775,1.1789,1.1789,1.1918,1.185,1.1619,1.1708,1.1613,1.1382,1.1199,1.107,1.0968,1.0846,1.0571,1.0437,1.0493,1.0399,1.0169,0.9969,0.9862,0.9761,0.8611,0.7834,0.7115,0.5562,0.0,0.0,0.0,0.0,0.0,0.0,0.0,0.0,0.0,0.0,0.0,0.0,0.0,0.0,0.0,0.0,0.0,0.0,0.0,0.0,-0.1346,-0.0507,0.0,0.0,0.0,0.0,0.0,0.0,0.0,0.0,-0.5255,-0.8649,-0.8649,-0.7268,-0.767,-1.0538,-0.9933,-0.9902,-1.0578,-1.0548,-1.0466,-1.0493,-1.0351,-1.0229,-1.0134,0.0,0.0,-1.1784,-1.1752,-1.2577,-1.4123,-1.4123,-1.3407,-1.2209,-1.2175,-1.1129,-0.9578,-0.9273,-0.9062,-0.894,-0.894,-0.9699,-1.0672,0.0,0.0,0.0,0.0,0.0,0.0,0.0,0.0,0.0,0.0,0.7744,0.8634,0.9955,1.0303,1.0373,1.0452,0.9608,0.0,0.0,0.8797,0.9452,1.0207,1.0719,1.1199,1.1497,1.1579,1.1681,1.183,1.183,1.187,1.1945,1.1945,1.1864,1.1728,1.1728,1.164,1.1497,1.1341,1.1206,1.0946,0.8877,0.9041,1.0419,0.8651,0.9133,1.0534,1.0507,1.0493,1.033,0.9615,0.9081,0.8564,0.7785,0.5223,0.2774,0.0,0.0,0.0,0.0,0.0,0.0,0.0,0.0,0.0,0.0,0.0,0.0,0.0,0.0,0.0,0.0,0.0,-0.0747,-0.0763,-0.0392,0.0,0.0,0.0,0.0,0.0,0.0,-0.1356,-0.4986,-0.8649,-1.0699,-1.0692,-0.9018,-0.8867,-1.0645,-1.0683,-1.0622,-1.0622,-1.0466,-1.0419,-1.0493,-1.0276,-1.0168,-1.0161,-1.074,-1.1461,-1.2217,-1.3048,-1.4242,-1.5784,-1.5784,-1.4837,-1.3287,-1.1615,-1.0448,-0.9591,-0.9442,-0.9245,-0.9035,-0.8967,-0.9375,-1.0147,0.0,0.0,0.0,0.0,0.0,0.0,0.0,0.0,0.0,0.0,0.7736,0.8401,0.9298,0.94,0.9232,0.0,0.0,0.0,0.0,0.8995,0.9819,1.0785,1.1355,1.1674,1.1708,1.1816,1.1891,1.1918,1.1918,1.1986,1.2101,1.2006,1.1932,1.187,1.1755,1.1687,1.1647,1.147,1.1341,1.0968,0.7026,0.75,1.0328,0.6706,0.7484,1.0585,1.0683,1.0541,1.0358,1.0189,0.9651,0.8841,0.8337,0.6064,0.3584,0.3431,0.2733,0.0,0.0,0.0,0.0,0.0,0.0,0.0,0.0,0.8527,0.7232,0.1992,0.0461,0.0,0.0,0.0,0.0,0.0,0.0,0.0,0.0,0.0,-0.0547,-0.1916,-0.2032,-0.4308,-1.0155,-1.0672,-1.0652,-1.0658,-1.0738,-1.0717,-1.0744,-1.0616,-1.0534,-1.0534,-1.0426,-1.0419,-1.0534,-1.0297,-1.0349,-1.082,-1.1913,-1.2717,-1.3398,-1.461,-1.6164,-1.7599,-1.7185,-1.6324,-1.4898,-1.1631,-1.0229,-1.0123,-0.9737,-0.9456,-0.9225,-0.9076,-0.9335,-0.9987,0.0,0.0,0.0,0.0,0.0,0.0,0.0,0.0,0.0,0.0,0.0,0.0,0.0,0.0,0.0,0.0,0.0,0.0,0.8108,0.9548,1.0643,1.109,1.1558,1.187,1.2006,1.2026,1.2101,1.2237,1.2237,1.225,1.2271,1.2379,1.2284,1.2033,1.202,1.1938,1.1789,1.1511,1.1416,1.1275,0.7057,0.7552,1.034,0.6394,0.7248,1.032,1.0534,1.0249,0.9937,1.0195,0.8375,0.5823,0.5838,0.3318,0.0839,0.2317,0.2758,0.2169,-0.011,0.0753,0.2471,0.3698,0.3682,0.433,0.0,0.8647,0.7366,0.4528,0.1816,0.0,0.0,0.0,0.0,0.0,0.0,0.0,0.0,0.0,-0.2428,-0.8806,-0.9478,-0.9881,-1.0571,-1.0545,-1.0491,-1.0751,-1.0616,-1.0582,-1.0717,-1.0704,-1.0697,-1.0697,-1.0677,-1.0677,-1.0697,-1.0663,-1.1359,-1.2755,-1.2969,-1.449,-1.7276,-1.7399,-1.8398,-1.9745,-1.8141,-1.7302,-1.68,-1.3361,-1.196,-1.1815,-1.0249,-0.9591,-0.9537,-0.9388,-1.0932,-1.3256,0.0,0.0,0.0,0.0,0.0,0.0,0.0,0.0,0.0,0.0,0.0,0.0,0.0,0.0,0.0,0.0,0.0,0.0,0.8307,0.9703,1.0941,1.1653,1.2026,1.225,1.2318,1.2406,1.244,1.2413,1.2501,1.2542,1.2542,1.2515,1.2393,1.2189,1.2006,1.1891,1.1816,1.1613,1.1511,1.1308,0.7261,0.5109,0.4527,0.4784,0.6859,0.9431,0.9288,0.9094,0.0,0.0,0.9075,0.7575,0.3514,0.0967,-0.036,0.0348,0.035,0.0234,0.1219,0.2078,0.3405,0.6453,0.6362,0.6303,0.8858,0.8016,0.6189,0.4584,0.2004,0.0,0.0,0.0,0.0,0.0,0.0,0.0,0.0,0.0,-0.2685,-0.9788,-1.0571,-1.0578,-1.0652,-1.0585,-1.0551,-1.0731,-1.0663,-1.0656,-1.0717,-1.0717,-1.0717,-1.0717,-1.0717,-1.0717,-1.0717,-1.0629,-1.1453,-1.3165,-1.3943,-1.5587,-1.7982,-1.8863,-1.9607,-2.0106,-1.8362,-1.7694,-1.7427,-1.4882,-1.322,-1.2352,-1.1463,-1.0509,-0.9591,-0.9435,-1.0133,-1.146,0.0,0.0,0.0,0.0,0.0,0.0,0.0,0.0,0.0,0.0,0.0,0.0,0.0,0.0,0.0,0.0,0.0,0.0,0.0,0.9735,1.0906,1.1904,1.2298,1.2522,1.2562,1.2712,1.2739,1.263,1.2739,1.2793,1.2793,1.2678,1.2549,1.24,1.2135,1.1993,1.1945,1.1803,1.1681,1.1279,0.7385,0.4053,0.1786,0.397,0.6293,0.8574,0.8309,0.8095,0.0,0.0,0.8395,0.7554,0.2635,0.012,-0.0966,-0.094,-0.1299,-0.1184,0.1899,0.289,0.393,0.7382,0.8028,0.802,0.9321,0.8273,0.6454,0.464,0.1935,0.0,0.0,0.0,0.0,0.0,0.0,0.0,0.0,0.0,-0.1867,-0.7149,-0.9228,-1.0437,-1.0558,-1.0656,-1.0649,-1.0717,-1.0683,-1.0677,-1.0717,-1.0717,-1.0717,-1.0717,-1.0717,-1.0717,-1.0717,-1.0609,-1.1713,-1.3877,-1.5003,-1.6691,-1.8828,-1.9963,-2.0468,-2.0345,-1.9136,-1.8717,-1.857,-1.6508,-1.4923,-1.3807,-1.2647,-1.1423,-1.0242,-0.9662,-0.9828,-1.0499,0.0,0.0,0.0,0.0,0.0,0.0,0.0,0.0,0.0,0.0,0.0,0.0,0.0,0.0,0.0,0.0,0.0,0.0,0.0,0.9462,1.0571,1.1599,1.2189,1.2569,1.2718,1.2874,1.2949,1.2949,1.2949,1.2956,1.2956,1.2949,1.2868,1.2712,1.2556,1.2406,1.2264,1.2115,1.1831,1.1257,0.743,0.5564,0.5131,0.4729,0.5839,0.7732,0.8007,0.0,0.0,0.0,0.4882,0.3549,0.378,0.1601,-0.0984,-0.0969,-0.1432,-0.1404,0.1128,0.2596,0.4011,0.617,0.8078,0.9496,0.993,0.9803,0.8799,0.5487,0.2257,0.0,0.0,0.0,0.0,0.0,0.0,0.0,0.0,0.0,-0.0132,-0.0263,-0.6247,-1.031,-1.0306,-1.0277,-1.0412,-1.0697,-1.0582,-1.0561,-1.0711,-1.0717,-1.0717,-1.0717,-1.0717,-1.0717,-1.0717,-1.0717,-1.2405,-1.5774,-1.5893,-1.7708,-2.0956,-2.1082,-2.1082,-2.1069,-2.0788,-2.0655,-2.0491,-1.83,-1.7349,-1.6954,-1.3481,-1.2209,-1.1968,-1.0407,-1.0658,-1.2181,0.0,0.0,0.0,0.0,0.0,0.0,0.0,0.0,0.0,0.0,0.0,0.0,0.0,0.0,0.0,0.0,0.0,0.0,0.0,0.9653,1.0605,1.1294,1.2074,1.2481,1.244,1.2874,1.3057,1.2963,1.3159,1.3152,1.2963,1.2963,1.2827,1.2569,1.2427,1.2332,1.2277,1.202,1.1952,1.1837,1.0084,0.6363,0.2111,0.5386,0.636,0.6202,0.0,0.0,0.0,0.0,0.0,0.0,0.259,0.1899,0.0839,-0.0,-0.1066,-0.1271,0.1251,0.3558,0.5722,0.8066,0.9265,1.0046,1.0189,1.031,1.0117,0.8972,0.4039,0.0,0.0,0.0,0.0,0.0,0.0,0.0,0.0,0.0,0.0,0.0,-0.2095,-0.5236,-0.9789,-1.0507,-1.0658,-1.0731,-1.0683,-1.0663,-1.0717,-1.0717,-1.0717,-1.0717,-1.0717,-1.0717,-1.0717,-1.0717,-1.1894,-1.4232,-1.656,-1.8244,-1.9419,-2.0589,-2.1109,-2.1096,-2.1002,-2.0855,-2.0641,-1.962,-1.8592,-1.7561,-1.6056,-1.4799,-1.3956,-1.3222,-1.3241,-1.3788,0.0,0.0,0.0,0.0,0.0,0.0,0.0,0.0,0.0,0.0,0.0,0.0,0.0,0.0,0.0,0.0,0.0,0.7415,0.0,0.0,1.0127,1.0871,1.1564,1.1962,1.1884,1.2159,1.2387,1.2245,1.2648,1.2695,1.2403,1.2615,1.2637,1.2338,1.225,1.2149,1.204,1.1837,1.1643,1.1225,1.0728,0.7454,0.3075,0.551,0.5972,0.0,0.0,0.0,0.0,0.0,0.0,0.0,0.2132,0.2021,0.1677,0.0718,-0.0476,-0.0822,0.1608,0.41,0.6635,0.9131,1.0066,1.0385,1.0507,0.9621,0.9211,1.0466,0.4606,-0.0632,-0.0762,-0.0377,0.0125,0.0257,0.0129,0.0,0.0,0.0,0.0,0.0,0.0,-0.1701,-0.6197,-0.8301,-0.967,-1.0611,-1.0731,-1.0717,-1.0717,-1.0717,-1.0717,-1.0717,-1.0717,-1.0717,-1.0717,-1.0717,-1.163,-1.3325,-1.6172,-1.7859,-1.8512,-1.9674,-2.0462,-2.1109,-2.1109,-2.1002,-2.0815,-2.0508,-1.9698,-1.8569,-1.7506,-1.6544,-1.5632,-1.4888,-1.4599,-1.4718,0.0,0.0,0.0,0.0,0.0,0.0,0.0,0.0,0.0,0.0,0.0,0.0,0.0,0.0,0.0,0.0,0.0,0.0,0.0,0.0,0.0,1.032,1.0693,1.0948,1.1097,1.1008,1.0947,1.0779,1.1366,1.1358,1.1169,1.1919,1.2291,1.2013,1.2013,1.171,1.1449,1.1442,1.0792,0.9688,0.9253,0.8413,0.7369,0.524,0.0,0.0,0.0,0.0,0.0,0.0,0.2122,0.2219,0.2585,0.2214,0.1468,0.119,0.0241,-0.0122,0.221,0.4567,0.705,0.9443,1.0283,1.05,1.0658,0.8133,0.6506,0.9431,0.3779,-0.1881,-0.1981,-0.0976,0.0121,0.0741,0.0371,0.0125,0.0,0.0,0.0,0.0,0.0,0.0,0.0,-0.3955,-0.7558,-1.0206,-1.0598,-1.0724,-1.0717,-1.0717,-1.0717,-1.0717,-1.0724,-1.0731,-1.0717,-1.0717,-1.1505,-1.3193,-1.4874,-1.6689,-1.8244,-1.8384,-1.9291,-2.0982,-2.0982,-2.0969,-2.1069,-2.0775,-2.0494,-2.0079,-1.8166,-1.7316,-1.6985,-1.5451,-1.4857,-1.5095,0.0,0.0,0.0,0.0,0.0,0.0,0.0,0.0,0.0,0.0,0.0,0.0,0.0,0.0,0.0,0.0,0.0,0.0,0.0,0.0,0.0,0.0,0.0,0.0,0.0,0.0,0.0,1.0773,1.1018,1.0964,1.0173,1.0498,1.0275,0.9977,0.9977,0.9795,0.9445,0.9354,0.8986,0.8666,0.0,0.7179,0.6425,0.0,0.0,0.0,0.0,0.0,0.0,0.2347,0.2946,0.3749,0.4535,0.3804,0.2506,0.1939,0.0851,0.0486,0.3793,0.6897,0.9391,1.023,1.0582,1.0658,1.0692,1.0062,0.7812,0.2396,-0.0492,-0.1932,-0.197,-0.1707,-0.11,0.0,0.0894,0.1032,0.0133,0.0,0.0,0.0,0.0,0.0,0.0,-0.1069,-0.3072,-0.6435,-0.9262,-1.0738,-1.0724,-1.0717,-1.0717,-1.0717,-1.0833,-1.0833,-1.0724,-1.0717,-1.0982,-1.1372,-1.3193,-1.4232,-1.4623,-1.5913,-1.7474,-1.9152,-1.9152,-1.9815,-2.0762,-2.0468,-2.0307,-2.0053,-1.9194,-1.8959,-1.9076,-1.8601,-1.847,-1.8508,0.0,0.0,0.0,0.0,0.0,0.0,0.0,0.0,0.0,0.0,0.0,0.0,0.0,0.0,0.0,0.0,0.0,0.0,0.0,0.0,0.0,0.0,0.0,0.0,0.0,0.0,0.0,0.0,0.0,0.0,0.9058,0.952,0.9472,0.9215,0.9082,0.8811,0.8403,0.829,0.0,0.0,0.0,0.0,0.0,0.0,0.0,0.0,0.0,0.0,0.3341,0.3372,0.4099,0.5054,0.532,0.4747,0.3927,0.3103,0.1866,0.1495,0.4636,0.7938,1.046,1.0487,1.0644,1.0234,0.8291,0.7875,0.6093,-0.0614,-0.1932,-0.2032,-0.2175,-0.2032,-0.1557,-0.0499,0.0376,0.1016,0.0789,0.0399,0.0,0.0,0.0,0.0,0.0,-0.2823,-0.4836,-0.5366,-0.8723,-1.0744,-1.0724,-1.0717,-1.0717,-1.0717,-1.0806,-1.0806,-1.0717,-1.0717,-1.0717,-1.0717,-1.163,-1.2545,-1.3325,-1.4362,-1.5654,-1.7345,-1.7345,-1.8291,-1.9688,-1.941,-1.9601,-2.0187,-1.9733,-1.9653,-1.98,-1.98,-1.988,-2.0013,0.0,0.0,0.0,0.0,0.0,0.0,0.0,0.0,0.0,0.0,0.688,0.0,0.0,0.0,0.0,0.0,0.0,0.0,0.0,0.0,0.0,0.0,0.0,0.0,0.0,0.0,0.0,0.0,0.0,0.0,0.0,0.0,0.0,0.0,0.0,0.0,0.0,0.0,0.0,0.0,0.0,0.0,0.0,0.0,0.0,0.0,0.0,0.0,0.4545,0.4588,0.5471,0.6395,0.585,0.5579,0.5245,0.4823,0.3324,0.2317,0.4693,0.8023,1.0733,1.0541,1.0651,0.9645,0.5434,0.4006,0.2592,-0.1069,-0.1903,-0.2032,-0.2481,-0.2214,-0.1634,-0.0845,-0.0364,0.0369,0.142,0.0655,0.0,0.0,0.0,-0.0404,-0.1346,-0.7013,-0.9454,-0.6305,-0.8995,-1.0744,-1.0724,-1.0717,-1.0738,-1.0778,-1.0744,-1.0738,-1.0778,-1.0738,-1.0717,-1.0717,-1.0717,-1.1505,-1.2931,-1.2931,-1.397,-1.5524,-1.5524,-1.6689,-1.8489,-1.823,-1.9001,-2.0267,-1.9973,-1.9853,-1.9867,-1.9907,-2.008,-2.0294,0.0,0.0,0.0,0.0,0.0,0.0,0.0,0.0,0.0,0.0,0.7142,0.6913,0.0,0.0,0.0,0.0,0.0,0.0,0.0,0.0,0.0,0.0,0.0,0.0,0.0,0.8527,0.8418,0.7708,0.828,0.0,0.0,0.0,0.0,0.0,0.0,0.0,0.0,0.0,0.0,0.0,0.0,0.0,0.0,0.0,0.0,0.0,0.0,0.3522,0.0,0.0,0.6598,0.7834,0.85,0.6817,0.5233,0.7938,0.4769,0.1034,0.442,0.7949,1.0645,1.0724,1.0692,0.9838,0.671,0.2447,-0.0714,-0.0944,-0.1402,-0.1979,-0.2,-0.1999,-0.1668,-0.0996,-0.0372,0.0126,0.0265,0.0133,0.0,0.0,0.0,-0.2289,-0.8241,-1.0015,-1.0411,-0.9813,-1.0345,-1.0744,-1.0724,-1.0717,-1.0833,-1.1077,-1.0846,-1.0839,-1.1084,-1.0839,-1.0717,-1.0717,-1.0717,-1.085,-1.1108,-1.1108,-1.215,-1.3709,-1.3709,0.0,-1.8489,-1.823,-1.9113,-2.0575,-2.0281,-2.016,-2.0187,-2.0428,-2.0561,-2.0628,0.0,0.0,0.0,0.0,0.0,0.0,0.0,0.8154,0.7826,0.7744,0.7541,0.7088,0.6509,0.6641,0.6686,0.0,0.0,0.0,0.0,0.0,0.0,0.0,0.0,0.0,0.0,0.7811,0.7767,0.7408,0.0,0.7581,0.7365,0.7365,0.7111,0.6843,0.6508,0.6208,0.5704,0.0,0.0,0.0,0.0,0.0,0.0,0.0,0.0,0.0,0.0,0.0,0.0,0.0,0.5945,0.8141,0.9262,0.8787,0.7321,0.5246,0.2493,0.0392,0.2117,0.656,1.0283,0.8467,0.9371,0.9666,0.5511,0.1703,-0.095,-0.1051,-0.1513,-0.198,-0.2095,-0.1992,-0.1782,-0.1214,-0.0484,0.0,0.0,0.0,0.0,0.0,-0.335,-0.6879,-1.043,-1.0678,-1.0652,-1.0758,-1.0744,-1.0765,-1.0833,-1.0907,-1.0948,-1.0934,-1.0873,-1.0867,-1.0934,-1.0792,-1.0717,-1.0717,-1.0717,-1.0717,-1.0717,-1.0717,-1.1108,-1.1894,-1.1894,-1.3917,-1.6892,-1.6772,-1.8179,-2.0428,-2.0294,-2.0334,-2.0481,-2.0628,-2.0775,-2.0922,0.0,0.0,0.0,0.0,0.0,0.0,0.0,0.8218,0.7986,0.8193,0.7819,0.7316,0.6847,0.6748,0.6781,0.0,0.0,0.0,0.0,0.0,0.0,0.0,0.0,0.0,0.0,0.0,0.0,0.7032,0.7188,0.0,0.0,0.0,0.0,0.0,0.6443,0.6066,0.5612,0.5293,0.0,0.0,0.0,0.3297,0.0,0.0,0.0,0.0,0.0,0.3717,0.4182,0.3344,0.4695,0.6773,0.7656,0.9166,0.9305,0.2116,0.0,0.0,0.0,0.4158,0.8097,0.6857,0.7515,0.7316,0.3098,0.085,-0.0595,-0.1151,-0.1619,-0.1976,-0.2179,-0.1966,-0.1754,-0.1412,-0.0822,-0.0239,-0.0,0.0,0.0,0.0,-0.6281,-1.0705,-1.0699,-1.0652,-1.0751,-1.0744,-1.0758,-1.0806,-1.0894,-1.1036,-1.1009,-1.0778,-1.0887,-1.0894,-1.0772,-1.0738,-1.0717,-1.0717,-1.0717,-1.0717,-1.0717,-1.0717,-1.0717,-1.0717,-1.0717,-1.2596,-1.5533,-1.5533,-1.7451,-2.0414,-2.0414,-2.0561,-2.0775,-2.0775,-2.0909,-2.1109,0.0,0.0,0.0,0.0,0.0,0.0,0.0,0.7958,0.7943,0.8177,0.7801,0.7532,0.7268,0.7268,0.7041,0.0,0.0,0.0,0.0,0.0,0.0,0.0,0.0,0.0,0.0,0.0,0.0,0.6469,0.6998,0.0,0.0,0.0,0.0,0.0,0.0,0.5817,0.5719,0.5201,0.0,0.0,0.0,0.0,0.0,0.0,0.0,0.0,0.0,0.3171,0.2859,0.3416,0.3258,0.2719,0.193,0.59,0.9274,0.2149,0.0,0.0,0.0,0.0532,0.2423,0.8644,0.5544,0.0769,-0.0249,-0.1086,-0.1521,-0.1018,-0.1351,-0.1802,-0.18,-0.1801,-0.1821,-0.1759,-0.163,-0.1296,-0.0125,0.0,0.0,0.0,-0.6281,-1.0699,-1.0678,-1.0645,-1.0744,-1.0724,-1.0853,-1.0873,-1.0751,-1.0887,-1.0955,-1.0928,-1.0941,-1.0941,-1.0928,-1.0792,-1.0717,-1.0717,-1.0717,-1.0717,-1.0717,-1.0717,-1.0717,-1.0717,-1.0717,-1.2668,0.0,-1.5883,-1.7942,-2.1029,-2.1029,-2.1042,-2.1069,-2.1069,-2.1082,-2.1109,0.0,0.0,0.0,0.0,0.0,0.0,0.8098,0.7919,0.7889,0.8045,0.7989,0.7801,0.7532,0.7436,0.7181,0.6778,0.0,0.0,0.0,0.0,0.0,0.0,0.0,0.0,0.0,0.0,0.6457,0.6333,0.6531,0.0,0.0,0.0,0.0,0.0,0.0,0.5564,0.5318,0.5129,0.0,0.0,0.0,0.0,0.0,0.0,0.0,0.0,0.0,0.0,0.3142,0.3471,0.3186,0.2637,0.1961,0.3482,0.4604,0.0995,0.0,0.0,0.0,0.0,0.0673,0.3499,0.2621,0.076,-0.062,-0.0957,-0.1154,-0.1353,-0.1683,-0.1795,-0.1795,-0.1795,-0.169,-0.137,-0.091,-0.0806,-0.1084,-0.0485,0.0,0.0,-0.6288,-1.0767,-1.0658,-1.0638,-1.0744,-1.0724,-1.0778,-1.0785,-1.0724,-1.0948,-1.0995,-1.0819,-1.09,-1.0907,-1.0812,-1.0751,-1.0717,-1.0717,-1.0717,-1.0717,-1.0717,-1.0717,-1.0717,-1.0717,-1.0717,-1.2612,0.0,-1.5863,-1.7896,-2.0869,-2.1042,-2.1109,-2.1109,-2.1109,-2.1109,-2.1109,0.0,0.0,0.0,0.0,0.0,0.8443,0.8089,0.8006,0.7974,0.8029,0.8139,0.806,0.755,0.7386,0.7193,0.681,0.66,0.0,0.0,0.0,0.0,0.0,0.0,0.0,0.0,0.0,0.6072,0.6159,0.6198,0.6274,0.0,0.0,0.5965,0.5532,0.0,0.0,0.0,0.0,0.0,0.0,0.0,0.0,0.0,0.0,0.0,0.0,0.0,0.0,0.0,0.0,0.0,0.2807,0.258,0.0,0.0,0.0725,0.0247,0.0,0.0,0.0,0.0,0.0,0.065,0.088,-0.037,-0.0831,-0.1144,-0.1688,-0.1795,-0.1795,-0.1795,-0.1795,-0.157,0.0,-0.0336,-0.0453,-0.1166,-0.0708,-0.0242,-0.0254,-0.5394,-0.9145,-0.9763,-1.0332,-1.0738,-1.0724,-1.0717,-1.0717,-1.0717,-1.0921,-1.0934,-1.0724,-1.0867,-1.0873,-1.0724,-1.0717,-1.0717,-1.0717,-1.0717,-1.0717,-1.0717,-1.0717,-1.0717,-1.0717,-1.0717,-1.2604,0.0,-1.5853,-1.7885,-2.0828,-2.1029,-2.1109,-2.1109,-2.1109,-2.1109,-2.1109,0.0,0.0,0.0,0.0,0.0,0.0,0.8128,0.8064,0.8081,0.8268,0.8292,0.8058,0.7469,0.7222,0.6893,0.6359,0.639,0.0,0.0,0.0,0.0,0.0,0.0,0.0,0.0,0.0,0.5904,0.5909,0.6029,0.6149,0.6268,0.5781,0.5541,0.5532,0.0,0.0,0.0,0.0,0.0,0.0,0.0,0.0,0.0,0.0,0.0,0.0,0.0,0.0,0.0,0.0,0.0,0.0,0.0,0.0,0.0,0.0,0.0942,0.0,0.0,0.0,0.0,0.0,0.0,0.0,-0.0,-0.0942,-0.1832,-0.1801,-0.1795,-0.1795,-0.1795,-0.1795,-0.1458,0.0,-0.0449,-0.0677,-0.0,-0.0355,-0.0728,-0.0986,-0.3038,-0.5307,-0.7626,-0.9582,-1.0717,-1.0717,-1.0717,-1.0717,-1.0717,-1.0724,-1.0724,-1.0717,-1.0867,-1.0873,-1.0724,-1.0717,-1.0717,-1.0717,-1.0717,-1.0717,-1.0717,-1.0717,-1.0717,-1.0717,-1.0717,-1.2668,0.0,-1.5913,-1.7988,-2.1109,-2.1109,-2.1109,-2.1109,-2.1109,-2.1109,-2.1109,0.0,0.0,0.0,0.0,0.0,0.0,0.0,0.8064,0.7998,0.8013,0.8037,0.7889,0.7469,0.6972,0.6576,0.6352,0.6139,0.0,0.0,0.0,0.0,0.0,0.0,0.0,0.0,0.0,0.5822,0.5904,0.5942,0.593,0.5862,0.5671,0.5456,0.5038,0.4793,0.4498,0.0,0.0,0.0,0.0,0.0,0.0,0.2595,0.0,0.0,0.0,0.0,0.0,0.0,0.0,0.0,0.0,0.0,0.0,0.0,0.0,0.0,0.1074,0.0244,0.0,0.0252,0.1009,0.0247,-0.0601,-0.0476,-0.081,-0.1355,-0.1685,-0.1795,-0.1795,-0.1795,-0.1795,-0.1683,-0.1346,-0.068,0.0115,0.1167,0.0472,-0.0121,-0.0253,-0.3126,-0.6366,-0.9474,-1.0306,-1.0717,-1.0717,-1.0717,-1.0717,-1.0717,-1.0717,-1.0717,-1.0717,-1.0765,-1.0772,-1.0717,-1.0717,-1.0717,-1.0717,-1.0717,-1.0717,-1.0717,-1.0717,-1.0717,-1.0717,-1.0717,-1.2676,-1.5913,-1.5913,-1.7988,-2.1109,-2.1109,-2.1109,-2.1109,-2.1109,-2.1109,-2.1109,0.0,0.0,0.0,0.0,0.0,0.0,0.0,0.7965,0.7877,0.7741,0.7757,0.7635,0.7208,0.6725,0.6356,0.6035,0.5867,0.0,0.0,0.0,0.0,0.0,0.0,0.0,0.0,0.5708,0.5768,0.5839,0.5839,0.5807,0.5738,0.5551,0.5256,0.486,0.4508,0.4227,0.0,0.0,0.0,0.0,0.0,0.0,0.2674,0.0,0.0,0.0,0.0,0.0,0.0,0.0,0.0,0.0,0.0,0.0,0.0,0.0,0.1805,0.1615,0.0831,0.0484,0.049,0.1225,0.0841,-0.0,-0.0468,-0.0915,-0.1234,-0.1458,-0.0897,-0.0673,-0.1346,-0.1121,-0.1009,-0.1346,-0.0679,0.0229,0.0924,0.0585,-0.012,-0.1524,-0.4449,-0.7455,-1.0399,-1.0704,-1.0717,-1.0717,-1.0717,-1.0717,-1.0717,-1.0717,-1.0717,-1.0717,-1.0717,-1.0717,-1.0717,-1.0717,-1.0717,-1.0717,-1.0717,-1.0717,-1.0717,-1.0717,-1.0717,-1.0717,-1.0717,-1.2676,0.0,-1.5913,-1.7988,-2.1109,-2.1109,-2.1109,-2.1109,-2.1109,-2.1109,-2.1109,0.0,0.0,0.0,0.0,0.0,0.0,0.0,0.7894,0.7693,0.7445,0.743,0.719,0.6798,0.6428,0.6106,0.5634,0.0,0.0,0.0,0.0,0.0,0.0,0.0,0.0,0.5551,0.5665,0.5725,0.573,0.5735,0.5784,0.5893,0.5339,0.5023,0.4922,0.4366,0.4007,0.0,0.0,0.0,0.0,0.0,0.0,0.0,0.0,0.0,0.0,0.0,0.0,0.0,0.0,0.0,0.0,0.0,0.0,0.0,0.0,0.0,0.0,0.0,0.1423,0.0961,0.0961,0.1424,0.1404,-0.023,-0.1248,0.0,-0.1121,0.0449,0.1121,-0.0561,-0.0,0.0336,-0.0673,-0.0336,-0.0112,-0.0449,0.0232,-0.0481,-0.3758,-0.6468,-0.8699,-1.0397,-1.0643,-1.0717,-1.0717,-1.0717,-1.0717,-1.0717,-1.0717,-1.0717,-1.0717,-1.0717,-1.0717,-1.0717,-1.0717,-1.0717,-1.0717,-1.0717,-1.0717,-1.0717,-1.0717,-1.0717,-1.0717,-1.0717,-1.2676,-1.5654,-1.5654,-1.7731,-2.0716,-2.0716,-2.0843,-2.0982,-2.0982,-2.0982,-2.1109,0.0,0.0,0.0,0.0,0.0,0.0,0.0,0.0,0.0,0.0,0.7354,0.7031,0.6631,0.6107,0.5634,0.0,0.0,0.0,0.0,0.0,0.0,0.0,0.0,0.0,0.5803,0.5832,0.59,0.5997,0.5819,0.5746,0.5773,0.523,0.497,0.4727,0.407,0.3532,0.0,0.0,0.0,0.0,0.0,0.0,0.0,0.0,0.0,0.0,0.181,0.1706,0.0,0.0,0.0,0.0,0.0,0.0,0.0,0.0,0.1731,0.1755,0.1776,0.0,0.1598,0.1598,0.1708,0.1474,0.0,0.0,0.0,0.0,0.0,-0.0112,-0.0561,0.0561,0.1121,-0.0,0.0336,0.0563,0.0,0.0961,0.0873,-0.1507,-0.6662,-0.9745,-0.9068,-1.0103,-1.0717,-1.0717,-1.0717,-1.0717,-1.0717,-1.0717,-1.0717,-1.0717,-1.0717,-1.0717,-1.0717,-1.0717,-1.0717,-1.0717,-1.0717,-1.0717,-1.0717,-1.0717,-1.0717,-1.0717,-1.0717,-1.1894,-1.397,-1.397,-1.5135,-1.7076,-1.7076,-1.7988,-1.9152,-1.9152,-1.9941,-2.1109,0.0,0.0,0.0,0.0,0.0,0.0,0.0,0.0,0.0,0.0,0.0,0.6613,0.6291,0.5755,0.0,0.0,0.0,0.0,0.0,0.0,0.0,0.0,0.0,0.5496,0.5544,0.5605,0.5695,0.5824,0.5648,0.5499,0.5369,0.5013,0.4656,0.4125,0.3409,0.2872,0.0,0.0,0.0,0.0,0.2291,0.0,0.0,0.0,0.0,0.0,0.1695,0.1595,0.0,0.1813,0.1819,0.162,0.0,0.0,0.0,0.0,0.1696,0.1715,0.1742,0.1772,0.1798,0.1812,0.1805,0.1573,0.0566,0.0,0.0,0.0,0.0,-0.0785,-0.0673,0.0223,0.0778,0.0112,0.0223,0.0449,0.0116,0.0607,-0.0125,-0.3169,-0.6532,-0.8915,-0.9407,-1.0274,-1.0717,-1.0717,-1.0717,-1.0717,-1.0717,-1.0717,-1.0717,-1.0717,-1.0717,-1.0717,-1.0717,-1.0717,-1.0717,-1.0717,-1.0717,-1.0717,-1.0717,-1.0717,-1.0717,-1.0717,-1.0717,-1.163,-1.3325,-1.3325,-1.4362,-1.5913,-1.5913,-1.6431,-1.7345,-1.7345,-1.8372,-1.9941,0.0,0.0,0.0,0.0,0.0,0.0,0.0,0.0,0.0,0.0,0.0,0.0,0.0,0.0,0.0,0.0,0.0,0.0,0.0,0.0,0.0,0.0,0.5586,0.5411,0.5267,0.5372,0.5409,0.5464,0.5464,0.5262,0.4924,0.4656,0.4214,0.3499,0.2782,0.2424,0.0,0.0,0.0,0.2218,0.2179,0.0,0.0,0.0,0.0,0.0,0.0,0.0,0.0,0.1615,0.1617,0.1617,0.1617,0.0,0.0,0.0,0.0,0.0,0.1616,0.1655,0.1801,0.1941,0.1928,0.1688,0.0914,0.0,0.0,0.0,0.0,-0.1233,-0.1006,-0.0442,-0.011,-0.0223,-0.0111,-0.0112,0.0118,0.0243,-0.1375,-0.577,-0.6658,-0.7807,-1.0141,-1.0571,-1.0717,-1.0717,-1.0717,-1.0717,-1.0717,-1.0717,-1.0717,-1.0717,-1.0717,-1.0717,-1.0717,-1.0717,-1.0717,-1.0717,-1.0717,-1.0717,-1.0717,-1.0717,-1.0717,-1.0717,-1.0717,0.0,-1.2931,-1.2931,-1.3709,-1.5135,-1.5135,-1.5265,-1.5524,-1.5524,-1.656,-1.8116,0.0,0.0,0.0,0.0,0.0,0.0,0.0,0.0,0.0,0.0,0.0,0.0,0.0,0.0,0.0,0.0,0.0,0.0,0.0,0.0,0.0,0.6183,0.5652,0.5398,0.5428,0.5451,0.5493,0.5464,0.5287,0.5087,0.475,0.421,0.3674,0.2964,0.2513,0.2424,0.2785,0.2424,0.227,0.2222,0.1938,0.0,0.0,0.0,0.0,0.0,0.0,0.0,0.0,0.1609,0.1617,0.1617,0.1617,0.0,0.0,0.0,0.0,0.0,0.1046,0.1409,0.1909,0.2478,0.2586,0.2358,0.1126,0.0,0.0,0.0,0.0,-0.1899,-0.2313,-0.133,-0.0668,-0.0989,-0.0898,-0.058,-0.0,0.0996,-0.0127,-0.5013,-0.8191,-0.9763,-0.8961,-0.9977,-1.0717,-1.0717,-1.0717,-1.0717,-1.0717,-1.0717,-1.0717,-1.0717,-1.0717,-1.0717,-1.0717,-1.0717,-1.0717,-1.0717,-1.0717,-1.0717,-1.0717,-1.0717,-1.0717,-1.0717,0.0,-1.085,-1.1108,-1.1108,-1.124,-1.1505,-1.1505,-1.2413,-1.3709,-1.3709,-1.4754,-1.656,0.0,0.0,0.0,0.0,0.0,0.0,0.0,0.0,0.0,0.0,0.0,0.0,0.0,0.0,0.0,0.0,0.0,0.0,0.0,0.0,0.6416,0.6338,0.5867,0.5581,0.5568,0.5337,0.5294,0.5368,0.5199,0.4769,0.43,0.3674,0.3141,0.2693,0.2424,0.2424,0.2513,0.2334,0.2075,0.2003,0.0,0.0,0.0,0.0,0.0,0.0,0.0,0.0,0.0,0.0,0.1617,0.1617,0.1617,0.0,0.0,0.0,0.0,0.0,0.1347,0.148,0.1839,0.1763,0.2451,0.2912,0.0,0.0,0.0,0.0,0.0,-0.0662,-0.1204,-0.1219,-0.1347,-0.1461,0.0233,0.1205,0.0123,0.0504,0.0257,-0.1688,-0.7126,-1.0406,-0.9707,-1.0287,-1.0717,-1.0717,-1.0717,-1.0717,-1.0717,-1.0717,-1.0717,-1.0717,-1.0717,-1.0717,-1.0717,-1.0717,-1.0717,-1.0717,-1.0717,-1.0717,-1.0717,-1.0717,-1.0717,-1.0717,0.0,-1.0717,-1.0717,-1.0717,-1.0717,-1.0717,-1.0717,-1.124,-1.2025,-1.2931,-1.384,-1.4744,0.0,0.0,0.0,0.0,0.0,0.0,0.0,0.0,0.0,0.0,0.0,0.0,0.0,0.0,0.0,0.0,0.0,0.0,0.0,0.0,0.6409,0.6183,0.5944,0.5712,0.5556,0.5246,0.5116,0.5079,0.5022,0.4543,0.3824,0.3132,0.2688,0.2586,0.2509,0.2334,0.2244,0.2155,0.2063,0.1884,0.0,0.0,0.0,0.0,0.0,0.0,0.0,0.0,0.0,0.0,0.0,0.0,0.0,0.0,0.0,0.1422,0.1424,0.1428,0.1553,0.1888,0.2017,0.0969,0.1647,0.0,0.0,0.0,0.0,0.0,0.0,0.1105,0.055,-0.0558,-0.1363,-0.1159,0.084,0.1849,0.0249,0.0,0.013,0.0659,-0.5284,-0.9852,-1.0611,-1.0731,-1.0717,-1.0717,-1.0717,-1.0717,-1.0717,-1.0717,-1.0717,-1.0717,-1.0717,-1.0717,-1.0717,-1.0717,-1.0717,-1.0717,-1.0717,-1.0717,-1.0717,-1.0717,-1.0717,-1.0717,-1.0717,-1.0717,-1.0717,-1.0717,-1.0697,-1.067,-1.067,-1.067,-1.0802,-1.2134,-1.2668,-1.2931,0.0,0.0,0.0,0.0,0.0,0.0,0.0,0.0,0.0,0.0,0.0,0.0,0.0,0.0,0.0,0.0,0.0,0.0,0.0,0.0,0.6177,0.5938,0.555,0.5323,0.5318,0.5318,0.5072,0.4556,0.4656,0.4337,0.3483,0.2845,0.2576,0.2793,0.2403,0.2334,0.2424,0.1973,0.1973,0.2155,0.1884,0.0,0.0,0.0,0.0,0.0,0.0,0.0,0.0,0.0,0.0,0.0,0.0,0.0,0.1521,0.1031,0.0829,0.0933,0.1454,0.2477,0.2872,0.0633,-0.0214,0.0,0.2847,0.2521,0.0,0.3212,0.0,0.3082,0.2021,0.0795,0.0116,0.0598,-0.0482,-0.1104,-0.0128,0.0,0.0,0.0,-0.3345,-0.7102,-1.0345,-1.0731,-1.0717,-1.0717,-1.0717,-1.0717,-1.0717,-1.0717,-1.0717,-1.0717,-1.0717,-1.0717,-1.0717,-1.0717,-1.0717,-1.0717,-1.0717,-1.0717,-1.0717,-1.0717,-1.0717,-1.0717,-1.0717,-1.0717,-1.0717,-1.0717,-1.0636,-1.0507,-1.0507,-1.0507,-1.0527,-1.0795,-1.085,-1.1094,0.0,0.0,0.0,0.0,0.0,0.0,0.0,0.0,0.0,0.0,0.0,0.0,0.0,0.0,0.0,0.0,0.0,0.0,0.0,0.6563,0.6409,0.6177,0.5705,0.5395,0.5318,0.5168,0.4993,0.4708,0.4151,0.371,0.3405,0.3045,0.2889,0.2956,0.2842,0.269,0.2513,0.2334,0.2244,0.2157,0.1911,0.1921,0.0,0.0,0.0,0.0,0.0,0.0,0.0,0.0,0.1617,0.1617,0.1617,0.1617,0.1517,0.1325,0.1327,0.1225,0.0715,0.1464,0.1816,-0.0529,-0.0215,0.0,0.0,0.1116,0.2021,0.2521,0.2532,0.2426,0.2462,0.2534,0.196,0.0607,-0.0245,-0.0494,-0.0127,0.0,0.0,0.0,-0.3187,-0.6664,-1.0123,-1.0636,-1.0683,-1.0582,-1.0663,-1.0677,-1.0582,-1.067,-1.0677,-1.0582,-1.067,-1.0677,-1.0582,-1.0575,-1.0534,-1.0446,-1.0629,-1.0717,-1.0717,-1.0717,-1.0717,-1.0717,-1.0717,-1.0717,-1.0711,-1.0616,-1.0548,-1.0493,-1.0493,-1.0548,-1.0643,-1.0697,-1.0717,-1.0829,0.0,0.0,0.0,0.0,0.0,0.0,0.0,0.0,0.0,0.0,0.0,0.0,0.0,0.0,0.0,0.0,0.0,0.0,0.6409,0.6331,0.6177,0.5867,0.555,0.524,0.5085,0.4935,0.4757,0.4627,0.3824,0.3542,0.3567,0.3277,0.3123,0.3129,0.3129,0.2888,0.2516,0.262,0.2528,0.2249,0.2202,0.2212,0.0,0.0,0.0,0.0,0.0,0.0,0.0,0.0,0.1617,0.1617,0.1617,0.1617,0.1618,0.1628,0.1936,0.2038,0.0815,0.1659,0.2324,-0.0106,0.0,0.0,0.0111,0.0559,0.1357,0.244,0.1854,0.1392,0.1788,0.3381,0.3824,0.1582,0.0492,0.0,0.0,0.0,0.0,0.0,-0.2226,-0.5388,-0.9845,-1.0493,-1.0548,-1.0432,-1.0521,-1.0555,-1.0493,-1.0548,-1.0555,-1.0493,-1.0548,-1.0527,-1.0426,-1.0426,-1.0378,-1.0283,-1.0487,-1.0602,-1.0649,-1.0697,-1.0717,-1.0717,-1.067,-1.0649,-1.0636,-1.0487,-1.0426,-1.0432,-1.0473,-1.0555,-1.0656,-1.0704,-1.0717,-1.0697,0.0,0.0,0.0,0.0,0.0,0.0,0.0,0.0,0.0,0.0,0.0,0.0,0.0,0.0,0.0,0.0,0.0,0.0,0.5938,0.5712,0.5401,0.5002,0.4774,0.4701,0.4701,0.4462,0.4363,0.4227,0.3824,0.374,0.3909,0.3386,0.3123,0.3129,0.2995,0.2835,0.2518,0.2843,0.2835,0.2518,0.2843,0.2833,0.2525,0.0,0.0,0.0,0.0,0.0,0.0,0.0,0.1617,0.1617,0.1617,0.1617,0.1622,0.1652,0.2697,0.3523,0.1973,0.3624,0.5102,0.2307,0.0,0.0,0.3098,0.1281,-0.0,0.3249,0.1765,0.0,0.0,0.3296,0.5452,0.4096,0.1708,0.0,0.0,0.0,0.0,0.0,0.0,-0.2698,-0.9557,-1.0196,-1.0169,-1.0283,-1.0283,-1.0337,-1.048,-1.0358,-1.0344,-1.048,-1.0351,-1.0283,-1.0276,-1.0276,-1.0276,-1.0276,-1.0276,-1.0351,-1.0493,-1.0649,-1.0717,-1.0711,-1.0561,-1.0493,-1.048,-1.0337,-1.0283,-1.0297,-1.0439,-1.0493,-1.0514,-1.0663,-1.0717,-1.0697,0.0,0.0,0.0,0.0,0.0,0.0,0.0,0.0,0.0,0.0,0.0,0.0,0.0,0.0,0.0,0.0,0.0,0.0,0.5479,0.5401,0.5323,0.524,0.4774,0.454,0.4701,0.4302,0.4031,0.398,0.3761,0.3624,0.365,0.351,0.3445,0.3489,0.3336,0.3135,0.3026,0.3043,0.2948,0.2843,0.2769,0.279,0.2912,0.0,0.0,0.0,0.0,0.0,0.0,0.0,0.0,0.0,0.1819,0.2122,0.2326,0.2034,0.275,0.3777,0.3623,0.377,0.3495,0.161,0.198,0.2261,0.0,-0.0931,0.0,0.0,0.2036,0.2145,0.0359,0.4749,0.7364,0.3252,0.1088,0.0,0.0,0.0,0.0,0.0,0.0,-0.0765,-0.2872,-0.737,-1.0009,-0.9896,-1.0229,-1.0249,-1.0181,-1.0243,-1.0249,-1.0181,-1.0243,-1.0229,-1.012,-1.012,-1.0066,-0.9958,-1.0066,-1.0249,-1.0487,-1.0432,-1.0521,-1.0711,-1.0561,-1.0555,-1.0643,-1.0493,-1.0426,-1.0432,-1.0473,-1.0555,-1.0656,-1.0704,-1.0717,-1.0697,0.0,0.0,0.0,0.0,0.0,0.0,0.0,0.0,0.0,0.0,0.0,0.0,0.0,0.0,0.0,0.0,0.0,0.0,0.0,0.5196,0.519,0.5235,0.4721,0.4403,0.4372,0.4192,0.4095,0.401,0.385,0.3687,0.3673,0.3486,0.3521,0.3631,0.3445,0.3224,0.3112,0.3254,0.3152,0.2929,0.2885,0.3003,0.3019,0.0,0.0,0.0,0.0,0.0,0.0,0.0,0.0,0.0,0.0,0.0,0.2221,0.192,0.2843,0.3878,0.3386,0.3757,0.3619,0.1187,0.0997,0.1252,0.0465,-0.0353,-0.0833,-0.0121,0.1206,0.1913,0.0239,0.3199,0.5785,0.5219,0.4451,0.3043,0.0367,0.0,0.0,0.0,0.0,0.0,0.0,-0.4873,-0.8568,-0.9744,-0.9935,-1.0086,-1.0053,-1.0086,-1.0093,-1.0066,-1.0093,-1.0066,-0.9971,-0.9964,-0.991,-0.9822,-0.9917,-1.008,-1.0317,-1.029,-1.0412,-1.0622,-1.0473,-1.0426,-1.0446,-1.0351,-1.0317,-1.0324,-1.0385,-1.05,-1.0629,-1.0629,-1.067,-1.0704,0.0,0.0,0.0,0.0,0.0,0.0,0.0,0.0,0.0,0.0,0.0,0.0,0.0,0.0,0.0,0.0,0.0,0.0,0.0,0.5072,0.5061,0.5165,0.4673,0.42,0.3899,0.429,0.4298,0.4148,0.3989,0.3918,0.3909,0.3489,0.3363,0.3592,0.3389,0.3209,0.2987,0.3474,0.3452,0.2891,0.3281,0.3196,0.2965,0.2836,0.0,0.0,0.0,0.0,0.0,0.0,0.0,0.0,0.1718,0.1718,0.1718,0.1718,0.2857,0.3808,0.2236,0.3674,0.4774,0.1179,-0.0666,-0.0805,0.2536,0.1551,0.0,0.0,0.0,0.0,0.0,0.0,0.1987,0.7893,0.9394,0.749,0.0965,0.0,0.0,0.0,0.0,0.0,0.0,-0.2697,-0.5884,-0.9572,-0.9802,-0.9856,-1.0005,-0.9903,-0.9781,-0.9679,-0.9413,-0.947,-0.9741,-0.9822,-0.9815,-0.9822,-0.9822,-0.989,-1.0032,-1.0175,-1.0317,-1.0446,-1.0331,-1.0202,-1.0073,-1.0073,-1.0073,-1.0086,-1.0243,-1.0378,-1.0493,-1.0507,-1.0602,-1.0717,0.0,0.0,0.0,0.0,0.0,0.0,0.0,0.0,0.0,0.0,0.0,0.0,0.0,0.0,0.0,0.0,0.0,0.0,0.0,0.5029,0.4951,0.4815,0.4399,0.4126,0.4142,0.3989,0.3762,0.346,0.3658,0.3806,0.3823,0.3369,0.3235,0.3499,0.3206,0.3164,0.3296,0.3228,0.3102,0.2943,0.306,0.3063,0.2965,0.3025,0.3041,0.0,0.0,0.0,0.0,0.0,0.0,0.0,0.2221,0.2521,0.2723,0.2223,0.2734,0.3358,0.3189,0.3543,0.3912,0.3031,0.1231,-0.0231,0.0584,0.0355,0.0,0.0,0.0,0.0,0.0,0.0,0.0467,0.1844,0.6467,0.7514,0.0948,0.0,0.0,0.0,0.0,0.0,0.0,-0.06,-0.3487,-0.9334,-0.9787,-0.9842,-0.9875,-0.9854,-0.8666,-0.6052,-0.5964,-0.7175,-0.9774,-0.9754,-0.9741,-0.9849,-0.9829,-0.9836,-0.9869,-0.9903,-1.0005,-1.0148,-1.0243,-1.0263,-1.0229,-1.0229,-1.0229,-1.0243,-1.0392,-1.0466,-1.0507,-1.0629,-1.069,-1.0717,0.0,0.0,0.0,0.0,0.0,0.0,0.0,0.0,0.0,0.0,0.0,0.0,0.0,0.0,0.0,0.0,0.0,0.0,0.0,0.0,0.4941,0.4783,0.4703,0.4569,0.4385,0.409,0.3891,0.3688,0.3444,0.3401,0.3473,0.3335,0.3301,0.337,0.3129,0.3068,0.3193,0.3099,0.2986,0.2962,0.2989,0.3003,0.3099,0.3133,0.3049,0.2866,0.2925,0.0,0.0,0.0,0.0,0.0,0.0,0.0,0.2322,0.2021,0.2439,0.3275,0.4208,0.4396,0.4089,0.2335,0.0914,0.0,0.0,0.0,0.0,0.0,0.0,0.0,0.0,0.0,0.0,0.0,0.2879,0.396,0.0466,0.0,0.0,0.0,0.0,0.0,0.0,0.0,-0.1421,-0.4829,-0.6589,-0.7439,-0.7504,-0.8972,-0.901,-0.7245,-0.4178,-0.4416,-0.8228,-0.8313,-0.8821,-0.9754,-0.9802,-0.9822,-0.9822,-0.9897,-0.9971,-1.0053,-1.0134,-1.0168,-1.0168,-1.0093,-1.0059,-1.0066,-1.0141,-1.0215,-1.0297,-1.0453,-1.0555,-1.0622,0.0,0.0,0.0,0.0,0.0,0.0,0.0,0.0,0.0,0.0,0.0,0.0,0.0,0.0,0.0,0.0,0.0,0.0,0.0,0.0,0.0,0.495,0.509,0.4924,0.4542,0.4299,0.4051,0.3945,0.3313,0.3007,0.309,0.3301,0.3367,0.3272,0.3082,0.2989,0.2989,0.3,0.2986,0.2965,0.3035,0.3052,0.3035,0.3057,0.2866,0.2671,0.2688,0.2498,0.2308,0.0,0.0,0.0,0.0,0.0,0.1617,0.1617,0.2145,0.2988,0.4184,0.4425,0.3734,0.0789,0.0,0.0,0.0,0.0,0.0,0.0,0.0,0.0,0.0,0.0,0.0,0.0,0.0,0.0,0.0,0.0,0.0,0.0,0.0,0.0,0.0,0.0,0.0,0.0,-0.2545,-0.4062,-0.407,-0.6681,-0.8143,-0.8166,-0.2813,-0.1992,-0.6251,-0.6287,-0.7396,-0.9737,-0.9734,-0.9795,-0.9822,-0.9951,-1.0012,-1.0012,-1.0012,-1.0012,-0.9998,-0.9876,-0.9822,-0.9822,-0.9849,-0.9937,-1.0066,-1.0222,-1.0351,-1.0473,0.0,0.0,0.0,0.0,0.0,0.0,0.0,0.0,0.0,0.0,0.0,0.0,0.0,0.0,0.0,0.0,0.0,0.0,0.0,0.0,0.0,0.5181,0.493,0.4767,0.4869,0.4223,0.3749,0.3282,0.3147,0.3117,0.3105,0.3009,0.3052,0.3115,0.3115,0.3115,0.3117,0.3172,0.3104,0.2967,0.2791,0.2683,0.2707,0.2702,0.2516,0.23,0.2672,0.2576,0.2351,0.2298,0.2316,0.0,0.0,0.0,0.192,0.1718,0.1721,0.1628,0.0928,0.0737,0.0643,0.0108,0.0,0.0,0.0,0.0,0.0,0.0,0.0,0.0,0.0,0.0,0.0,0.0,0.0,0.0,0.0,0.0,0.0,0.0,0.0,0.0,0.0,0.0,0.0,0.0,-0.0438,-0.0667,-0.0676,-0.1029,-0.1277,-0.1295,-0.0465,-0.151,-0.4722,-0.476,-0.6392,-0.9476,-0.9585,-0.97,-0.9822,-0.9842,-0.9849,-0.9849,-0.9849,-0.9849,-0.9849,-0.9829,-0.9822,-0.9836,-0.9964,-1.0032,-1.0066,-1.0222,-1.029,-1.031,0.0,0.0,0.0,0.0,0.0,0.0,0.0,0.0,0.0,0.0,0.0,0.0,0.0,0.0,0.0,0.0,0.0,0.0,0.0,0.0,0.0,0.5279,0.5095,0.5004,0.4956,0.4298,0.3748,0.3293,0.3099,0.2962,0.3049,0.2841,0.2907,0.3243,0.3243,0.3224,0.3191,0.3218,0.3065,0.2778,0.2759,0.2941,0.3257,0.2728,0.273,0.2912,0.247,0.2174,0.187,0.1907,0.1918,0.1918,0.1819,0.0,0.0,0.0,0.192,0.1624,0.031,0.0,0.0,0.0,0.0,0.0,0.0,0.0,0.0,0.0,0.0,0.0,0.0,0.0,0.0,0.0,0.0,0.0,0.0,0.0,0.0,0.0,0.0,0.0,0.0,0.0,0.0,0.0,0.0,0.0,0.0,0.0,0.0,0.0,0.0,-0.144,-0.4474,-0.4501,-0.6175,-0.9415,-0.9456,-0.9557,-0.97,-0.97,-0.9747,-0.9822,-0.9822,-0.9822,-0.9822,-0.9822,-0.9822,-0.9829,-0.9897,-0.9924,-0.9937,-1.0093,-1.0148,-1.0161,0.0,0.0,0.0,0.0,0.0,0.0,0.0,0.0,0.0,0.0,0.0,0.0,0.0,0.0,0.0,0.0,0.0,0.0,0.0,0.0,0.0,0.5655,0.5431,0.5257,0.5157,0.44,0.3755,0.3386,0.2973,0.2806,0.2975,0.2825,0.2912,0.3135,0.3255,0.3229,0.3176,0.3189,0.2941,0.2672,0.2924,0.3304,0.3726,0.3248,0.3352,0.3752,0.2797,0.2308,0.2011,0.1734,0.164,0.1636,0.1621,0.1617,0.0,0.0,0.0,0.1938,0.072,0.0208,0.0,0.0,0.0,0.0,0.0,0.0,0.0,0.0,0.0,0.0,0.0,0.0,0.0,0.0,0.0,0.0,0.0,0.0,0.0,0.0,0.0,0.0,0.0,0.0,0.0,0.0,0.0,0.0,0.0,0.0,0.0,0.0,0.0,-0.1387,-0.4386,-0.5154,-0.6868,-0.9273,-0.9306,-0.9401,-0.9551,-0.9551,-0.9612,-0.9713,-0.9788,-0.9822,-0.9822,-0.9822,-0.9822,-0.9822,-0.9822,-0.9822,-0.9836,-0.9951,-0.9992,-1.0005,0.0,0.0,0.0,0.0,0.0,0.0,0.0,0.0,0.0,0.0,0.0,0.0,0.0,0.67,0.6505,0.5817,0.5544,0.5245,0.489,0.5675,0.6191,0.6221,0.5729,0.0,0.554,0.442,0.3729,0.3473,0.2839,0.259,0.2742,0.2745,0.273,0.2662,0.2925,0.3026,0.2981,0.3031,0.2856,0.2521,0.3286,0.3644,0.3632,0.469,0.4918,0.4642,0.4292,0.3713,0.3075,0.1914,0.1595,0.169,0.1635,0.1819,0.2021,0.0,0.0,0.0,0.1626,0.0727,0.0,0.0,0.0,0.0,0.0,0.0,0.0,0.0,0.0,0.0,0.0,0.0,0.0,0.0,0.0,0.0,0.0,0.0,0.0,0.0,0.0,0.0,0.0,0.0,0.0,0.0,0.0,0.0,0.0,0.0,0.0,0.0,0.0,-0.128,-0.3956,-0.7072,-0.8736,-0.896,-0.9096,-0.9245,-0.9395,-0.9395,-0.9395,-0.9422,-0.97,-0.9822,-0.9822,-0.9822,-0.9822,-0.9822,-0.9822,-0.9822,-0.9822,-0.9829,-0.9836,-0.9836,0.0,0.0,0.0,0.0,0.0,0.0,0.0,0.0,0.0,0.0,0.0,0.0,0.0,0.6612,0.6543,0.5923,0.5667,0.5555,0.5336,0.5687,0.5883,0.5889,0.5464,0.524,0.5044,0.4431,0.3809,0.3279,0.308,0.2888,0.2601,0.2567,0.2642,0.2833,0.3239,0.325,0.2993,0.3112,0.2944,0.2575,0.339,0.3956,0.4292,0.4275,0.4879,0.566,0.4407,0.3831,0.3512,0.3196,0.2378,0.164,0.167,0.1866,0.2082,0.2236,0.2332,0.2341,0.2125,0.1429,0.0616,0.0101,0.0,0.0,0.0,0.0,0.0,0.0,0.0,0.0,0.0,0.0,0.0,0.0,0.0,0.0,0.0,0.0,0.0,0.0,0.0,0.0,0.0,0.0,0.0,0.0,0.0,0.0,0.0,0.0,0.0,0.0,0.0,-0.1241,-0.3972,-0.6857,-0.8481,-0.8791,-0.8845,-0.8994,-0.9239,-0.9239,-0.9286,-0.9388,-0.949,-0.9591,-0.9693,-0.9781,-0.9822,-0.9822,-0.9822,-0.9822,-0.9822,-0.9822,-0.9822,-0.9822,0.0,0.0,0.0,0.0,0.0,0.0,0.0,0.0,0.0,0.0,0.0,0.0,0.0,0.0,0.6386,0.6073,0.599,0.5893,0.5975,0.5984,0.5996,0.5866,0.5394,0.5078,0.4924,0.4389,0.3853,0.3317,0.3295,0.2989,0.2478,0.256,0.2626,0.2575,0.3181,0.3224,0.2909,0.2881,0.2629,0.2326,0.363,0.4225,0.4346,0.4686,0.543,0.6177,0.5474,0.5202,0.509,0.4386,0.2921,0.1534,0.1578,0.1885,0.2204,0.2241,0.2322,0.2322,0.2223,0.1624,0.0916,0.0607,0.0303,0.0,0.0,0.0,0.0,0.0,0.0,0.0,0.0,0.0,0.0,0.0,0.0,0.0,0.0,0.0,0.0,0.0,0.0,0.0,0.0,0.0,0.0,0.0,0.0,0.0,0.0,0.0,0.0,0.0,0.0,-0.1318,-0.3987,-0.6611,-0.819,-0.8567,-0.8662,-0.8811,-0.9008,-0.9055,-0.9137,-0.9239,-0.9286,-0.9422,-0.9618,-0.9713,-0.9781,-0.9822,-0.9822,-0.9822,-0.9822,-0.9822,-0.9822,-0.9822,0.0,0.0,0.0,0.0,0.0,0.0,0.0,0.0,0.0,0.6378,0.0,0.0,0.0,0.0,0.0,0.6263,0.6337,0.6423,0.6583,0.6583,0.6554,0.6422,0.5523,0.517,0.5369,0.4393,0.3857,0.3592,0.3389,0.2901,0.2196,0.2823,0.2679,0.2023,0.2883,0.3067,0.2619,0.2361,0.2046,0.1961,0.4096,0.4337,0.3703,0.609,0.6614,0.6255,0.7504,0.7979,0.7627,0.5504,0.3095,0.1175,0.1678,0.2184,0.2379,0.2134,0.2223,0.2322,0.0,0.0,0.0,0.142,0.0807,0.0,0.0,0.0,0.0,0.0,0.0,0.0,0.0,0.0,0.0,0.0,0.0,0.0,0.0,0.0,0.0,0.0,0.0,0.0,0.0,0.0,-0.0101,-0.0202,-0.0202,-0.0202,-0.0101,-0.0,-0.0101,-0.0202,-0.0202,-0.1512,-0.4117,-0.6675,-0.8097,-0.8282,-0.8567,-0.871,-0.8723,-0.8866,-0.8933,-0.8947,-0.9089,-0.932,-0.9598,-0.9598,-0.9686,-0.9808,-0.9815,-0.9815,-0.9815,-0.9822,-0.9822,-0.9822,0.0,0.0,0.0,0.0,0.0,0.0,0.0,0.0,0.6321,0.0,0.0,0.0,0.6149,0.6545,0.6744,0.6532,0.6706,0.684,0.6744,0.6467,0.6133,0.5897,0.5515,0.5161,0.4928,0.4661,0.4246,0.367,0.3652,0.3343,0.2825,0.288,0.2912,0.2831,0.2572,0.2504,0.2531,0.2477,0.2286,0.2294,0.4209,0.4828,0.4706,0.6489,0.7252,0.7473,0.7264,0.7498,0.7703,0.5831,0.365,0.1887,0.2606,0.2486,0.2279,0.2373,0.2347,0.2122,0.1718,0.0,0.0,0.0,0.0,0.0,0.0592,0.0292,0.0,0.0,0.0,0.0,0.0,0.0,0.0,0.0,0.0,0.0,0.0,0.0,0.0,0.0,0.0,0.0,0.0,0.0,-0.1615,-0.5464,-0.577,-0.4947,-0.3017,-0.1006,-0.1814,-0.567,-0.577,-0.6163,-0.6848,-0.7801,-0.8336,-0.8425,-0.8506,-0.8662,-0.8872,-0.8804,-0.8832,-0.894,-0.8981,-0.9103,-0.9286,-0.9401,-0.9469,-0.951,-0.9625,-0.9666,-0.968,-0.9781,-0.9822,-0.9822,0.0,0.0,0.0,0.0,0.0,0.0,0.7135,0.6679,0.641,0.0,0.0,0.0,0.68,0.6948,0.7092,0.7184,0.727,0.7237,0.6976,0.6606,0.6241,0.5871,0.5512,0.5238,0.4963,0.478,0.435,0.3748,0.3823,0.3591,0.3142,0.3002,0.3027,0.3131,0.2755,0.2564,0.2463,0.2624,0.2378,0.2227,0.4179,0.4736,0.4533,0.644,0.7089,0.7154,0.7009,0.7517,0.7944,0.6039,0.4463,0.3267,0.3352,0.2939,0.2245,0.2213,0.2175,0.204,0.1518,0.1295,0.1176,0.107,0.0,0.0,0.1159,0.086,0.057,0.0098,0.0,0.0,0.0,0.0,0.0,0.0,0.0,0.0,0.0,0.0,0.0,0.0,0.0,0.0,0.0,-0.2021,-0.4657,-0.7717,-0.8032,-0.7302,-0.5751,-0.3115,-0.3118,-0.6263,-0.739,-0.7999,-0.7972,-0.8214,-0.8323,-0.8397,-0.852,-0.8635,-0.875,-0.8723,-0.8723,-0.875,-0.8818,-0.8893,-0.8981,-0.9137,-0.9273,-0.9388,-0.9483,-0.9551,-0.9618,-0.97,-0.9768,-0.9822,0.0,0.0,0.0,0.8726,0.0,0.7434,0.7534,0.7036,0.6531,0.0,0.6899,0.726,0.7719,0.7335,0.7335,0.7994,0.7799,0.751,0.7214,0.6932,0.6555,0.6083,0.5611,0.5327,0.5327,0.4858,0.4387,0.3922,0.3888,0.373,0.3248,0.3304,0.333,0.333,0.3237,0.2932,0.2423,0.2629,0.2445,0.2158,0.3995,0.431,0.394,0.6117,0.6614,0.6284,0.694,0.7712,0.8138,0.6205,0.5348,0.4978,0.4113,0.3331,0.2537,0.1932,0.1888,0.1951,0.1214,0.1292,0.156,0.1433,0.1779,0.0,0.1515,0.1497,0.1299,0.0285,0.0095,0.0095,0.0191,0.0191,0.0192,0.0098,0.0,0.0,0.0,0.0,0.0,0.0,0.0,0.0,0.0,-0.4354,-0.7327,-0.7925,-0.7831,-0.7831,-0.8019,-0.5741,-0.4418,-0.4418,-0.677,-0.8012,-0.7992,-0.8255,-0.833,-0.8323,-0.8567,-0.8621,-0.8513,-0.8615,-0.8594,-0.8492,-0.8642,-0.871,-0.8723,-0.8872,-0.9096,-0.9334,-0.9347,-0.9449,-0.9585,-0.9605,-0.97,-0.9822,0.0,0.0,0.913,0.8627,0.8528,0.0,0.764,0.764,0.7601,0.729,0.7439,0.757,0.7856,0.8247,0.8446,0.8151,0.8151,0.7903,0.7221,0.6838,0.6461,0.6083,0.5805,0.5521,0.5327,0.5043,0.4701,0.4489,0.4306,0.4347,0.441,0.4024,0.3833,0.3833,0.3485,0.3071,0.2727,0.2564,0.2858,0.3416,0.3954,0.4402,0.4871,0.6303,0.7192,0.7598,0.7743,0.7898,0.7937,0.6769,0.6343,0.5998,0.4912,0.4386,0.393,0.2753,0.2161,0.178,0.1581,0.1461,0.1527,0.1497,0.165,0.0,0.1574,0.1282,0.1094,0.0852,0.0659,0.0655,0.1046,0.1256,0.1173,0.0687,0.0298,0.0,0.0,0.0,0.0,0.0,0.0,0.0,0.0,-0.091,-0.3335,-0.7717,-0.6665,-0.6553,-0.7879,-0.7466,-0.7253,-0.7253,-0.7687,-0.8051,-0.8235,-0.8295,-0.8421,-0.8621,-0.856,-0.8574,-0.8662,-0.8452,-0.8404,-0.8492,-0.8642,-0.871,-0.8723,-0.8872,-0.8974,-0.9035,-0.915,-0.9293,-0.9442,-0.9564,-0.97,-0.9822,0.0,0.9525,0.9426,0.9031,0.8924,0.0,0.8237,0.8038,0.7912,0.7543,0.7563,0.7834,0.8503,0.8803,0.8803,0.8503,0.8855,0.8585,0.7635,0.7397,0.7111,0.6657,0.6002,0.5582,0.5484,0.5187,0.492,0.4773,0.4571,0.4591,0.4834,0.4135,0.4135,0.4541,0.3908,0.3543,0.3572,0.3289,0.3181,0.32,0.4233,0.5046,0.5872,0.6945,0.7679,0.8038,0.8038,0.8039,0.7994,0.7581,0.7068,0.6494,0.5803,0.5141,0.4358,0.33,0.268,0.2279,0.1771,0.1538,0.15,0.1485,0.1823,0.0,0.0,0.2094,0.1895,0.1659,0.156,0.1554,0.1755,0.2054,0.2177,0.2027,0.1366,0.0791,0.0805,0.0303,0.0,0.0,0.0,0.0,0.0,0.0,-0.2221,-0.761,-0.7172,-0.7048,-0.7972,-0.7965,-0.7959,-0.7959,-0.8046,-0.8119,-0.8269,-0.8401,-0.8548,-0.871,-0.8635,-0.8594,-0.8587,-0.837,-0.8309,-0.8384,-0.8533,-0.8642,-0.8723,-0.8872,-0.894,-0.8947,-0.9015,-0.9184,-0.9388,-0.9469,-0.9632,-0.9822,0.9723,0.9624,0.9624,0.9533,0.9229,0.8924,0.8825,0.8535,0.8237,0.8131,0.8172,0.8614,0.933,0.9353,0.9392,0.9454,0.9499,0.9272,0.8737,0.8334,0.7988,0.7692,0.6433,0.5967,0.6163,0.5546,0.5148,0.496,0.4943,0.4834,0.4834,0.4135,0.4236,0.5044,0.4402,0.411,0.4256,0.4137,0.3709,0.3284,0.4774,0.5588,0.6079,0.7072,0.7521,0.7749,0.7972,0.8038,0.8072,0.8186,0.7533,0.6577,0.6368,0.5589,0.4706,0.3549,0.3319,0.3199,0.198,0.154,0.15,0.1505,0.1938,0.2454,0.0,0.0,0.0,0.2422,0.2334,0.2244,0.2332,0.2613,0.2924,0.3116,0.2474,0.1834,0.1598,0.0901,0.0401,0.0202,0.0101,0.0,0.0,0.0,-0.2019,-0.6882,-0.7685,-0.7972,-0.7965,-0.8052,-0.8038,-0.8038,-0.7992,-0.8066,-0.8269,-0.8431,-0.8581,-0.871,-0.8682,-0.8615,-0.852,-0.8377,-0.8309,-0.8323,-0.8465,-0.8594,-0.8723,-0.8872,-0.894,-0.894,-0.894,-0.9117,-0.9381,-0.9381,-0.9564,-0.9822,0.992,0.9723,0.9533,0.9335,0.9434,0.9327,0.8825,0.913,0.9525,0.9723,1.0391,1.0699,1.0095,1.0958,1.162,1.1753,0.9941,0.9549,1.1211,0.9195,0.8433,0.9672,0.7685,0.71,0.8208,0.648,0.5583,0.5672,0.528,0.514,0.514,0.4839,0.4638,0.4541,0.4851,0.4583,0.3929,0.4404,0.4863,0.5499,0.5665,0.4997,0.392,0.5002,0.5949,0.6861,0.7668,0.8038,0.8006,0.7998,0.7557,0.6725,0.5575,0.5845,0.5965,0.3659,0.3635,0.4041,0.2106,0.1587,0.1568,0.1595,0.1826,0.2143,0.2318,0.0,0.2867,0.2867,0.0,0.2603,0.3048,0.0,0.0,0.2875,0.292,0.2594,0.1768,0.1845,0.1751,0.0805,0.0303,0.0,0.0,0.0,-0.121,-0.4221,-0.6653,-0.7972,-0.8045,-0.8038,-0.8038,-0.8038,-0.7985,-0.8064,-0.8269,-0.8327,-0.8474,-0.871,-0.8574,-0.8567,-0.8676,-0.8526,-0.8459,-0.8465,-0.8621,-0.8696,-0.8723,-0.8872,-0.894,-0.894,-0.894,-0.9117,-0.9381,-0.9381,-0.9564,-0.9822,0.9624,0.9533,0.9525,0.9434,0.9624,0.9723,0.9525,0.9525,0.9665,0.9862,1.0002,0.9904,0.9578,0.9876,1.0554,1.169,1.0974,1.0769,0.0,1.0397,0.9492,0.8863,0.7535,0.6962,0.7446,0.6432,0.599,0.5889,0.562,0.5367,0.5324,0.4762,0.4738,0.514,0.5293,0.5139,0.5029,0.5473,0.5318,0.4624,0.5492,0.4918,0.3796,0.5913,0.7001,0.7467,0.7905,0.8038,0.7965,0.7955,0.7422,0.6706,0.6733,0.5952,0.4841,0.4651,0.4457,0.3874,0.2111,0.1544,0.15,0.1109,0.1549,0.2138,0.2364,0.2856,0.3317,0.3317,0.0,0.0,0.0,0.0,0.0,0.0,0.3102,0.2879,0.2545,0.2363,0.2086,0.131,0.109,0.0687,0.0099,0.0,-0.1109,-0.3817,-0.6453,-0.7972,-0.8038,-0.8038,-0.8038,-0.8038,-0.8019,-0.8099,-0.8269,-0.8343,-0.8445,-0.8574,-0.8431,-0.8391,-0.8452,-0.8391,-0.8404,-0.8492,-0.8642,-0.8764,-0.8845,-0.8913,-0.894,-0.894,-0.894,-0.9117,-0.9395,-0.9483,-0.9646,-0.9822,0.9624,0.0,0.9821,0.9821,0.992,1.0019,0.992,0.9713,0.9734,1.0014,0.9847,0.9685,0.9582,0.9667,1.0425,1.2312,1.2153,1.2126,0.0,1.1716,1.0683,0.9448,0.7877,0.7203,0.7402,0.6839,0.6373,0.6211,0.5784,0.5505,0.5346,0.477,0.4839,0.534,0.5542,0.5597,0.5687,0.6303,0.5758,0.4482,0.4886,0.4998,0.5068,0.6945,0.7737,0.8038,0.8045,0.8045,0.7965,0.7998,0.7539,0.6883,0.6078,0.5086,0.4286,0.507,0.4695,0.3648,0.1851,0.1484,0.144,0.1142,0.1492,0.1993,0.2467,0.3043,0.3502,0.3616,0.3602,0.0,0.0,0.0,0.3332,0.3386,0.0,0.2928,0.2986,0.2533,0.2172,0.1814,0.1577,0.0975,0.0099,0.0,-0.0806,-0.2711,-0.6047,-0.7979,-0.8052,-0.8045,-0.8038,-0.8038,-0.7952,-0.8113,-0.8208,-0.8214,-0.8289,-0.8425,-0.8323,-0.8289,-0.833,-0.837,-0.8445,-0.8554,-0.871,-0.8838,-0.894,-0.894,-0.896,-0.9001,-0.9042,-0.9218,-0.9449,-0.9523,-0.9659,-0.9822,1.0413,1.0413,1.0413,1.0413,1.0216,0.992,0.9624,0.9721,0.9894,1.0281,1.1073,1.1305,1.0612,1.1248,1.275,1.4928,1.3131,1.3231,1.6562,1.3267,1.1573,1.2678,0.9698,0.8458,0.954,0.795,0.6974,0.6536,0.6103,0.5639,0.0,0.0,0.0,0.0,0.5751,0.5913,0.5565,0.6117,0.6572,0.6468,0.4085,0.5022,0.7769,0.6945,0.7258,0.8045,0.7965,0.7972,0.8046,0.7968,0.7949,0.0,0.0,0.2812,0.5443,0.4037,0.3849,0.3579,0.1509,0.1296,0.161,0.1775,0.1594,0.1611,0.2416,0.2943,0.3336,0.3588,0.3639,0.3699,0.3952,0.3727,0.3588,0.3592,0.3233,0.0,0.0,0.219,0.1948,0.23,0.1412,0.0605,0.0101,0.0,-0.0,-0.0101,-0.5035,-0.7985,-0.7972,-0.7952,-0.8038,-0.8038,-0.8038,-0.8045,-0.8045,-0.8045,-0.8126,-0.8275,-0.8275,-0.8343,-0.8479,-0.8628,-0.8696,-0.871,-0.8866,-0.8933,-0.894,-0.894,-0.9022,-0.9164,-0.9306,-0.9462,-0.9585,-0.9442,-0.9571,-0.9822,0.0,1.0988,1.0609,1.0413,1.0319,1.0255,1.0272,1.0393,1.0444,1.0634,1.0587,1.0499,1.0308,1.1268,1.2733,1.4809,1.5176,1.5806,1.6977,1.4606,1.2641,1.1765,0.9308,0.8011,0.8256,0.7295,0.6834,0.699,0.6108,0.5817,0.0,0.0,0.0,0.0,0.6159,0.6421,0.6329,0.7123,0.6813,0.5465,0.2819,0.4216,0.7773,0.7632,0.7769,0.7965,0.7972,0.6848,0.0,0.5351,0.6548,0.7428,0.3782,0.2363,0.2543,0.5603,0.4085,0.1196,0.0,0.0,0.1716,0.0878,0.0853,0.1445,0.2819,0.3081,0.312,0.3601,0.3714,0.3794,0.3868,0.3731,0.3496,0.3402,0.3021,0.2662,0.0,0.2141,0.1898,0.1874,0.1189,0.0493,0.0,0.0,0.0,0.0,-0.1709,-0.4225,-0.7772,-0.7965,-0.7952,-0.8038,-0.8038,-0.8038,-0.8038,-0.8038,-0.8065,-0.8119,-0.8119,-0.814,-0.8194,-0.8445,-0.856,-0.8574,-0.8825,-0.894,-0.894,-0.894,-0.8967,-0.9028,-0.9171,-0.932,-0.9476,-0.9618,-0.9734,-0.9849,1.1935,1.1346,1.0771,1.0538,1.0442,1.0427,1.0437,1.0664,1.1005,1.1521,1.1145,1.1199,1.2131,1.2825,1.3979,1.5823,1.6952,1.7291,1.6864,1.5696,1.3875,1.1193,0.9747,0.8708,0.7857,0.7477,0.738,0.7568,0.6735,0.6572,0.0,0.0,0.0,0.0,0.638,0.666,0.6827,0.7577,0.66,0.4461,0.2121,0.374,0.7761,0.7801,0.789,0.7949,0.0,0.6865,0.5135,0.3218,0.3718,0.4869,0.3157,0.1364,0.0656,0.4123,0.2658,0.0,0.0,0.0651,0.0,0.0758,0.0637,0.0,0.2529,0.2945,0.3135,0.3529,0.3683,0.3668,0.3765,0.3647,0.3424,0.3199,0.2805,0.2427,0.0,0.1966,0.1702,0.1521,0.106,0.0679,0.0482,0.0194,0.0,0.0,0.0,-0.1896,-0.6337,-0.7459,-0.7965,-0.8038,-0.8038,-0.8038,-0.8038,-0.8038,-0.8038,-0.8038,-0.8038,-0.8038,-0.8052,-0.835,-0.8479,-0.8499,-0.8804,-0.894,-0.894,-0.894,-0.8967,-0.9028,-0.9178,-0.9327,-0.9483,-0.9673,-0.9774,-0.9856,0.0,1.1545,1.0981,1.0816,1.0766,1.0594,1.0272,1.0616,1.1339,1.2847,1.303,1.3662,1.5744,1.5654,1.6208,1.7908,1.8148,1.7801,1.6673,1.6759,0.0,1.1133,1.109,1.0377,0.8412,0.871,0.8677,0.8292,0.8034,0.0,0.0,0.0,0.0,0.0,0.6393,0.6738,0.7032,0.7416,0.6162,0.3613,0.181,0.3534,0.7339,0.7497,0.7608,0.7674,0.7911,0.7818,0.6793,0.1716,0.0,0.0,0.0,0.0,0.0,0.0,0.0,0.0,0.0,0.0,0.0319,0.16,0.0948,0.0,0.0,0.0,0.327,0.3319,0.3379,0.3473,0.3586,0.3498,0.3293,0.298,0.248,0.2082,0.158,0.148,0.1468,0.1442,0.1024,0.096,0.1271,0.0578,0.0097,0.0,0.0,-0.1183,-0.381,-0.6542,-0.7965,-0.8038,-0.8038,-0.8038,-0.8038,-0.8038,-0.8038,-0.8038,-0.8045,-0.8052,-0.8058,-0.8357,-0.8492,-0.8513,-0.8811,-0.894,-0.894,-0.894,-0.9022,-0.9157,-0.9313,-0.9469,-0.9612,-0.9618,-0.9707,-0.9842,1.1852,1.1545,1.1209,1.095,1.1033,1.1276,1.1297,1.229,1.3193,1.3536,1.449,1.5302,1.5863,1.6947,1.7837,1.8418,1.9574,2.0065,1.9581,1.8173,1.6342,1.3858,1.2045,1.0271,0.85,0.7845,0.7959,0.8842,0.7275,0.0,0.8214,0.0,0.0,0.0,0.6691,0.6926,0.7352,0.7618,0.5063,0.1005,0.0504,0.0938,0.239,0.6107,0.7328,0.726,0.782,0.5464,0.1817,0.0505,0.0,0.0,0.0,0.0,0.0,0.0,0.0,0.0,0.0,0.0,0.0103,0.0424,0.0213,0.0107,0.0,0.0,0.0,0.0,0.0,0.0,0.0,0.2724,0.2388,0.2802,0.2496,0.206,0.1606,0.1475,0.146,0.1498,0.1029,0.0654,0.0376,0.0758,0.077,0.0099,0.0,-0.1203,-0.3814,-0.6548,-0.7972,-0.8038,-0.8038,-0.8038,-0.8038,-0.8038,-0.8038,-0.8038,-0.816,-0.8214,-0.8221,-0.852,-0.8655,-0.8662,-0.8852,-0.894,-0.894,-0.894,-0.896,-0.9008,-0.9157,-0.9374,-0.9618,-0.9727,-0.9788,-0.9842,1.2228,1.1916,1.1593,1.1603,1.2238,1.263,1.2597,1.2544,1.3225,1.4885,1.5529,1.6202,1.7325,1.8711,1.9674,1.9674,2.0589,2.0703,1.9624,1.8387,1.6549,1.3929,1.2331,1.062,0.8826,0.8318,0.8418,0.915,0.784,0.0,0.8524,0.0,0.0,0.0,0.671,0.6874,0.7074,0.7565,0.4778,0.0,0.0,0.0,0.0,0.3186,0.5413,0.6765,0.5137,0.2526,0.0,0.0,0.0,0.0,0.0,0.0,0.0,0.0,0.0,0.0,0.0,0.0,0.0,0.0,0.0,0.0,0.0,0.0329,0.0657,0.0,0.1103,0.1437,0.0,0.0,0.2263,0.2288,0.2072,0.1807,0.1525,0.1485,0.1463,0.1483,0.1205,0.0922,0.0365,0.0562,0.0575,0.0,0.0395,-0.0299,-0.2481,-0.5109,-0.6848,-0.7235,-0.7857,-0.8174,-0.8038,-0.8235,-0.8269,-0.814,-0.8289,-0.8364,-0.837,-0.8608,-0.871,-0.8716,-0.8872,-0.894,-0.894,-0.894,-0.894,-0.896,-0.9171,-0.9401,-0.9625,-0.9768,-0.9822,-0.9836,1.2824,1.2423,1.2183,1.2265,1.3487,1.4478,1.4162,1.2957,1.3172,1.6561,1.6647,1.7191,1.9338,2.049,2.1109,2.1109,2.1069,2.0374,1.8641,1.8089,1.628,1.2953,1.2318,1.1105,0.9305,0.9198,0.9278,0.9202,0.8787,0.0,0.0,0.0,0.0,0.674,0.6739,0.6719,0.67,0.7582,0.51,0.0527,0.0102,0.0,0.0,0.0,0.2528,0.5583,0.1415,0.0,0.0,0.0,0.0,0.0,0.0,0.0,0.0,0.0,0.0,0.0,0.0,0.0,0.0,0.0,0.0,0.0,0.0,0.0,0.0,0.0,0.0,0.0435,0.1949,0.2348,0.2313,0.1825,0.1734,0.166,0.1536,0.1506,0.1476,0.1451,0.157,0.0,0.0907,0.0375,0.0096,0.0,0.0874,0.0884,-0.0392,-0.3081,-0.5214,-0.6537,-0.7776,-0.8323,-0.8099,-0.8465,-0.854,-0.833,-0.8452,-0.8513,-0.852,-0.8669,-0.8743,-0.875,-0.8879,-0.894,-0.894,-0.894,-0.894,-0.8967,-0.9266,-0.9462,-0.9598,-0.9761,-0.9822,-0.9822,1.2785,1.2975,1.2899,1.206,1.3731,1.5309,1.6002,1.6898,1.7725,1.8547,1.9546,2.0297,2.0781,2.1009,2.1109,2.1109,2.0895,2.0637,2.0302,1.8472,1.6585,1.4676,1.3036,1.1288,0.9463,0.8897,0.8549,0.8406,0.7718,0.0,0.0,0.0,0.7193,0.6744,0.6623,0.6675,0.6916,0.7237,0.5851,0.3141,0.0907,0.0,0.0,0.0,0.0505,0.1112,0.0303,0.0,0.0,0.0,0.0,0.0,0.0,0.0,0.0,0.0,0.0,0.0,0.0,0.0,0.0,0.0,0.0,0.0,0.0,0.0,0.0,0.0,0.0,0.0103,0.0413,0.0,0.1908,0.1735,0.2058,0.2061,0.1661,0.1442,0.1516,0.1794,0.1657,0.167,0.1895,0.1156,0.0485,0.0,0.0486,0.0988,0.12,-0.1879,-0.4856,-0.7659,-0.7918,-0.8228,-0.8404,-0.837,-0.8445,-0.8635,-0.8655,-0.8669,-0.8676,-0.8825,-0.8899,-0.8899,-0.8927,-0.894,-0.894,-0.894,-0.894,-0.8967,-0.9266,-0.9395,-0.9456,-0.972,-0.9822,-0.9822,1.3432,1.3298,1.3373,1.3483,1.4883,1.6342,1.7572,1.8256,1.8812,1.9088,1.9382,1.9827,2.0131,2.068,2.1042,2.0895,2.0762,2.023,1.9322,1.7318,1.5408,1.3826,1.1954,1.0509,0.9388,0.8882,0.8518,0.8136,0.7415,0.0,0.0,0.0,0.6672,0.6739,0.6498,0.6383,0.6253,0.6986,0.6736,0.5476,0.3035,0.1207,0.0,0.0,0.0,0.0,0.0,0.0,0.0,0.0,0.0,0.0,0.0,0.0,0.0,0.0,0.0,0.0,0.0,0.0,0.0,0.0,0.0,0.0,0.0,0.0,0.0,0.0,0.0,0.0,0.0,0.0522,0.0,0.0,0.1458,0.1507,0.1182,0.1169,0.1158,0.1241,0.1762,0.2068,0.2202,0.1862,0.0688,-0.1525,0.0291,0.0492,-0.1585,-0.2163,-0.306,-0.4221,-0.6833,-0.8196,-0.8384,-0.8615,-0.8723,-0.871,-0.8791,-0.8825,-0.8832,-0.8906,-0.894,-0.894,-0.894,-0.894,-0.8947,-0.9022,-0.9008,-0.8974,-0.9354,-0.9449,-0.9415,-0.9713,-0.9822,-0.9822,1.4341,1.4033,1.4179,1.5106,1.6391,1.7666,1.8692,1.8986,1.9237,1.9597,1.8848,1.8613,1.9573,2.0477,2.0989,2.0695,2.0367,1.9445,1.7923,1.5714,1.3892,1.2551,1.0694,0.9652,0.9388,0.9062,0.8527,0.7971,0.7215,0.0,0.0,0.6422,0.6332,0.6662,0.6387,0.617,0.0,0.0,0.7416,0.7345,0.5597,0.3616,0.161,0.0402,0.0,0.0,0.0,0.0,0.0,0.0,0.0,0.0,0.0,0.0,0.0,0.0,0.0,0.0,0.0,0.0,0.0,0.0,0.0,0.0,0.0,0.0,0.0,0.0,0.0,0.0,0.0,0.0,0.0,0.0,0.0733,0.0613,0.0595,0.0593,0.0589,0.0577,0.1667,0.2263,0.1816,0.218,0.0898,-0.2683,0.0194,0.0491,-0.3254,-0.1963,-0.0891,-0.061,-0.5156,-0.7806,-0.8374,-0.8832,-0.894,-0.8804,-0.8893,-0.8954,-0.8981,-0.8954,-0.8954,-0.8981,-0.8954,-0.894,-0.8947,-0.9096,-0.9069,-0.8981,-0.9395,-0.9469,-0.9367,-0.9632,-0.9727,-0.9734,1.5366,1.5824,1.6344,1.6375,1.8037,1.9247,1.8888,2.0003,2.0856,2.0895,1.9534,1.9139,2.0755,2.0996,2.0989,2.0695,1.9161,1.7911,1.7517,1.426,1.2363,1.2242,1.0531,0.9551,0.9388,0.8954,0.8329,0.7589,0.7215,0.6819,0.0,0.631,0.6483,0.0,0.0,0.0,0.0,0.7464,0.762,0.7912,0.7679,0.7478,0.6687,0.1811,0.0,0.0,0.0,0.0,0.0,0.0,0.0,0.0,0.0,0.0,0.0,0.0,0.0,0.0,0.0,0.0,0.0,0.0,0.0,0.0,0.0,0.0,0.0,0.0,0.0,0.0,0.0,0.0,0.0,0.0,0.0104,0.0101,0.0101,0.0101,0.01,0.0098,0.1517,0.182,0.0096,0.1503,0.1119,-0.2047,0.0391,0.1683,0.0906,0.109,0.0804,-0.0,-0.3392,-0.6213,-0.852,-0.8622,-0.8737,-0.911,-0.8994,-0.9008,-0.913,-0.8994,-0.9008,-0.9123,-0.8994,-0.894,-0.8947,-0.9096,-0.9069,-0.8967,-0.9279,-0.9306,-0.9198,-0.9361,-0.9422,-0.9442,1.7032,1.7033,1.7236,1.7887,1.8617,1.9336,2.0029,1.9865,1.9546,1.9546,1.9814,2.0322,2.0982,2.0195,1.9827,2.0571,1.8013,1.6263,1.6035,1.3639,1.1687,1.0644,0.9996,0.9496,0.9252,0.8893,0.8304,0.7556,0.6939,0.6364,0.0,0.0,0.0,0.0,0.0,0.6952,0.6989,0.7607,0.785,0.7952,0.7952,0.7972,0.7685,0.4422,0.1908,0.0201,0.1811,0.141,0.0,0.0,0.0,0.0,0.0,0.0,0.0,0.0,0.0,0.0,0.0,0.0,0.0,0.0,0.0,0.0,0.0,0.0,0.0,0.0,0.0,0.0,0.0,0.0,0.0,0.0,0.0,0.0,0.0,0.0,0.0,0.0,0.0603,0.0705,-0.0194,-0.02,-0.0101,0.01,0.1481,0.1386,-0.0604,0.0694,0.1296,0.0927,-0.2691,-0.5927,-0.8464,-0.8662,-0.8845,-0.9022,-0.9055,-0.9096,-0.9157,-0.9191,-0.9239,-0.9279,-0.913,-0.9117,-0.9211,-0.9266,-0.9205,-0.9089,-0.93,-0.9286,-0.9171,-0.9327,-0.9442,-0.953,1.8321,0.0,1.844,0.0,1.9524,1.9839,2.0943,2.0068,1.9024,1.8512,1.9546,2.0195,1.9674,1.8512,1.8244,1.9683,1.6593,1.4641,1.4852,1.2768,1.0951,0.9612,0.9564,0.9422,0.9157,0.8818,0.8419,0.7838,0.6951,0.6383,0.0,0.0,0.0,0.0,0.7056,0.7263,0.7006,0.7762,0.8038,0.8038,0.8038,0.7952,0.7872,0.6642,0.4622,0.2412,0.2711,0.2615,0.2318,0.2316,0.1813,0.131,0.212,0.1709,0.1097,0.1083,0.0583,0.0,0.0,0.0,0.0,0.0,0.0,0.0404,0.2021,0.2324,0.212,0.131,0.121,0.0907,0.0101,0.0,0.0,0.0,0.0,0.0,0.0,0.0,0.0201,0.0893,0.0705,0.0202,-0.0688,-0.1504,-0.1518,-0.05,0.1492,0.1592,-0.0906,0.0,0.0,0.0,0.0,0.0,-0.8575,-0.8702,-0.8789,-0.894,-0.9042,-0.911,-0.9157,-0.9313,-0.9334,-0.9245,-0.9178,-0.9191,-0.9252,-0.93,-0.9225,-0.9103,-0.9259,-0.9225,-0.9103,-0.9211,-0.932,-0.9422,1.9261,1.9584,2.0128,2.0895,2.1096,2.1109,2.1109,2.1109,2.0449,1.8768,1.8512,1.7859,1.6172,1.5913,1.6381,1.7538,1.4759,1.3358,1.452,1.1615,0.9761,0.9612,0.9462,0.9313,0.9157,0.8716,0.8486,0.8492,0.7565,0.0,0.7458,0.0,0.6927,0.7446,0.7243,0.7404,0.7945,0.8038,0.8038,0.8038,0.8038,0.7952,0.7972,0.7972,0.7979,0.7172,0.191,0.3419,0.7892,0.7912,0.6158,0.4422,0.7089,0.5887,0.3518,0.3518,0.1903,0.0,0.0,0.0,0.0,0.0,0.0,0.1415,0.6715,0.7938,0.719,0.4522,0.3914,0.3112,0.0503,0.0,0.0,0.0,0.0,0.0,0.0,0.0,0.0808,0.2932,0.2363,0.0818,-0.1767,-0.2029,-0.2862,-0.4912,0.01,0.273,0.1617,0.0,0.0,0.0,0.0523,0.0,-0.8883,-0.8722,-0.8702,-0.894,-0.894,-0.9015,-0.9157,-0.9313,-0.9225,-0.8954,-0.9089,-0.9076,-0.8954,-0.9096,-0.9069,-0.8954,-0.9096,-0.9069,-0.894,-0.8947,-0.8947,-0.8988,2.0498,2.0602,2.0834,2.0996,2.1109,2.1109,2.1109,2.1109,2.0068,1.7076,1.6689,1.5654,1.2676,1.3456,1.477,1.6129,1.3095,1.1682,1.3143,1.108,0.9713,0.9462,0.9408,0.9218,0.8859,0.8608,0.8431,0.8336,0.0,0.0,0.0,0.6811,0.7,0.7877,0.7718,0.787,0.8038,0.8038,0.8038,0.8038,0.8038,0.8045,0.8052,0.8052,0.7959,0.7772,0.6027,0.4214,0.3118,0.677,0.7478,0.6859,0.7691,0.7186,0.6268,0.6085,0.5626,0.4426,0.0933,0.0,0.0,0.0,0.2792,0.5886,0.7623,0.8019,0.7792,0.6865,0.6765,0.6469,0.566,0.2421,0.0,0.0,0.0,0.0,0.0,0.0,0.0302,0.0893,0.2016,0.2221,0.0688,-0.0201,-0.0612,-0.0407,-0.2874,-0.3176,-0.0403,0.0,0.0,0.0,0.0526,0.0,-0.2859,-0.6837,-0.8851,-0.911,-0.8977,-0.9096,-0.9462,-0.9517,-0.9537,-0.953,-0.9374,-0.934,-0.9381,-0.9218,-0.9123,-0.9083,-0.9028,-0.8981,-0.894,-0.894,-0.9001,-0.9096,2.1109,2.1109,2.1109,2.1109,2.1109,2.1109,2.1109,2.1109,1.9814,1.6302,1.5913,1.4586,1.103,1.1541,0.0,1.4468,1.1901,1.0871,1.2403,1.0778,0.9632,0.9395,0.9327,0.9137,0.8804,0.8587,0.0,0.835,0.7792,0.7404,0.7404,0.7188,0.7473,0.8038,0.8038,0.8038,0.8038,0.8038,0.8038,0.8038,0.8038,0.8038,0.8038,0.8038,0.8045,0.7959,0.7952,0.5822,0.3513,0.6853,0.7979,0.7972,0.7972,0.7872,0.7634,0.7446,0.7482,0.6856,0.3685,0.144,0.049,0.2477,0.5527,0.8039,0.8012,0.7992,0.7979,0.7972,0.7979,0.7792,0.7178,0.4031,0.1209,0.0202,0.0,0.0,0.0,0.0,0.0,0.0,0.1212,0.2129,0.2288,0.1313,0.1023,0.1745,-0.1952,-0.4096,0.0,0.0,0.031,0.0935,0.0319,0.0,0.0,-0.4867,-0.7257,-0.7404,-0.8537,-0.9182,-0.9442,-0.9557,-0.9564,-0.9483,-0.9415,-0.9374,-0.934,-0.915,-0.9076,-0.9062,-0.8974,-0.894,-0.894,-0.894,-0.8994,-0.9083,2.1109,2.1109,2.1109,2.1109,2.1109,2.1109,2.1109,2.1109,1.9814,1.6302,1.5913,1.454,1.089,1.048,1.1056,1.2389,0.0,0.0,1.1985,1.0517,0.9544,0.9388,0.9239,0.9083,0.8927,0.8635,0.8472,0.8452,0.8174,0.8038,0.8038,0.8038,0.8038,0.8038,0.8038,0.8038,0.8038,0.8038,0.8038,0.8038,0.8038,0.8038,0.8038,0.8038,0.8038,0.8045,0.7965,0.7959,0.8045,0.7965,0.7959,0.8038,0.8038,0.7943,0.7828,0.7814,0.7624,0.7469,0.7537,0.4016,0.1476,0.6676,0.8039,0.8012,0.7979,0.7972,0.7965,0.8045,0.8045,0.7553,0.5937,0.4834,0.3327,0.0504,0.0,0.0,0.0,0.0,0.0,0.0,0.0,0.0,0.2734,0.2156,0.1647,0.1716,0.1719,-0.091,0.0,0.0,0.0,0.0,0.0,0.0,0.0,-0.2739,-0.429,-0.4578,-0.7774,-0.9238,-0.9198,-0.949,-0.9388,-0.9001,-0.9266,-0.9218,-0.8954,-0.894,-0.894,-0.894,-0.894,-0.894,-0.894,-0.894,-0.8947,-0.8974,0.0,0.0,2.1109,2.1109,2.1109,2.1109,2.1109,2.1109,1.9814,1.6302,1.5913,1.454,1.089,1.0392,1.039,1.0607,1.0191,1.0108,1.0308,0.9926,0.9544,0.9388,0.9239,0.9028,0.8771,0.8581,0.837,0.8147,0.8072,0.8038,0.8038,0.8038,0.8038,0.8038,0.8038,0.8038,0.8038,0.8038,0.8038,0.8038,0.8038,0.8038,0.8038,0.8038,0.8038,0.8038,0.8045,0.7952,0.7965,0.7972,0.7972,0.7965,0.7965,0.7932,0.7963,0.7848,0.7787,0.7684,0.766,0.5344,0.3801,0.719,0.8012,0.7985,0.7972,0.7959,0.8045,0.8038,0.814,0.8126,0.7712,0.7303,0.5557,0.0721,0.0,0.0,0.0,0.0,0.0,0.0,0.0,0.0203,0.0707,0.0507,0.0408,0.0,0.1238,0.1142,-0.0421,-0.0218,0.0,0.0,0.0,0.0,0.0,-0.071,-0.2266,-0.4896,-0.8108,-0.9666,-0.951,-0.9686,-0.9652,-0.9449,-0.9401,-0.9273,-0.9096,-0.8981,-0.894,-0.894,-0.894,-0.894,-0.894,-0.894,-0.9008,-0.9089,2.1082,2.1109,2.1109,2.1109,2.1109,2.1109,2.1109,2.1109,1.9814,1.6302,1.5913,1.4512,1.0798,1.0324,1.0188,0.9964,0.9944,0.991,0.9829,0.9625,0.9469,0.9388,0.9171,0.8981,0.8818,0.8662,0.8438,0.8147,0.8147,0.8106,0.8038,0.8038,0.8038,0.8038,0.8038,0.8038,0.8038,0.8038,0.8038,0.8038,0.8038,0.8038,0.8038,0.8038,0.8038,0.8038,0.8038,0.8045,0.7959,0.7959,0.7959,0.7959,0.7959,0.8099,0.8126,0.8045,0.797,0.7923,0.776,0.6195,0.5227,0.7478,0.8039,0.8167,0.8167,0.8201,0.8241,0.8241,0.8316,0.8377,0.828,0.8216,0.7264,0.4154,0.206,0.0511,0.0101,0.0,0.0,0.0,0.0,0.0,0.0,0.0,0.0,0.0,0.0618,0.0,0.179,0.0653,0.0,0.0,0.0,0.0,0.0,0.0,-0.0852,-0.2671,-0.7484,-0.9788,-0.9751,-0.9761,-0.9666,-0.9401,-0.9388,-0.9259,-0.9049,-0.8974,-0.894,-0.894,-0.894,-0.894,-0.894,-0.894,-0.8988,-0.9042,2.1056,2.1109,2.1109,2.1109,2.1109,2.1109,2.1109,2.1109,1.9814,1.6302,1.5883,1.4428,1.0686,1.0256,1.0127,0.9842,0.9822,0.9822,0.9822,0.9544,0.9381,0.9381,0.9096,0.894,0.894,0.8791,0.8574,0.8303,0.8282,0.8201,0.8072,0.8052,0.8038,0.8038,0.8038,0.8038,0.8038,0.8038,0.8038,0.8038,0.8038,0.8038,0.8038,0.8038,0.8052,0.8072,0.8045,0.8052,0.8072,0.8072,0.8072,0.8079,0.8099,0.8194,0.8303,0.8303,0.8208,0.8113,0.8032,0.7006,0.6284,0.773,0.8228,0.8316,0.8303,0.8397,0.8479,0.8479,0.8499,0.852,0.8329,0.8138,0.7871,0.77,0.4123,0.1117,0.0306,0.0,0.0,0.0,0.0,0.0,0.0,0.0,0.0,0.0,0.0,0.0411,0.1465,0.054,0.0,0.0,0.0,0.0,0.0,0.0,0.0,-0.0123,-0.5667,-0.883,-0.9806,-0.9781,-0.9591,-0.9198,-0.9334,-0.9218,-0.8947,-0.8947,-0.8947,-0.8947,-0.8947,-0.8947,-0.8947,-0.8947,-0.885,-0.8863,2.1056,2.1109,2.1109,2.1109,2.1109,2.1109,2.1109,2.1109,1.9814,1.6302,1.5752,1.4398,1.0672,1.0161,1.0012,0.9836,0.9822,0.9822,0.9822,0.9544,0.9381,0.9381,0.9096,0.894,0.894,0.8791,0.8621,0.8452,0.833,0.8255,0.8235,0.8099,0.8038,0.8038,0.8038,0.8038,0.8038,0.8038,0.8038,0.8038,0.8038,0.8038,0.8038,0.8038,0.8119,0.8214,0.8085,0.8126,0.8235,0.8235,0.8235,0.8255,0.8377,0.8431,0.8452,0.8452,0.8431,0.8418,0.8334,0.8229,0.8125,0.8445,0.8452,0.8452,0.8452,0.8465,0.8479,0.8479,0.8587,0.8682,0.8595,0.6721,0.5327,0.5753,0.2664,0.052,0.1267,0.0,0.0,0.0,0.0,0.0,0.0,0.0,0.0,0.0,0.0,0.0107,0.0217,0.0111,0.0,0.0,0.0,0.0,0.0,0.0,0.0,-0.0,-0.0984,-0.4419,-0.9822,-0.9842,-0.968,-0.9497,-0.9518,-0.9252,-0.8883,-0.8883,-0.8876,-0.8856,-0.8876,-0.8876,-0.8856,-0.8856,-0.893,-0.8897,2.0855,2.0869,2.0828,2.0668,2.0775,2.0869,2.0869,2.1002,2.0144,1.7423,1.6287,1.4566,1.1791,1.0585,0.9985,0.9836,0.9822,0.9822,0.9822,0.9625,0.9503,0.9503,0.9293,0.9137,0.9055,0.8906,0.8757,0.8608,0.854,0.8425,0.8269,0.8201,0.8119,0.8038,0.8038,0.8038,0.8038,0.8038,0.8038,0.8038,0.8038,0.8092,0.8167,0.8167,0.8255,0.8377,0.8303,0.8323,0.8384,0.8384,0.8384,0.8397,0.8459,0.8594,0.873,0.873,0.8615,0.8486,0.8387,0.8499,0.8499,0.8499,0.8554,0.8608,0.8608,0.873,0.8818,0.8743,0.8852,0.8947,0.8783,0.7768,0.5971,0.2978,0.1696,0.103,0.0734,0.0829,0.062,0.0105,0.0,0.0,0.0,0.0,0.0,0.0,0.0,0.0,0.0,0.0,0.0,0.0,0.0,0.0,0.0,0.0,0.0,0.0,0.0,-0.1597,-0.4668,-0.8133,-0.9768,-0.9557,-0.774,-0.6778,-0.6581,-0.6581,-0.6547,-0.6715,-0.832,-0.7973,-0.6599,-0.716,-0.8027,-0.9057,2.0681,2.0681,2.0588,2.0281,2.0481,2.0681,2.0681,2.0869,2.0281,1.8411,1.6631,1.4798,1.2653,1.0994,0.9951,0.9829,1.0179,1.0301,1.0301,1.0314,0.9996,0.9612,0.9429,0.9259,0.911,0.8994,0.8879,0.8764,0.873,0.8594,0.837,0.8336,0.8255,0.814,0.8106,0.8092,0.8092,0.8058,0.8038,0.8038,0.8038,0.8133,0.8269,0.8269,0.8384,0.8533,0.8492,0.8506,0.8533,0.8533,0.856,0.8594,0.8628,0.8825,0.9042,0.9042,0.8872,0.8682,0.8648,0.8635,0.8628,0.8594,0.8676,0.8764,0.8764,0.8967,0.9123,0.8903,0.9096,0.9164,0.8963,0.8948,0.6931,0.0988,0.0,0.1236,0.0524,0.0943,0.0947,0.0107,0.0,0.0,0.0,0.0,0.0,0.0,0.0,0.0,0.0,0.0,0.0,0.0,0.0,0.0,0.0,0.0,0.0,0.0,0.0,0.0,-0.0123,-0.5172,-0.8337,-0.9686,-0.7115,-0.509,-0.3454,-0.3439,-0.3408,-0.3706,-0.5953,-0.6293,-0.5518,-0.573,-0.7269,-0.9245,2.0681,2.0681,2.0588,2.0281,2.0481,2.0681,2.0681,2.0695,2.006,1.8387,1.6349,1.4353,1.2619,1.089,0.9836,0.9822,1.114,1.1976,1.1976,1.196,1.1295,0.9612,0.9327,0.9103,0.896,0.8947,0.8933,0.892,0.8777,0.8703,0.8676,0.8533,0.8459,0.8445,0.8309,0.8255,0.8241,0.8099,0.8038,0.8038,0.8038,0.8133,0.8269,0.8269,0.8445,0.8676,0.8533,0.8574,0.8696,0.8696,0.8784,0.8927,0.9062,0.9218,0.9347,0.9347,0.9334,0.9286,0.9144,0.9103,0.9069,0.894,0.8913,0.892,0.892,0.9042,0.9157,0.8931,0.9064,0.9198,0.8882,0.8883,0.6947,0.1005,0.0,0.0,0.174,0.086,0.0107,0.0,0.0,0.0,0.0,0.0,0.0,0.0,0.0,0.0,0.0,0.0,0.0,0.0,0.0,0.0,0.0,0.0,0.0,0.0,0.0,0.0,-0.0,-0.0492,-0.4032,-0.9834,-0.9587,-0.5983,-0.0352,-0.0347,-0.0344,-0.0343,-0.0563,-0.385,-0.8298,-0.5838,-0.6829,-0.9422,2.0468,2.0401,2.0254,1.9773,1.9933,2.0134,2.0134,2.0441,2.0288,1.9312,1.6875,1.4911,1.3918,1.1421,0.9822,0.9822,1.1476,1.2335,1.2225,1.3286,1.2612,0.9737,0.9408,0.9225,0.9076,0.8988,0.894,0.894,0.8879,0.8804,0.871,0.8648,0.8574,0.8472,0.8336,0.8323,0.8384,0.814,0.8147,0.8309,0.8221,0.833,0.854,0.854,0.8669,0.8845,0.8784,0.8859,0.8988,0.8988,0.9089,0.9225,0.9279,0.9401,0.9537,0.9625,0.9652,0.9625,0.9476,0.9367,0.9279,0.9225,0.9211,0.9211,0.9211,0.9327,0.9415,0.9109,0.7741,0.7072,0.8574,0.5921,0.268,0.0341,0.0,0.0215,0.0655,0.0326,0.0,0.0,0.0,0.0,0.0,0.0,0.0,0.0,0.0,0.0,0.0,0.0,0.0,0.0,0.0,0.0,0.0,0.0,0.0,0.0,0.0,0.0,0.0,0.0,-0.1353,-0.3674,-0.3674,-0.2305,0.0,0.0,0.0,0.0,0.0,-0.1371,-0.3452,-0.4518,-0.6945,-0.9591,2.0468,2.0374,2.0187,1.9599,1.9746,1.9907,1.9813,2.0147,2.0254,1.9853,1.7081,1.5064,1.4639,1.1736,0.9842,0.989,1.2053,1.3283,1.3027,1.4178,1.3555,1.0362,0.9669,0.9286,0.9089,0.8988,0.894,0.894,0.894,0.8886,0.8784,0.8784,0.8723,0.8621,0.8472,0.8465,0.8533,0.8282,0.8296,0.8472,0.8377,0.8486,0.871,0.871,0.8804,0.894,0.894,0.9028,0.915,0.915,0.9286,0.9456,0.9456,0.9557,0.9693,0.9795,0.9822,0.9802,0.97,0.9598,0.9496,0.9401,0.9381,0.9381,0.9381,0.9503,0.9479,0.9275,0.7773,0.6368,0.6191,0.2784,0.0,0.0,0.0,0.0,0.0,0.0,0.0,0.0,0.0,0.0,0.0,0.0,0.0,0.0,0.0,0.0,0.0,0.0,0.0,0.0,0.0,0.0,0.0,0.0,0.0,0.0,0.0,0.0,0.0,0.0,0.0,0.0,0.0,0.0,0.0,0.0,0.0,0.0,0.0,0.0,-0.0234,-0.2472,-0.6098,-0.9747,2.0735,2.0668,2.0481,1.9907,2.004,2.0134,1.984,1.98,1.9813,1.98,1.6782,1.4609,1.4609,1.1736,0.9883,1.0032,1.3101,1.4933,1.4801,1.472,1.382,1.1914,1.0301,0.9245,0.8947,0.894,0.894,0.894,0.894,0.894,0.894,0.894,0.894,0.8933,0.8777,0.871,0.8703,0.8547,0.8486,0.8486,0.8486,0.8574,0.8716,0.871,0.8811,0.894,0.894,0.9035,0.9157,0.9157,0.9361,0.9612,0.9612,0.9707,0.9822,0.9822,0.9822,0.9822,0.9822,0.9822,0.9747,0.9456,0.9388,0.9388,0.9388,0.9399,0.9526,0.9427,0.958,0.7752,0.1207,0.0,0.0,0.0,0.0,0.0,0.0,0.0,0.0,0.0,0.0,0.0,0.0,0.0,0.0,0.0,0.0,0.0,0.0,0.0,0.0,0.0,0.0,0.0,0.0,0.0,0.0,0.0,0.0,0.0,0.0,0.0,0.0,0.0,0.0,0.0,0.0,0.0,0.0,0.0,0.0,0.0,0.0,0.0,-0.4131,-0.9781,2.0428,2.0201,2.0,1.9826,1.9867,1.9973,2.008,2.0281,2.0334,2.0134,1.7345,1.5299,1.4872,1.1922,0.9958,0.9897,1.3269,1.5845,1.701,1.5655,1.3981,1.2183,1.0414,0.9401,0.9096,0.9089,0.9042,0.894,0.894,0.894,0.894,0.894,0.894,0.8933,0.8777,0.8771,0.8852,0.8594,0.8608,0.8791,0.8682,0.8791,0.9008,0.8906,0.9028,0.9232,0.913,0.9266,0.9379,0.9379,0.952,0.9694,0.9694,0.9781,0.9854,0.9754,0.9836,0.9822,0.9822,0.9822,0.9802,0.9713,0.9686,0.9693,0.9707,0.9754,0.968,0.9727,0.9747,0.7755,0.1226,0.0,0.0,0.0,0.0,0.0,0.0,0.0,0.0,0.0,0.0,0.0,0.0,0.0,0.0,0.0,0.0,0.0,0.0,0.0,0.0,0.0,0.0,0.0,0.0,0.0,0.0,0.0,0.0,0.0,0.0,0.0,0.0,0.0,0.0,0.0,0.0,0.0,0.0,0.0,0.0,0.0,0.0,0.0,-0.4171,-0.9801,2.0615,2.0441,2.0281,2.016,2.0147,2.0174,2.0227,2.0388,2.0183,1.9254,1.7033,1.5092,1.4108,1.1579,0.9944,0.9917,1.3331,1.5597,1.6076,1.5504,1.3986,1.1492,1.0308,0.9612,0.9252,0.9245,0.9171,0.9022,0.9022,0.8994,0.894,0.894,0.894,0.894,0.8899,0.8906,0.8933,0.8866,0.8913,0.9022,0.8988,0.9083,0.9232,0.9144,0.9225,0.9367,0.9286,0.9305,0.9281,0.7943,0.7691,0.7841,0.7841,0.7878,0.816,0.9477,0.9787,0.9856,0.9856,0.9856,0.9856,0.9856,0.9842,0.9836,0.9849,0.9747,0.9774,0.9808,0.768,0.4694,0.0741,0.0,0.0,0.0,0.0,0.0,0.0,0.0,0.0,0.0,0.0,0.0,0.0,0.0,0.0,0.0,0.0,0.0,0.0,0.0,0.0,0.0,0.0,0.0,0.0,0.0,0.0,0.0,0.0,0.0,0.0,0.0,0.0,0.0,0.0,0.0,0.0,0.0,0.0,0.0,0.0,0.0,0.0,0.0,-0.2551,-0.6241,2.1069,2.1042,2.0962,2.0722,2.0681,2.0601,2.0347,2.0307,1.9685,1.7931,1.6129,1.4401,1.267,1.0927,0.991,1.0039,1.3154,1.448,1.3174,1.4402,1.3581,1.0218,1.0066,0.9856,0.9449,0.9415,0.9327,0.9171,0.9171,0.9096,0.896,0.8974,0.8967,0.896,0.911,0.9103,0.8994,0.9266,0.93,0.9184,0.9327,0.9388,0.9401,0.9388,0.9395,0.9422,0.9312,0.917,0.857,0.5185,0.4306,0.4413,0.4404,0.4404,0.5032,0.8073,0.9131,0.9406,0.9406,0.9406,0.9406,0.9419,0.9529,0.9754,0.9741,0.9787,0.9588,0.9082,0.4203,0.0,0.0,0.0,0.0,0.0,0.0,0.0,0.0,0.0,0.0,0.0,0.0,0.0,0.0,0.0,0.0,0.0,0.0,0.0,0.0,0.0,0.0,0.0,0.0,0.0,0.0,0.0,0.0,0.0,0.0,0.0,0.0,0.0,0.0,0.0,0.0,0.0,0.0,0.0,0.0,0.0,0.0,0.0,0.0,0.0,0.0,-0.0842,2.0775,2.0588,2.0481,2.0641,2.0681,2.0735,2.0895,2.0922,2.0268,1.8475,1.6754,1.5003,1.319,1.1262,1.0148,1.0059,1.2041,1.3418,1.324,1.3465,1.2586,1.0527,1.0175,1.0005,0.9903,0.968,0.9483,0.9334,0.9334,0.9252,0.911,0.9232,0.9218,0.9117,0.9266,0.9313,0.9286,0.9354,0.9361,0.9334,0.9367,0.9456,0.9544,0.9429,0.9523,0.9713,0.9506,0.7862,0.5395,0.2113,0.1019,0.1041,0.103,0.1025,0.1148,0.1893,0.3981,0.5908,0.5908,0.5908,0.5925,0.599,0.7916,0.9817,0.9828,0.9777,0.8329,0.3143,0.0996,0.0,0.0,0.0,0.0,0.0,0.0,0.0,0.0,0.0,0.0,0.0,0.0,0.0,0.0,0.0,0.0,0.0,0.0,0.0,0.0,0.0,0.0,0.0,0.0,0.0,0.0,0.0,0.0,0.0,0.0,0.0,0.0,0.0,0.0,0.0,0.0,0.0,0.0,0.0,0.0,0.0,0.0,0.0,0.0,0.0,0.0,-0.0603,2.0708,2.0668,2.0695,2.0855,2.0882,2.0935,2.1082,2.1109,2.0195,1.7602,1.6465,1.4814,1.2161,1.087,1.0276,1.0263,1.1964,1.2772,1.2134,1.271,1.2362,1.0623,1.0344,1.0229,1.0161,1.0005,0.9781,0.949,0.949,0.9408,0.9266,0.9347,0.934,0.9266,0.9422,0.9449,0.9388,0.953,0.9551,0.9496,0.9564,0.9639,0.97,0.9625,0.9693,0.9829,0.9667,0.6639,0.2247,0.0634,0.0,0.0,0.0,0.0,0.0,0.0,0.126,0.261,0.259,0.3735,0.4916,0.4916,0.7419,0.9832,0.9803,0.738,0.4206,0.0759,0.0,0.0,0.0,0.0,0.0,0.0,0.0,0.0,0.0,0.0,0.0,0.0,0.0,0.0,0.0,0.0,0.0,0.0,0.0,0.0,0.0,0.0,0.0,0.0,0.0,0.0,0.0,0.0,0.0,0.0,0.0,0.0,0.0,0.0,0.0,0.0,0.0,0.0,0.0,0.0,0.0,0.0,0.0,0.0,0.0,0.0,0.0,-0.0239,2.0775,2.0909,2.1056,2.1096,2.1109,2.1109,2.1109,2.1109,1.9814,1.6302,1.5752,1.4363,1.0918,1.0399,1.0365,1.048,1.1766,1.2094,1.0843,1.2025,1.2219,1.0534,1.0507,1.0439,1.0317,1.029,1.0086,0.9686,0.9686,0.9591,0.9422,0.9442,0.9442,0.9429,0.9578,0.9578,0.9469,0.972,0.9754,0.9652,0.9774,0.9822,0.9822,0.9849,0.9876,0.9774,0.9205,0.5143,0.0,0.0,0.0,0.0,0.0,0.0,0.0,0.0,0.0,0.0,0.0,0.2022,0.4117,0.4087,0.611,0.8065,0.8102,0.3894,0.0,0.0,0.0,0.0,0.0,0.0,0.0,0.0,0.0,0.0,0.0,0.0,0.0,0.0,0.0,0.0,0.0,0.0,0.0,0.0,0.0,0.0,0.0,0.0,0.0,0.0,0.0,0.0,0.0,0.0,0.0,0.0,0.0,0.0,0.0,0.0,0.0,0.0,0.0,0.0,0.0,0.0,0.0,0.0,0.0,0.0,0.0,0.0,0.0,0.0,2.0962,2.0882,2.0815,2.1069,2.1109,2.1109,2.1109,2.1109,1.9814,1.6302,1.5893,1.4577,1.108,1.0555,1.0473,1.0487,1.0746,1.0816,1.0711,1.0982,1.0969,1.069,1.0561,1.048,1.0466,1.0344,1.0181,0.9992,0.9992,0.9849,0.9585,0.9707,0.9693,0.9585,0.9727,0.9781,0.9768,0.9802,0.9808,0.9795,0.9815,0.9822,0.9836,0.9971,0.9908,0.9436,0.6611,0.3226,0.0,0.0,0.0,0.0,0.0,0.0,0.0,0.0,0.0,0.0,0.0,0.0379,0.0637,0.0652,0.1051,0.1322,0.1335,0.0663,0.0,0.0,0.0,0.0,0.0,0.0,0.0,0.0,0.0,0.0,0.0,0.0,0.0,0.0,0.0,0.0,0.0,0.0,0.0,0.0,0.0,0.0,0.0,0.0,0.0,0.0,0.0,0.0,0.0,0.0,0.0,0.0,0.0,0.0,0.0,0.0,0.0,0.0,0.0,0.0,0.0,0.0,0.0,0.0,0.0,0.0,0.0,0.0,0.0,0.0,2.0561,2.0655,2.0762,2.1056,2.1109,2.1109,2.1109,2.1109,1.9814,1.6302,1.5913,1.4623,1.1115,1.0663,1.0622,1.0622,1.0622,1.0649,1.0717,1.0717,1.0717,1.0717,1.0656,1.0622,1.0622,1.0561,1.0453,1.0297,1.0127,0.9985,0.9856,0.9829,0.9788,0.9734,0.9795,0.9822,0.9822,0.9822,0.9822,0.9822,0.9822,0.9869,0.9958,1.0025,0.9995,0.9348,0.4015,0.1178,0.0,0.0,0.0,0.0,0.0,0.0,0.0,0.0,0.0,0.0,0.0,0.0,0.0,0.0,0.0,0.0,0.0,0.0,0.0,0.0,0.0,0.0,0.0,0.0,0.0,0.0,0.0,0.0,0.0,0.0,0.0,0.0,0.0,0.0,0.0,0.0,0.0,0.0,0.0,0.0,0.0,0.0,0.0,0.0,0.0,0.0,0.0,0.0,0.0,0.0,0.0,0.0,0.0,0.0,0.0,0.0,0.0,0.0,0.0,0.0,0.0,0.0,0.0,0.0,0.0,0.0,0.0,0.0]}]]